[[{"header":{"parameterUnit":"m.s-1","parameterCategory":1,"la1":30.6,"la2":29.2853,"lo1":-89.7004,"lo2":-87.6739,"dy":0.0162,"dx":0.0183,"nx":112,"ny":82,"refTime":"2023-11-20T06:00:00:Z","depth":0,"parameterNumber":2,"parameterNumberName":"U-component_of_WINDS"},"data":[0.0,0.0,0.0,0.0,0.0,0.0,0.0,0.0,0.0,0.0,0.0,0.0,0.0,0.0,0.0,0.0,0.0,0.0,0.0,0.0,0.0,0.0,0.0,0.0,0.0,0.0,0.0,0.0,0.0,0.0,0.0,0.0,0.0,0.0,0.0,0.0,0.0,0.0,0.0,0.0,0.0,0.0,0.0,0.0,0.0,0.0,0.0,0.0,0.0,0.0,0.0,0.0,0.0,0.0,0.0,0.0,0.0,0.0,0.0,0.0,0.0,0.0,0.0,0.0,0.0,0.0,0.0,0.0,0.0,0.0,0.0,0.0,0.0,0.0,0.0,0.0,0.0,0.0,0.0,0.0,0.0,0.0,0.0,0.0,0.0,0.0,0.0,0.0,0.0,0.0,4.5676,4.555,4.5263,4.4896,4.4438,4.4355,4.425,4.4017,0.0,0.0,0.0,0.0,0.0,0.0,0.0,0.0,0.0,0.0,0.0,0.0,0.0,0.0,0.0,0.0,0.0,0.0,0.0,0.0,0.0,0.0,0.0,0.0,0.0,0.0,0.0,0.0,0.0,0.0,0.0,0.0,0.0,0.0,0.0,0.0,0.0,0.0,0.0,0.0,0.0,0.0,0.0,0.0,0.0,0.0,0.0,0.0,0.0,0.0,0.0,0.0,0.0,0.0,0.0,0.0,0.0,0.0,0.0,0.0,0.0,0.0,0.0,0.0,0.0,0.0,0.0,0.0,0.0,0.0,0.0,0.0,0.0,0.0,0.0,0.0,0.0,0.0,0.0,0.0,0.0,0.0,0.0,0.0,0.0,0.0,0.0,0.0,0.0,0.0,0.0,0.0,0.0,0.0,0.0,0.0,0.0,0.0,0.0,0.0,0.0,0.0,0.0,0.0,4.5586,4.5283,4.4825,4.4493,4.4411,4.4192,4.4048,4.3986,0.0,0.0,0.0,0.0,0.0,0.0,0.0,0.0,0.0,0.0,0.0,0.0,0.0,0.0,0.0,0.0,0.0,0.0,0.0,0.0,0.0,0.0,0.0,0.0,0.0,0.0,0.0,0.0,0.0,0.0,0.0,0.0,0.0,0.0,0.0,0.0,0.0,0.0,0.0,0.0,0.0,0.0,0.0,0.0,0.0,0.0,0.0,0.0,0.0,0.0,0.0,0.0,0.0,0.0,0.0,0.0,0.0,0.0,0.0,0.0,0.0,0.0,0.0,0.0,0.0,0.0,0.0,0.0,0.0,0.0,0.0,0.0,0.0,0.0,0.0,0.0,0.0,0.0,0.0,0.0,0.0,0.0,0.0,0.0,0.0,0.0,0.0,0.0,0.0,0.0,0.0,0.0,0.0,0.0,0.0,0.0,0.0,0.0,0.0,0.0,0.0,0.0,0.0,4.5568,4.5419,4.4825,4.4676,4.4493,4.4192,4.4079,4.3986,4.3986,4.3986,0.0,0.0,0.0,0.0,0.0,0.0,0.0,0.0,0.0,0.0,0.0,0.0,0.0,0.0,0.0,0.0,0.0,0.0,0.0,0.0,0.0,0.0,0.0,0.0,0.0,0.0,0.0,0.0,0.0,0.0,0.0,0.0,0.0,0.0,0.0,0.0,0.0,0.0,0.0,0.0,0.0,0.0,0.0,0.0,0.0,0.0,0.0,0.0,0.0,0.0,0.0,0.0,0.0,0.0,0.0,0.0,0.0,0.0,0.0,0.0,0.0,0.0,0.0,0.0,0.0,0.0,0.0,0.0,0.0,0.0,0.0,0.0,0.0,0.0,0.0,0.0,0.0,0.0,0.0,0.0,0.0,0.0,0.0,0.0,0.0,0.0,0.0,0.0,0.0,0.0,0.0,0.0,0.0,0.0,0.0,0.0,0.0,0.0,0.0,0.0,0.0,0.0,4.5956,4.5753,4.5138,4.5149,4.5012,4.4612,4.4581,4.4581,4.4581,4.4581,0.0,0.0,0.0,0.0,0.0,0.0,0.0,0.0,0.0,0.0,0.0,0.0,0.0,0.0,0.0,0.0,0.0,0.0,0.0,0.0,0.0,0.0,0.0,0.0,0.0,0.0,0.0,0.0,0.0,0.0,0.0,0.0,0.0,0.0,0.0,0.0,0.0,0.0,0.0,0.0,0.0,0.0,0.0,0.0,0.0,0.0,0.0,0.0,0.0,0.0,0.0,0.0,0.0,0.0,0.0,0.0,0.0,0.0,0.0,0.0,0.0,0.0,0.0,0.0,0.0,0.0,0.0,0.0,0.0,0.0,0.0,0.0,0.0,0.0,0.0,0.0,0.0,0.0,0.0,0.0,0.0,0.0,0.0,0.0,0.0,0.0,0.0,0.0,0.0,0.0,0.0,0.0,0.0,0.0,0.0,0.0,0.0,0.0,0.0,0.0,0.0,0.0,4.7487,4.7138,4.7087,4.669,4.6392,4.6327,4.6327,4.6327,4.6327,4.6327,0.0,0.0,0.0,0.0,0.0,0.0,0.0,0.0,0.0,0.0,0.0,0.0,0.0,0.0,0.0,0.0,0.0,0.0,0.0,0.0,0.0,0.0,0.0,0.0,0.0,0.0,0.0,0.0,0.0,0.0,0.0,0.0,0.0,0.0,0.0,0.0,0.0,0.0,0.0,0.0,0.0,0.0,0.0,0.0,0.0,0.0,0.0,0.0,0.0,0.0,0.0,0.0,0.0,0.0,0.0,0.0,0.0,0.0,0.0,0.0,0.0,0.0,0.0,0.0,0.0,0.0,0.0,0.0,0.0,0.0,0.0,0.0,0.0,0.0,0.0,0.0,0.0,0.0,0.0,0.0,0.0,0.0,0.0,0.0,0.0,0.0,0.0,0.0,0.0,0.0,0.0,0.0,0.0,0.0,0.0,0.0,0.0,0.0,0.0,0.0,0.0,0.0,4.6533,4.6605,4.6269,4.6473,4.66,4.6513,4.6413,4.6379,4.6513,0.0,0.0,0.0,0.0,0.0,0.0,0.0,0.0,0.0,0.0,0.0,0.0,0.0,0.0,0.0,0.0,0.0,0.0,0.0,0.0,0.0,0.0,0.0,0.0,0.0,0.0,0.0,0.0,0.0,0.0,0.0,0.0,0.0,0.0,0.0,0.0,0.0,0.0,0.0,0.0,0.0,0.0,0.0,0.0,0.0,0.0,0.0,0.0,0.0,0.0,0.0,0.0,0.0,0.0,0.0,0.0,0.0,0.0,0.0,0.0,0.0,0.0,0.0,0.0,0.0,0.0,0.0,0.0,0.0,0.0,0.0,0.0,0.0,0.0,0.0,0.0,0.0,0.0,0.0,0.0,0.0,0.0,0.0,0.0,0.0,0.0,0.0,0.0,0.0,0.0,0.0,0.0,0.0,0.0,0.0,0.0,0.0,0.0,0.0,0.0,0.0,0.0,4.6046,4.6396,4.6505,4.6026,4.6345,4.66,4.6409,4.6567,4.6715,4.6851,0.0,0.0,0.0,0.0,0.0,0.0,0.0,0.0,0.0,0.0,0.0,0.0,0.0,0.0,0.0,0.0,0.0,0.0,0.0,0.0,0.0,0.0,0.0,0.0,0.0,0.0,0.0,0.0,0.0,0.0,0.0,0.0,0.0,0.0,0.0,0.0,0.0,0.0,0.0,0.0,0.0,0.0,0.0,0.0,0.0,0.0,0.0,0.0,0.0,0.0,0.0,0.0,0.0,0.0,0.0,0.0,0.0,0.0,0.0,0.0,0.0,0.0,0.0,0.0,0.0,0.0,0.0,0.0,0.0,0.0,0.0,0.0,0.0,0.0,0.0,0.0,0.0,0.0,0.0,0.0,0.0,0.0,0.0,0.0,0.0,0.0,0.0,0.0,0.0,0.0,0.0,0.0,0.0,0.0,0.0,0.0,0.0,0.0,0.0,0.0,0.0,0.0,4.7728,4.7438,4.717,4.6832,4.66,4.6409,4.6205,4.7048,4.7564,0.0,0.0,0.0,0.0,0.0,0.0,0.0,0.0,0.0,0.0,0.0,0.0,0.0,0.0,0.0,0.0,0.0,0.0,0.0,0.0,0.0,0.0,0.0,0.0,0.0,0.0,0.0,0.0,0.0,0.0,0.0,0.0,0.0,0.0,0.0,0.0,0.0,0.0,0.0,0.0,0.0,0.0,0.0,0.0,0.0,0.0,0.0,0.0,0.0,0.0,0.0,0.0,0.0,0.0,0.0,0.0,0.0,0.0,0.0,0.0,0.0,0.0,0.0,0.0,0.0,0.0,0.0,0.0,0.0,0.0,0.0,0.0,0.0,0.0,0.0,0.0,0.0,0.0,0.0,0.0,0.0,0.0,0.0,0.0,0.0,0.0,0.0,0.0,0.0,0.0,0.0,0.0,0.0,0.0,0.0,0.0,0.0,0.0,0.0,0.0,0.0,0.0,0.0,4.5969,4.6149,4.6183,4.591,4.6067,4.6205,4.6205,4.6321,4.6467,4.6675,0.0,0.0,0.0,0.0,0.0,0.0,0.0,0.0,0.0,0.0,0.0,0.0,0.0,0.0,0.0,0.0,0.0,0.0,0.0,0.0,0.0,0.0,0.0,0.0,0.0,0.0,0.0,0.0,0.0,0.0,0.0,0.0,0.0,0.0,0.0,0.0,0.0,0.0,0.0,0.0,0.0,0.0,0.0,0.0,0.0,0.0,0.0,0.0,0.0,0.0,0.0,0.0,0.0,0.0,0.0,0.0,0.0,0.0,0.0,0.0,0.0,0.0,0.0,0.0,0.0,0.0,0.0,0.0,0.0,0.0,0.0,0.0,0.0,0.0,0.0,0.0,0.0,0.0,0.0,0.0,0.0,0.0,0.0,0.0,0.0,0.0,0.0,0.0,0.0,0.0,0.0,0.0,0.0,0.0,0.0,0.0,0.0,0.0,0.0,0.0,0.0,0.0,4.5049,4.5117,4.5106,4.4749,4.5012,4.5142,4.5142,4.5329,4.5549,4.5759,0.0,0.0,0.0,0.0,0.0,0.0,0.0,0.0,0.0,0.0,0.0,0.0,0.0,0.0,0.0,0.0,0.0,0.0,0.0,0.0,0.0,0.0,0.0,0.0,0.0,0.0,0.0,0.0,0.0,0.0,0.0,0.0,0.0,0.0,0.0,0.0,0.0,0.0,0.0,0.0,0.0,0.0,0.0,0.0,0.0,0.0,0.0,0.0,0.0,0.0,0.0,0.0,0.0,0.0,0.0,0.0,0.0,0.0,0.0,0.0,0.0,0.0,0.0,0.0,0.0,0.0,0.0,0.0,0.0,0.0,0.0,0.0,0.0,0.0,0.0,0.0,0.0,0.0,0.0,0.0,0.0,0.0,0.0,0.0,0.0,0.0,0.0,0.0,0.0,0.0,0.0,0.0,0.0,0.0,0.0,0.0,0.0,0.0,0.0,0.0,0.0,0.0,4.518,4.4871,4.4495,4.411,4.418,4.4147,4.3973,4.4669,4.5145,4.5217,0.0,0.0,0.0,0.0,0.0,0.0,0.0,0.0,0.0,0.0,0.0,0.0,0.0,0.0,0.0,0.0,0.0,0.0,0.0,0.0,0.0,0.0,0.0,0.0,0.0,0.0,0.0,0.0,0.0,0.0,0.0,0.0,0.0,0.0,0.0,0.0,0.0,0.0,0.0,0.0,0.0,0.0,0.0,0.0,0.0,0.0,0.0,0.0,0.0,0.0,0.0,0.0,0.0,0.0,0.0,0.0,0.0,0.0,0.0,0.0,4.8385,0.0,0.0,0.0,0.0,0.0,0.0,0.0,0.0,0.0,0.0,0.0,0.0,0.0,0.0,0.0,0.0,0.0,0.0,0.0,0.0,0.0,0.0,0.0,0.0,0.0,0.0,0.0,0.0,0.0,0.0,0.0,0.0,0.0,0.0,0.0,0.0,0.0,0.0,0.0,0.0,0.0,4.8586,4.8159,4.7813,4.75,4.739,4.7316,4.7278,4.7425,4.7573,4.7721,4.7529,0.0,0.0,0.0,0.0,0.0,0.0,0.0,0.0,0.0,0.0,0.0,0.0,0.0,0.0,0.0,0.0,0.0,0.0,0.0,0.0,0.0,0.0,0.0,0.0,0.0,0.0,0.0,0.0,0.0,0.0,0.0,0.0,0.0,0.0,0.0,0.0,0.0,0.0,0.0,0.0,0.0,0.0,0.0,0.0,0.0,0.0,0.0,0.0,0.0,0.0,0.0,0.0,0.0,0.0,0.0,0.0,0.0,0.0,0.0,0.0,4.9126,0.0,0.0,0.0,0.0,0.0,0.0,0.0,0.0,0.0,0.0,0.0,0.0,0.0,0.0,0.0,0.0,0.0,0.0,0.0,0.0,0.0,0.0,0.0,0.0,0.0,0.0,0.0,0.0,0.0,0.0,0.0,0.0,0.0,0.0,0.0,0.0,0.0,0.0,0.0,0.0,4.8957,4.8754,4.8569,4.8419,4.8344,4.8306,4.8306,4.8306,4.8229,4.8035,4.7834,0.0,0.0,0.0,0.0,0.0,0.0,0.0,0.0,0.0,0.0,0.0,0.0,0.0,0.0,0.0,0.0,0.0,0.0,0.0,0.0,0.0,0.0,0.0,0.0,0.0,0.0,0.0,0.0,0.0,0.0,0.0,0.0,0.0,0.0,0.0,0.0,0.0,0.0,0.0,0.0,0.0,0.0,0.0,0.0,0.0,0.0,0.0,0.0,0.0,0.0,0.0,0.0,0.0,4.9468,4.9874,4.9874,5.0701,5.101,5.0849,5.0162,5.0123,5.0507,5.0605,0.0,0.0,0.0,0.0,0.0,0.0,0.0,0.0,0.0,0.0,0.0,0.0,0.0,0.0,0.0,0.0,0.0,0.0,0.0,0.0,0.0,0.0,0.0,0.0,5.0663,5.0853,0.0,0.0,0.0,0.0,0.0,0.0,0.0,0.0,0.0,0.0,0.0,0.0,4.8784,4.8744,4.8746,4.8746,4.8857,4.8967,4.8967,4.9077,4.8992,4.8508,4.8424,4.8207,0.0,0.0,0.0,0.0,0.0,0.0,0.0,0.0,0.0,0.0,0.0,0.0,0.0,0.0,0.0,0.0,0.0,0.0,0.0,0.0,0.0,0.0,0.0,0.0,0.0,0.0,0.0,0.0,0.0,0.0,0.0,0.0,4.6777,4.6777,0.0,0.0,0.0,0.0,0.0,0.0,0.0,0.0,0.0,0.0,0.0,0.0,0.0,4.9548,4.9533,5.0005,5.0201,5.022,5.0955,5.1308,5.1346,5.215,5.2533,5.2471,5.1653,0.0,5.0507,5.0527,0.0,0.0,0.0,0.0,0.0,0.0,0.0,0.0,0.0,0.0,0.0,0.0,0.0,0.0,0.0,0.0,0.0,0.0,0.0,0.0,0.0,0.0,5.1684,5.1625,5.2259,5.2607,0.0,5.1029,5.0645,5.0632,5.0044,0.0,0.0,0.0,0.0,0.0,0.0,0.0,5.1024,5.0675,5.0472,5.0472,5.1096,5.1499,5.1499,5.216,5.2522,5.248,5.1571,5.1287,5.1664,5.0794,0.0,0.0,0.0,0.0,0.0,0.0,0.0,0.0,0.0,0.0,0.0,0.0,0.0,0.0,0.0,0.0,0.0,0.0,0.0,0.0,0.0,0.0,0.0,0.0,0.0,0.0,0.0,0.0,0.0,4.7245,4.7758,4.7758,4.815,4.8438,0.0,0.0,0.0,0.0,0.0,0.0,0.0,0.0,0.0,4.9951,5.071,5.1045,5.0892,5.1567,5.1864,5.1813,5.2126,5.227,5.2308,5.2652,5.2805,5.2766,5.2422,5.2088,5.1737,5.0779,5.0445,5.0625,0.0,0.0,0.0,0.0,5.0391,5.0983,5.0426,5.0687,0.0,5.1315,0.0,0.0,0.0,0.0,0.0,0.0,0.0,0.0,0.0,0.0,5.3263,5.2741,5.3318,5.3703,5.2818,5.2374,5.201,0.0,5.1472,5.17,5.251,0.0,0.0,0.0,0.0,5.0871,5.0701,5.0748,5.0802,5.0802,5.1132,5.1316,5.1316,5.1646,5.1705,5.1413,5.0664,5.0196,5.0147,4.9729,4.9661,0.0,0.0,0.0,0.0,0.0,0.0,0.0,0.0,0.0,0.0,0.0,0.0,0.0,0.0,0.0,0.0,0.0,0.0,0.0,0.0,0.0,0.0,0.0,0.0,0.0,0.0,0.0,0.0,4.8121,4.8647,4.8677,4.8871,4.9069,0.0,0.0,0.0,0.0,0.0,0.0,5.0542,5.1139,5.1515,5.1625,5.2128,5.2298,5.212,5.2883,5.3253,5.3148,5.3569,5.376,5.376,5.3989,5.4104,5.4104,5.3874,5.362,5.3251,5.1596,5.0932,5.0956,5.0956,5.0941,5.091,5.0879,5.1463,5.2241,5.2145,5.2702,5.3491,5.3514,5.3691,5.3901,5.3901,0.0,0.0,0.0,0.0,5.3725,5.3629,5.3879,5.4013,5.3356,5.3703,5.3933,5.3049,5.2836,5.2721,0.0,5.2487,5.2794,5.2815,0.0,0.0,0.0,0.0,4.974,4.9672,4.9933,5.0251,5.0472,5.0692,5.0802,5.0802,5.0986,5.078,5.0053,4.9493,4.8968,4.8451,4.833,4.8557,4.9116,0.0,0.0,0.0,0.0,0.0,0.0,0.0,0.0,0.0,0.0,0.0,0.0,0.0,0.0,0.0,0.0,0.0,0.0,0.0,0.0,0.0,0.0,0.0,0.0,0.0,0.0,0.0,0.0,0.0,4.9423,5.0135,0.0,0.0,0.0,0.0,5.1086,5.1125,5.1474,5.2212,5.2186,5.2554,5.3367,5.3109,5.2965,5.2944,5.3666,5.4027,5.4065,5.5632,5.6396,5.6434,5.7275,5.7619,5.7581,5.6778,5.5859,5.4874,5.3328,5.2676,5.2686,5.2686,5.2671,5.2633,5.2372,5.26,5.3012,5.2732,5.3028,5.3498,5.3498,5.4039,5.4735,5.4735,5.5281,0.0,0.0,5.5133,5.4438,5.4454,5.3857,5.3241,5.3203,5.3241,5.3049,5.2164,5.1931,5.2082,0.0,5.2389,5.1869,5.1864,0.0,4.9948,4.955,4.9182,4.8818,4.8457,4.8416,4.8746,4.9554,5.0325,5.0802,5.0802,5.1499,5.137,5.0061,4.9493,4.8968,4.8537,4.7993,4.779,4.7824,4.8347,0.0,0.0,0.0,0.0,0.0,0.0,0.0,0.0,0.0,0.0,0.0,0.0,0.0,0.0,0.0,0.0,0.0,0.0,0.0,0.0,0.0,0.0,0.0,0.0,0.0,0.0,0.0,0.0,5.0569,5.0758,0.0,5.1102,5.1644,5.1979,5.1979,5.2484,5.2887,5.3078,5.3561,5.3889,5.4014,5.4968,5.5393,5.5312,5.6116,5.6549,5.6549,5.716,5.7428,5.7466,5.7772,5.7832,5.7711,5.7368,5.6978,5.6459,5.5911,5.4762,5.3384,5.385,5.405,5.3926,5.3846,5.4438,5.5246,5.5186,5.5874,5.6786,5.6786,5.6979,5.7134,5.6518,5.6539,5.6772,5.6675,5.6403,5.6267,5.6802,5.6703,5.6357,5.578,5.5626,5.5395,5.4549,5.4314,5.4326,5.461,5.3069,5.1852,5.2207,5.164,5.1035,5.0684,5.034,5.0079,4.9961,4.9921,5.0031,5.0325,5.0618,5.0802,5.0802,5.0733,5.0519,5.0017,4.9162,4.862,4.8451,4.7939,4.7941,4.8424,4.8612,4.8965,0.0,0.0,0.0,0.0,0.0,0.0,0.0,0.0,0.0,0.0,0.0,0.0,0.0,0.0,0.0,0.0,0.0,0.0,0.0,0.0,0.0,0.0,0.0,0.0,0.0,5.0632,5.0999,5.1528,5.1502,5.1552,5.2006,5.2486,5.2796,5.2834,5.3546,5.4056,5.432,5.5032,5.548,5.5577,5.6597,5.7136,5.7046,5.7886,5.8307,5.8307,5.8612,5.87,5.8644,5.8644,5.852,5.8372,5.8372,5.8091,5.7705,5.797,5.6884,5.5152,5.5448,5.5497,5.5367,5.5367,5.6012,5.6945,5.7119,5.7811,5.8604,5.8604,5.8604,5.8488,5.7814,5.7622,5.7603,5.7503,5.7268,5.717,5.7703,5.7627,5.728,5.6703,5.6549,5.6395,5.5818,5.5638,5.5646,5.5868,5.4326,5.302,5.3232,5.293,5.251,5.2158,5.1817,5.161,5.161,5.161,5.172,5.1977,5.2013,5.193,5.1725,5.1129,5.0633,5.0223,4.9336,4.8872,4.8939,4.8626,4.8596,4.8838,4.8781,4.924,5.0179,0.0,0.0,0.0,0.0,0.0,0.0,0.0,0.0,0.0,0.0,0.0,0.0,0.0,0.0,0.0,0.0,0.0,0.0,0.0,0.0,0.0,0.0,0.0,5.1229,5.1114,5.1397,5.2317,5.2316,5.2651,5.3637,5.3621,5.3645,5.3793,5.431,5.5055,5.6007,5.6575,5.7282,5.8088,5.803,5.7963,5.7963,5.8765,5.912,5.912,5.9988,6.0285,6.0099,6.0099,6.0045,5.9885,5.9885,5.9332,5.8484,5.9276,5.8985,5.8051,5.7435,5.7099,5.6962,5.6962,5.7321,5.7851,5.8471,5.8681,5.8681,5.8681,5.8681,5.8681,5.8568,5.8491,5.8431,5.8368,5.7747,5.7088,5.7088,5.6472,5.5857,5.5818,5.5818,5.5818,5.578,5.5692,5.583,5.6649,5.6102,5.5339,5.495,5.4603,5.4233,5.3869,5.3474,0.0,5.3298,5.3261,5.3555,5.4326,5.4363,5.4107,5.353,5.2795,5.1897,5.0768,5.0047,4.9707,4.9976,5.0011,4.9631,4.8816,4.8701,4.9247,5.0598,0.0,0.0,0.0,0.0,0.0,0.0,0.0,0.0,0.0,0.0,0.0,0.0,0.0,0.0,0.0,0.0,0.0,0.0,0.0,0.0,0.0,5.1644,5.2033,5.2057,5.1928,5.2182,5.3102,5.3236,5.3557,5.4216,5.4907,5.5543,5.6132,5.685,5.731,5.7516,5.8346,5.8835,5.8807,5.9486,5.9752,5.9511,5.9701,5.9794,5.9671,5.9931,6.0013,5.995,5.995,5.9853,5.9685,5.9685,5.943,5.9063,5.9289,5.9214,5.8952,5.88,5.8651,5.8652,5.8652,5.9025,5.9611,6.0208,6.0422,6.0422,6.0345,6.0326,6.0191,5.9511,5.9276,5.9254,5.921,5.8995,5.8973,5.9588,5.9588,5.9242,5.8627,5.8412,5.8212,5.7636,5.7426,5.7366,5.7634,5.743,5.708,5.6687,5.63,5.5919,5.5581,5.5175,0.0,5.495,5.4436,5.4142,5.4363,5.3885,5.3303,5.2733,5.2186,5.15,5.0803,5.0189,4.9941,5.0011,4.986,4.9639,4.9282,4.9282,4.9428,0.0,0.0,0.0,0.0,0.0,0.0,0.0,0.0,0.0,0.0,0.0,0.0,0.0,0.0,0.0,0.0,0.0,0.0,0.0,0.0,0.0,0.0,5.2369,5.3003,5.3352,5.3067,5.3272,5.4413,5.4629,5.5048,5.602,5.656,5.7062,5.7582,5.8329,5.8748,5.8726,5.9557,5.9903,5.966,6.0491,6.08,6.0507,6.0849,6.0969,6.0909,6.0909,6.0875,6.0846,6.0846,6.0742,6.049,6.0151,5.9964,5.9816,5.944,5.929,0.0,0.0,0.0,0.0,0.0,5.9985,6.0495,6.0923,6.106,6.1041,6.1022,6.0982,6.0864,6.0316,6.014,6.0118,6.0073,6.005,6.0089,6.0204,6.0242,6.005,5.9181,5.8942,5.8765,5.828,5.8067,5.7992,5.7992,5.7939,0.0,5.737,5.6979,5.6556,5.601,5.5748,5.5574,5.5574,5.517,5.4913,5.4913,5.4261,5.3654,5.3098,5.2279,0.0,0.0,0.0,5.0479,5.0763,5.03,0.0,0.0,0.0,4.9998,5.0243,0.0,0.0,0.0,5.1498,5.1308,0.0,0.0,0.0,0.0,0.0,0.0,0.0,0.0,0.0,0.0,0.0,0.0,0.0,0.0,0.0,0.0,5.3247,5.4065,5.4823,5.4541,5.471,5.5952,5.6184,5.6828,5.8235,5.8319,5.8335,5.8543,5.9142,5.958,5.9815,0.0,0.0,0.0,0.0,6.1413,6.1216,6.1936,6.2243,6.2243,6.2243,6.2176,6.2069,6.2069,6.1958,6.1768,6.1055,6.0755,6.068,5.9891,5.9515,5.944,5.9328,5.9327,5.9399,6.0015,6.0406,6.075,6.1002,0.0,0.0,6.1002,6.1,6.0976,6.0911,6.0888,6.0888,6.0843,6.0781,6.0627,5.9858,5.9627,5.9412,5.8558,5.8318,5.8256,5.8117,5.7966,5.7838,5.7838,5.771,5.7472,5.7036,5.6794,5.6482,5.5754,5.5618,5.5574,5.5574,5.55,5.5464,5.5464,0.0,0.0,5.3687,5.2555,5.1878,5.1908,5.1176,5.0986,5.1452,5.0837,5.0707,5.1235,5.0589,5.0464,5.0916,5.0092,4.9717,4.9747,5.056,5.0258,0.0,0.0,0.0,0.0,0.0,0.0,0.0,0.0,0.0,0.0,0.0,0.0,0.0,0.0,0.0,5.318,5.4657,5.5729,5.5614,5.6803,5.7404,5.6746,5.7349,5.8115,5.886,5.9181,5.954,6.0104,6.0188,6.0494,6.1172,6.1228,6.1446,6.195,6.223,6.2211,6.1916,6.2067,6.2069,6.1883,0.0,0.0,6.1883,6.1883,6.1844,6.1768,6.1618,6.1581,6.1543,6.1393,6.0942,6.0266,5.9553,5.9472,5.9739,6.0074,6.0406,6.075,6.1002,6.1041,6.1002,6.098,6.0976,6.0911,6.0866,6.0804,0.0,6.0781,6.0781,6.0742,6.0589,6.0527,6.0248,5.9379,5.9076,5.8847,5.817,5.743,5.6881,5.6881,5.632,5.5663,5.5018,5.587,5.6593,5.6132,5.5834,5.5574,5.5574,5.5023,5.462,5.462,5.3599,5.2654,5.2115,5.1264,5.0606,5.0179,4.9898,4.9778,4.9733,4.9562,4.944,4.9486,4.9351,4.9227,4.927,4.9061,4.9118,4.9468,4.9082,4.8723,0.0,0.0,0.0,0.0,0.0,0.0,0.0,0.0,0.0,0.0,0.0,5.176,5.22,0.0,5.3723,5.4508,5.5727,5.6656,5.69,5.8033,5.8665,5.815,5.8594,5.9194,5.9792,6.0065,6.0333,6.0666,6.0968,6.1287,6.167,6.1898,6.2078,6.2269,6.2724,6.2851,6.2598,6.3012,6.3162,6.3045,6.3045,6.3045,6.3045,6.3045,6.3045,6.3008,6.2632,6.2444,6.2407,6.1994,6.1543,6.113,6.0266,5.9987,6.0015,6.0161,6.0482,6.0902,6.1022,6.1041,6.098,6.0976,6.0911,6.0827,6.0804,6.0781,6.0781,6.0781,6.0781,6.0704,6.0219,6.0056,5.984,5.8922,5.8655,5.8489,5.8016,5.7569,5.7237,5.7237,5.6931,5.6397,5.5601,5.6174,5.622,5.4933,5.4533,5.4399,5.4399,5.4069,5.3812,5.3812,5.2707,5.1848,5.1465,5.0864,5.0435,5.0051,5.0332,5.0413,5.0227,5.0227,4.9974,4.949,4.9391,4.9128,4.8658,4.8013,4.786,4.8031,4.7153,4.7294,0.0,0.0,0.0,0.0,0.0,0.0,0.0,5.1278,5.133,5.133,5.1842,5.2373,5.2824,5.3914,5.5075,5.6077,5.6879,5.7559,5.8265,5.9013,5.9524,5.9672,5.9749,6.0041,6.0604,6.0773,6.0894,6.1004,6.1478,6.1876,6.2142,6.2506,6.271,6.2694,6.3199,6.3426,6.3345,6.3984,6.4284,6.4284,6.4284,6.4284,6.4284,6.4284,6.4284,6.4247,6.3608,6.3345,6.327,6.2407,6.2031,6.1956,6.1168,6.077,6.0637,6.0332,6.0556,6.106,6.1022,6.1,6.0976,6.0933,6.0827,6.0781,6.0781,6.0781,6.0781,6.0781,6.0781,6.0604,5.9864,5.9624,5.9421,5.8668,5.8489,5.8463,5.841,5.8268,5.8116,5.8116,5.7947,5.7558,5.6842,5.6628,5.5921,5.3976,5.3665,5.3665,5.3665,5.3622,5.3579,5.35,5.2558,5.1773,5.1334,5.099,5.0714,5.0527,5.1104,5.1282,5.0989,5.0924,5.0493,4.971,4.9468,4.9044,4.8391,4.723,4.67,4.6744,4.5703,4.6214,5.1352,5.1245,5.1131,5.1123,5.1081,5.0998,0.0,5.1463,5.2036,5.1923,5.2566,5.361,5.5133,5.5538,5.6154,5.7582,5.8671,5.9293,5.9249,6.0096,6.0723,6.0745,6.0604,6.0594,6.0839,6.0923,6.119,6.1743,6.1646,6.2089,6.3308,6.3198,6.3388,6.4026,6.4136,6.4174,6.4172,6.4247,6.4284,6.4284,6.4284,6.4284,6.4284,6.4284,6.4284,6.4284,6.4209,6.4172,6.4096,6.327,6.297,6.2857,6.1994,6.1981,6.2242,6.0752,6.0531,6.1022,6.1002,6.098,6.0911,6.0911,6.0827,6.0781,6.0781,6.0781,6.0781,6.0781,6.0757,6.071,6.057,6.0495,6.0353,6.025,6.0158,6.013,6.0102,5.9491,5.8994,5.8994,5.812,5.7213,5.6807,5.6407,5.5977,5.5441,5.5317,5.5317,5.5317,5.5229,5.5012,5.4567,5.3774,5.2804,5.1576,5.1429,5.1308,5.1082,5.1183,5.0924,5.0156,4.9986,4.9468,4.8683,4.8432,4.8211,4.7945,4.7076,4.6788,4.7027,4.6256,4.5709,5.1152,5.1123,5.102,5.0933,5.128,5.161,5.1531,5.2138,5.2875,5.334,5.4028,5.4879,5.6143,5.6729,5.7412,5.8649,5.9219,5.9627,6.0056,6.0542,6.086,6.075,6.0811,6.0877,6.1002,6.1524,6.1911,6.1944,6.259,6.3116,6.352,6.3691,6.3946,6.4284,6.4735,6.4998,6.4998,6.5486,6.5749,6.5749,6.5749,6.5749,6.5711,6.5223,6.4735,6.4284,6.4284,6.4284,6.4247,6.3946,6.3796,6.3721,6.2895,6.2892,6.3184,6.1506,6.125,6.1697,6.1113,6.0916,6.0911,6.0827,6.0804,6.0781,6.0781,6.0781,6.0781,6.0781,6.0734,6.0685,6.0635,6.0559,6.048,6.0425,6.0436,6.0408,6.0408,6.0102,5.9873,5.9873,5.9269,5.8618,5.8236,5.7825,5.7418,5.6969,5.6153,5.5574,5.5485,5.544,5.5036,5.4076,5.3294,5.2414,5.16,5.1817,5.1925,5.186,5.23,5.2101,5.1173,5.1032,5.0351,4.8952,4.8686,4.8292,4.7711,4.7137,4.687,4.7001,4.6429,4.5962,5.1023,5.1114,5.1213,5.1106,5.1713,5.2334,5.2298,5.309,5.3993,5.4626,5.5461,5.6346,5.7263,5.7851,5.8551,5.9511,5.969,5.9906,6.0531,6.0727,6.085,6.0964,6.1119,6.1285,6.1576,6.2045,6.239,6.2526,6.337,6.3802,6.3725,6.4292,6.4622,6.4622,6.5411,6.5861,6.5861,6.6462,6.68,6.68,6.68,6.68,6.6762,6.5899,6.5185,6.4622,6.4397,6.4284,6.4284,6.4284,6.4284,6.4247,6.3646,6.3763,6.4076,6.2628,6.231,6.2485,6.1819,6.1582,6.1559,6.1535,6.1473,6.1473,6.1473,6.1473,6.1512,6.145,6.1401,6.1326,6.1275,6.1234,6.1075,6.0818,6.0714,6.0676,6.0446,6.0408,6.0408,6.0408,5.9969,5.9537,5.9178,5.875,5.8238,5.7821,5.6868,5.6099,5.6008,5.5738,5.5029,5.3852,5.3098,5.2523,5.2119,5.2399,5.2638,5.2638,5.2876,5.2627,5.1631,5.1229,5.032,4.8821,4.8543,4.8072,4.7538,4.7106,4.6726,4.6344,4.6016,4.5627,5.1047,5.144,5.1874,5.1876,5.2433,5.2922,5.28,5.4196,5.5508,5.5377,5.6664,5.8077,5.888,5.9071,5.9338,6.0245,6.0398,6.0414,6.0584,6.0608,6.0902,6.1757,6.1824,6.203,0.0,6.2235,6.249,6.3848,6.3682,6.3725,6.4249,6.5035,6.5448,6.5448,6.6312,6.6762,6.6762,6.6762,6.68,6.68,6.68,6.68,6.6762,6.5899,6.5486,6.5411,6.4622,6.4284,6.4284,6.4284,6.4284,6.4284,6.4247,6.4631,6.5061,6.4089,6.358,6.3338,6.3338,6.3291,6.3243,6.3243,6.3243,6.3243,6.3243,6.3243,6.3218,6.3169,6.3092,6.3012,6.2957,6.2873,6.2624,6.1784,6.1554,6.1363,6.0561,6.0408,6.0408,6.0408,5.9777,5.914,5.9027,5.8375,5.7774,5.7631,5.7546,5.751,5.751,5.6491,5.5437,5.451,5.3909,5.3583,5.3416,5.345,5.345,5.345,5.2524,5.1557,5.0811,4.9536,4.8543,4.7624,4.7482,4.7309,4.7309,4.7019,4.6255,4.5024,4.4869,4.4125,5.2554,5.2619,5.2724,5.2619,5.3184,5.392,5.4396,5.5415,5.655,5.7619,5.8307,5.901,5.9907,6.002,6.0135,6.0657,6.0608,6.0533,6.0608,6.1189,6.1603,6.1545,6.2245,6.2859,0.0,0.0,0.0,6.365,6.4124,6.4595,6.5076,6.5336,6.5786,6.6349,6.7138,6.7589,6.7589,6.8114,6.8377,6.8377,6.8377,6.8114,6.7589,6.7288,6.6875,6.6349,6.6049,6.5636,6.511,6.511,6.4772,6.4284,6.4203,6.4558,6.5079,6.4676,6.4756,6.4883,6.3729,6.3344,6.332,6.332,6.332,6.332,6.332,6.3295,6.3245,6.322,6.3142,6.3034,6.3006,6.2949,6.2853,6.2548,6.2471,6.2395,6.2128,6.1593,6.1115,6.0867,5.9842,5.8989,5.8673,5.8068,5.7583,5.7486,5.7437,5.7338,5.6948,5.6111,5.5249,5.4454,5.3881,5.3551,5.3518,5.3518,5.3179,5.2487,5.2065,5.1155,4.9536,4.9054,4.8377,4.7396,4.7309,4.7222,4.7019,4.6077,4.5326,4.4776,4.3815,4.3177,5.3261,5.3398,5.3605,5.3752,5.4407,5.5262,5.6091,5.6931,5.781,5.888,5.9338,5.9775,6.0406,6.048,6.048,6.0695,6.0657,6.066,6.093,6.1516,6.1991,6.2161,6.278,6.3359,6.3941,0.0,0.0,6.3944,6.4367,6.486,6.5448,6.5786,6.6349,6.7176,6.8002,6.8452,6.8452,6.894,6.9203,6.9203,6.9203,6.894,6.8415,6.8114,6.7701,6.7213,6.6913,6.6462,6.5936,6.5636,6.5185,6.4697,6.4275,6.4521,6.5085,6.4947,6.5337,6.5743,6.4628,6.4243,6.4243,6.4243,6.4243,6.4243,6.4218,6.4168,6.4103,6.4051,6.397,6.3886,6.3858,6.3838,6.3732,6.3427,6.335,6.3274,6.2968,6.2471,6.1895,6.1473,6.0338,5.9283,5.8745,5.7977,5.7437,5.7338,5.7138,5.6793,5.6166,5.5658,5.5104,5.4171,5.3717,5.3484,5.3416,5.311,5.2627,5.1849,5.1155,5.0211,4.8841,4.8429,4.7988,4.7309,4.6844,4.655,4.6344,4.5024,4.4069,4.3531,4.2912,4.2332,5.3356,5.3843,5.4618,5.5375,5.6104,5.6893,5.7772,5.8536,5.9109,5.9185,5.9835,6.037,6.0398,6.0398,6.037,6.0398,6.052,6.084,6.1506,6.1621,6.2146,6.3445,6.3461,6.3616,6.4249,0.0,0.0,6.4817,0.0,6.4697,6.5523,6.6387,6.7213,6.8039,6.8828,6.9203,6.9203,6.9203,6.9203,6.9203,6.9203,6.9203,6.9203,6.8415,6.8077,6.8039,6.7251,6.6875,6.68,6.5974,6.5598,6.5445,6.4537,6.4558,6.5161,6.4947,6.5337,6.5897,6.5897,6.5897,6.5897,6.5897,6.5897,6.5897,6.582,6.5793,6.5767,6.5552,6.5494,6.5465,6.5444,6.5413,6.5222,6.442,6.4267,6.4038,6.3197,6.2977,6.2742,6.217,6.1093,6.0062,5.93,5.8093,5.7261,5.7188,5.6688,5.609,5.5461,5.5402,5.4861,5.3618,5.3484,5.3416,5.311,5.2383,5.1743,5.1451,4.9821,4.8759,4.8759,4.7764,4.7309,4.7222,4.5958,4.5298,4.5298,4.3787,4.2544,4.1617,4.1794,4.126,5.5835,5.6099,5.6414,5.721,5.7544,5.7902,5.8639,5.8956,5.93,5.9911,6.0255,6.0425,6.0546,6.048,6.0425,6.0508,6.0494,6.0704,6.137,6.1949,6.2585,6.3272,6.3916,6.4294,6.4324,6.4284,0.0,0.0,6.5226,6.5561,6.6425,6.7251,6.8077,6.8865,6.9091,6.9203,6.9203,6.9203,6.9203,6.9203,6.9203,6.9203,6.9203,6.9015,6.8903,6.8903,6.8677,6.8264,6.7664,6.7438,6.6946,6.6223,6.5272,6.5271,6.5749,6.5034,6.5238,6.5897,6.5897,6.5897,6.5897,6.5897,6.5897,6.5897,6.582,6.5701,6.5608,6.5523,6.5465,6.5405,6.5375,6.5413,6.5337,6.5146,6.507,6.5031,6.4802,6.3943,6.304,6.2597,6.1137,5.964,5.876,5.8304,5.7876,5.7297,5.6688,5.609,5.5461,5.4948,5.4264,5.3382,5.328,5.2939,5.2065,5.1816,5.1048,4.9584,4.9054,4.8429,4.7679,4.7279,4.6638,4.5869,4.5389,4.4627,4.3693,4.2544,4.1789,4.1319,4.0619,3.9976,5.6857,5.7236,5.7666,5.8437,5.8678,5.887,5.9546,5.9726,5.9867,6.0321,6.0408,6.0425,6.0494,6.0453,6.0425,6.0494,6.0441,6.0762,6.1804,6.2237,6.2834,6.3765,6.4219,6.4403,6.4324,6.4622,6.4998,0.0,6.5523,6.6049,6.7251,6.7739,6.8377,6.9203,6.9203,6.9203,6.9203,6.9203,6.9203,6.9203,6.9203,6.9203,6.9203,6.9203,6.9203,6.9203,0.0,6.894,6.849,6.8109,6.7573,6.7042,6.6045,6.6056,6.6587,6.6023,6.6307,6.7013,6.7013,6.6744,6.6359,6.6013,6.5897,6.5872,6.5728,6.5674,6.558,6.5465,6.5405,6.5413,6.5413,6.5413,6.5413,6.5413,6.5413,6.5383,6.5283,6.4533,6.354,6.2444,6.1202,5.9973,5.9072,5.8927,5.8533,5.7493,5.672,5.5953,5.4983,5.4516,5.4008,5.3315,5.28,5.2241,5.1557,5.0855,4.9899,4.8759,4.8377,4.7819,4.7106,4.655,4.5869,4.5207,4.4069,4.3122,4.2447,4.1319,4.0642,4.0567,4.013,3.9396,5.7212,5.7802,5.8558,5.9306,5.9571,5.9811,6.03,6.0494,6.0559,6.0425,6.0408,6.0408,6.0408,6.0408,6.0408,6.0408,6.0474,6.0991,6.2382,6.2482,6.2959,6.4407,6.4403,6.4322,6.4434,6.5073,6.5598,6.5824,6.5824,6.6462,6.7926,6.8114,6.849,6.9203,6.9203,6.9203,6.9203,6.9203,6.9203,6.9203,6.9203,6.9203,6.9203,6.9203,6.9203,6.9203,6.9203,6.916,6.9122,6.8285,6.7935,6.7815,6.6777,6.6879,6.7498,6.7313,6.7687,6.8398,6.8398,6.7898,6.7128,6.632,6.5974,6.5872,6.5635,6.558,6.5552,6.5444,6.5413,6.5413,6.5413,6.5413,6.5413,6.5413,6.5413,6.5345,6.5117,6.4775,6.3911,6.2113,6.1339,6.0701,5.9905,5.9707,5.9168,5.7707,5.6729,5.5626,5.4269,5.4008,5.3681,5.3008,5.217,5.141,5.107,4.9647,4.8677,4.8407,4.7679,4.7106,4.6726,4.5779,4.5024,4.4535,4.2544,4.1518,4.1319,4.0058,3.9465,3.949,3.9519,3.8838,5.8065,5.8858,5.9667,6.0238,6.0503,6.055,6.0414,6.0494,6.0559,6.0425,6.0408,6.0408,6.0408,6.0408,6.0408,6.0408,6.0895,6.1507,6.2264,6.2813,6.3426,6.4251,6.4324,6.4547,6.5223,6.5411,0.0,0.0,6.7589,6.7701,6.7964,6.864,6.9091,6.9203,6.9203,6.9203,6.9203,6.9203,6.9203,6.9203,6.9203,6.9203,6.9203,6.9203,6.9203,6.9203,6.9203,0.0,6.899,6.8878,6.8668,6.8446,6.7617,6.7659,6.8148,6.7466,6.7687,6.8398,6.8398,6.8321,6.8052,6.7167,6.641,6.5793,6.5635,6.5552,6.5494,6.5405,6.5413,6.5413,6.5413,6.5413,6.5413,6.5413,6.5413,6.5345,6.5117,6.4332,6.3288,6.2178,6.1842,6.1571,6.0738,6.012,5.9245,5.7723,5.6274,5.509,5.4205,5.3516,5.2731,5.1842,5.1516,5.0843,4.9197,4.879,4.8324,4.7538,4.7193,4.655,4.5689,4.5144,4.4003,4.2279,4.1591,4.0844,4.0083,3.8816,3.8161,3.8161,3.7036,3.6191,5.8428,5.9455,6.0461,6.057,6.0695,6.0704,6.0453,6.0494,6.0559,6.0425,6.0408,6.0408,6.0408,6.0408,6.0408,6.0408,6.0852,6.15,6.2197,6.2822,6.3463,6.4212,6.4284,6.4622,6.5411,6.5899,6.6687,6.7926,6.8377,6.864,6.864,6.9015,6.9203,6.9203,6.9203,6.9203,6.9203,6.9203,6.9203,6.9203,6.9203,6.9203,6.9203,6.9203,6.9203,6.9203,6.9116,0.0,6.8983,6.8892,6.8791,6.866,6.8193,6.8441,6.9058,6.8641,6.8984,6.9706,6.9706,6.9436,6.9013,6.8498,6.7779,6.6995,6.6441,6.6241,6.6039,6.5558,6.5413,6.5413,6.5413,6.5413,6.5413,6.5413,6.5117,6.4739,6.4293,6.3593,6.2781,6.2168,6.2005,6.1787,6.104,6.0325,5.9183,5.7228,5.5894,5.4698,5.345,5.2557,5.1842,5.1475,5.0919,5.0041,4.8708,4.8187,4.7794,4.7309,4.655,4.5869,4.5207,4.3787,4.2571,4.1419,4.0743,3.9853,3.8712,3.8161,3.7501,3.6727,3.6132,3.5357,5.8638,5.9775,6.0983,6.0719,6.0742,6.0704,6.0453,6.0546,6.0633,6.0441,6.0453,6.0453,6.0506,6.048,6.0453,6.0506,6.1086,6.1717,6.2264,6.3009,6.3651,6.4249,6.4284,6.4697,6.5674,6.6387,0.0,6.8189,6.8865,6.9203,6.9203,6.9203,6.9203,6.9203,6.9203,6.9203,6.9203,6.9203,6.9203,6.9203,6.9203,6.916,6.916,6.916,6.9116,6.9153,6.9027,6.8937,0.0,6.8744,6.865,6.865,6.8554,6.8997,6.9702,6.9702,7.0238,7.0898,7.0898,7.0475,6.991,6.9816,6.9097,6.8119,6.7372,6.7093,6.6842,6.5941,6.5681,6.5643,6.5452,6.5413,6.5413,6.5345,6.4775,6.4094,6.355,6.2988,6.25,6.206,6.186,6.1496,6.0854,5.9977,5.8683,5.6495,5.5313,5.416,5.2549,5.1655,5.1027,5.0843,5.0041,4.9197,4.8407,4.7709,4.7193,4.6931,4.5869,4.5024,4.4256,4.2447,4.1319,4.0945,3.9853,3.8816,3.795,3.7512,3.6673,3.5468,3.5442,3.4748,5.889,6.002,6.1112,6.0866,6.0779,6.0704,6.0453,6.0647,6.0817,6.0633,6.0584,6.0633,6.0817,6.0704,6.0657,6.0817,6.2036,6.2847,6.262,6.3769,6.459,6.4326,6.4284,6.4923,6.65,6.6725,6.7438,6.8978,6.9166,6.9203,6.9203,6.9203,6.9203,6.9203,6.9203,6.9203,6.9203,6.9203,6.9203,6.9203,6.9203,6.9116,6.9027,6.9027,6.8983,6.8967,6.8884,6.8838,0.0,6.8697,6.8602,6.8506,6.8506,6.8997,6.9702,6.9702,7.0238,7.0898,7.0898,7.0805,7.0671,7.0671,6.9568,6.8177,6.7974,6.7845,6.763,6.6827,6.6598,6.6407,6.5605,6.5413,6.5345,6.515,6.4558,6.3888,6.3505,6.2988,6.25,6.206,6.1426,6.0756,6.0125,5.8708,5.7102,5.5671,5.4499,5.3247,5.1721,5.1252,5.0538,4.9035,4.879,4.8324,4.7452,4.7396,4.6814,4.5689,4.5207,4.4069,4.1985,4.1518,4.0844,3.9878,3.8712,3.8056,3.795,3.6226,3.5102,3.4647,3.3762,3.3155,5.9698,6.0526,6.1343,6.1036,6.0905,6.0757,6.0559,6.0572,6.0597,6.0608,6.0608,6.0681,6.086,6.0839,6.0817,0.0,0.0,0.0,6.287,6.3581,6.4203,6.4558,6.4857,6.5486,6.665,0.0,6.8002,6.9128,6.9203,6.9203,6.9203,6.9203,6.9203,6.9203,6.9203,6.9203,6.9203,6.9203,6.9203,6.9203,6.9116,6.9072,6.9027,6.8975,6.8929,6.8921,6.8791,6.8744,0.0,6.8602,6.8554,6.8506,6.8506,6.8997,6.9702,6.9702,7.0205,7.0843,7.0843,7.0787,7.0699,7.0708,7.0187,6.9544,6.8939,6.8724,6.8508,6.7668,6.74,6.7209,6.6407,6.5696,6.5155,6.4886,6.4174,6.355,6.328,6.2315,6.1495,6.1281,6.0322,5.9302,5.8567,5.7129,5.5709,5.4532,5.3185,5.2024,5.1285,5.0229,4.9358,4.8656,4.8573,4.824,4.7396,4.6638,4.5958,4.5389,4.3882,4.2544,4.1591,4.0084,3.8976,3.8607,3.7702,3.6974,3.6203,3.5593,3.4827,3.4077,3.3801,3.3545,6.0286,6.0885,6.145,6.1221,6.1,6.0825,6.0642,6.0559,6.0572,6.0681,6.0704,6.0773,6.0983,6.0983,6.0983,0.0,0.0,6.2673,6.3152,6.3828,6.4419,6.4769,6.5313,6.5946,6.6729,6.7739,6.8602,6.9166,6.9203,6.9203,6.9203,6.9203,6.9203,6.9203,6.9203,6.9203,6.9203,6.9203,6.916,6.9116,6.9072,6.8983,6.8892,6.8838,6.8828,6.8782,6.865,6.865,0.0,6.8554,6.8506,6.8506,6.8506,6.8997,6.9702,6.9664,7.0137,7.0787,7.0758,7.0737,7.0678,7.0623,7.0554,7.0439,6.9827,6.9572,6.9387,6.8508,6.8056,6.7643,6.6841,6.596,6.5189,6.4558,6.3846,6.316,6.2693,6.166,6.0684,6.0269,5.9127,5.7929,5.6927,5.5667,5.4464,5.3499,5.2171,5.1177,5.08,4.9439,4.849,4.824,4.7958,4.7448,4.6814,4.5869,4.5115,4.4349,4.2544,4.1293,4.0591,3.8871,3.7809,3.7631,3.6782,3.6094,3.549,3.5264,3.4793,3.4182,3.3847,3.3489,6.0388,6.0932,6.1471,6.1343,6.1205,6.1002,6.0666,6.075,6.0882,6.0882,6.0882,6.0983,6.1337,6.1236,6.1164,6.1352,6.2857,0.0,6.3456,6.4839,6.5603,6.49,6.5492,6.622,6.6729,6.8264,6.9203,6.9203,6.9203,0.0,6.9203,6.9203,6.9203,6.9203,6.9203,6.9203,6.9203,6.9203,6.9116,6.9027,6.9027,6.8892,6.8697,6.8697,6.8602,6.8506,6.8506,6.8506,0.0,6.8506,6.8506,6.8506,6.8506,6.8997,6.9702,6.9625,7.0141,7.0787,7.0699,7.0647,7.0623,7.0623,7.0522,7.0419,7.0381,7.0381,7.0228,6.9425,6.8417,6.7445,6.6607,6.6101,6.55,6.4316,6.3543,6.2767,6.1642,6.109,6.0395,5.8979,5.7932,5.6811,5.5559,5.4356,5.3348,5.2694,5.1729,5.08,4.9884,4.9116,4.824,4.7396,4.6432,4.5689,4.5389,4.5389,4.4349,4.1789,4.1591,4.049,3.8056,3.795,3.7655,3.6943,3.5735,3.5533,3.6491,3.5414,3.5021,3.5087,3.365,3.2331,6.1286,6.147,6.1595,6.1481,6.1343,6.1167,6.1002,6.08,6.0773,6.1003,6.0963,6.0983,6.1337,6.1352,6.1337,6.1405,6.2352,6.3433,6.4423,6.4617,6.4994,6.5887,6.6294,6.7078,6.8302,6.8903,6.9203,6.9203,6.9203,6.9203,6.9203,6.9203,6.9203,6.9203,6.9203,6.9203,6.9203,6.9116,6.9027,6.9027,6.8846,6.8744,6.8697,6.8602,6.8554,6.8506,6.8506,6.8506,0.0,6.8506,6.8506,6.8506,6.8506,6.8952,6.9625,6.9585,7.0035,7.0647,7.0647,7.0554,7.0451,7.0451,7.0419,7.0419,7.0419,7.0419,7.031,6.9908,6.9154,6.8365,6.7846,6.6749,6.5461,6.4187,6.3074,6.2029,6.0836,5.9816,5.8861,5.7846,5.6622,5.5444,5.4316,5.345,5.2627,5.1729,5.0767,4.9884,4.9116,4.7673,4.6579,4.6344,4.5207,4.4748,4.5298,4.3975,4.2641,4.169,3.9982,3.881,3.8455,3.6824,3.6229,3.6617,3.5789,3.5676,3.6286,3.5763,3.4902,3.3727,3.2474,3.12,6.172,6.172,6.1671,6.1573,6.1471,6.1331,6.1174,6.0964,6.0843,6.1039,6.1041,6.1059,6.1337,6.1419,6.1497,6.1847,6.2881,6.3961,6.4831,6.5118,6.5531,6.6211,6.6598,6.7288,0.0,6.9015,6.9203,6.9203,6.9203,6.9203,6.9203,6.9203,6.9203,6.9203,6.9203,6.9203,6.9203,6.9072,6.8983,6.8937,6.8791,6.8836,6.9049,6.8703,6.8691,6.8951,6.8654,0.0,0.0,6.8506,6.8506,6.8506,6.8457,6.89,6.9585,6.9506,6.9927,7.0585,7.0554,7.0451,7.0419,7.0419,7.0419,7.0419,7.0483,7.0419,7.0247,7.0144,6.9621,6.8982,6.8449,6.6889,6.5178,6.3885,6.2401,6.0992,5.9797,5.8849,5.7908,5.6631,5.5529,5.4482,5.3415,5.2557,5.1802,5.1177,5.0073,4.9004,4.8179,4.6725,4.5598,4.5115,4.3975,4.3614,4.4216,4.2776,4.1471,4.0568,3.9128,3.82,3.7831,3.656,3.6016,3.631,3.5892,3.5725,3.5848,3.4941,3.3527,3.1583,3.0966,2.9806,0.0,6.172,6.1671,6.1602,6.1564,6.1461,6.125,6.1142,0.0,6.1131,6.1131,6.1164,6.1352,6.1419,6.1691,6.2546,6.4093,6.5136,6.4886,6.6159,6.6863,6.6137,6.648,6.7138,6.8002,6.8753,6.9203,6.9203,6.9203,6.9203,6.9203,6.9203,6.9203,6.9203,6.916,6.916,6.916,6.9072,6.8937,6.8875,6.8744,6.9011,6.962,6.8914,6.8989,0.0,0.0,0.0,0.0,6.8617,6.858,6.8457,6.8358,6.8817,6.9584,6.9382,6.9816,7.0554,7.0451,7.0419,7.0419,7.0419,7.0419,7.0451,7.0639,7.0451,7.0109,7.0109,6.9816,6.9313,6.8596,6.6753,6.4853,6.3521,6.1702,5.9907,5.8544,5.8051,5.7314,5.5448,5.4703,5.3943,5.2731,5.1729,5.1027,5.0951,4.9519,4.8095,4.71,4.6167,4.5144,4.3937,4.2916,4.2305,4.2285,4.1686,4.067,3.8827,3.8871,3.8271,3.661,3.6806,3.6673,3.5975,3.5869,3.5529,3.5006,3.3175,3.1282,2.9202,2.9059,2.8228,6.172,0.0,6.1666,6.1564,6.15,6.1461,0.0,6.1197,6.1148,6.1322,6.122,6.1164,6.1352,6.1419,6.1691,6.2546,6.4093,6.5506,6.6405,6.6969,6.7116,6.6668,6.6733,6.7363,6.879,6.9091,6.9203,6.9203,6.9203,6.9203,6.9203,6.9203,6.9203,6.9203,6.9116,6.9072,6.9072,6.8975,6.8838,6.8782,6.8602,6.8617,6.8803,6.9249,6.9546,0.0,0.0,0.0,6.9434,6.9434,6.8964,6.8358,6.8309,6.8717,6.9382,6.934,6.9778,7.0451,7.0419,7.0419,7.0419,7.0419,7.0419,7.0451,7.0639,7.0451,7.0109,7.0109,6.9816,6.9423,6.9106,6.7935,6.6221,6.378,6.2144,6.0368,5.7758,5.6779,5.6064,5.4826,5.4102,5.3315,5.1696,5.1285,5.0647,4.9358,4.8149,4.713,4.6196,4.4349,4.3245,4.3318,4.2075,4.0999,4.0575,3.9996,3.9472,3.9272,3.7632,3.6573,3.6491,3.5806,3.5149,3.4536,3.3535,3.2858,3.2527,3.0566,2.9404,2.8853,2.7733,2.7038,6.172,6.172,6.1671,6.1602,6.1564,6.1471,6.1445,6.1342,6.1268,6.1366,6.1322,6.1268,6.1366,6.1268,6.1779,6.358,6.4619,6.5688,6.6998,6.6467,6.5991,6.6203,6.6537,6.7288,0.0,6.8978,6.9203,6.9203,6.9203,6.9203,6.9203,6.9203,6.9203,6.9203,6.9072,6.9027,6.9027,6.8884,6.8744,6.8697,6.8554,6.8691,6.91,6.9509,6.9917,0.0,0.0,0.0,7.0252,7.0252,6.9892,6.942,6.9318,6.9517,6.9863,6.9783,7.0043,7.0419,7.0419,7.0419,7.0419,7.0419,7.0483,7.0578,7.0729,7.0445,7.0109,7.0109,6.9739,6.9374,6.9203,6.7867,6.6108,6.4177,6.2008,5.976,5.7478,5.6212,5.5238,5.423,5.3681,5.2872,5.1401,5.08,5.0168,4.914,4.7782,4.6634,4.6038,4.436,4.3045,4.2782,4.1355,4.0301,4.0072,3.8695,3.786,3.8022,3.7022,3.6427,3.6316,3.5293,3.4358,3.3516,3.1871,3.0885,3.0479,2.8721,2.7819,2.7752,2.6914,2.6676,6.172,6.172,6.1715,6.1676,6.1588,6.149,6.152,6.1433,6.1419,6.1419,6.1419,6.1366,6.1352,6.1264,6.2063,6.4737,6.5465,6.6063,6.7121,6.5652,6.4772,6.5598,6.6349,0.0,6.8077,6.8828,6.9203,6.9203,6.9203,6.9203,6.9203,6.9203,6.9203,6.9203,6.9072,6.8983,6.8983,6.8791,6.8697,6.865,6.8554,6.8877,6.9546,6.9769,7.0289,7.092,0.0,0.0,7.1106,7.1106,7.093,7.0665,7.056,7.0549,7.0611,7.0411,7.0419,7.0572,7.0457,7.0419,7.0419,7.0348,7.0515,7.0699,7.0815,7.0508,7.0109,7.0106,6.97,6.9203,6.9203,6.758,6.5755,6.4794,6.212,5.9291,5.7676,5.6153,5.4842,5.3883,5.3314,5.2582,5.1394,5.0469,4.9747,4.928,4.7672,4.6432,4.586,4.4428,4.3178,4.2072,4.0646,3.9738,3.9789,3.7875,3.6503,3.6383,3.6652,3.6572,3.5725,3.4536,3.3406,3.2217,3.0341,2.9121,2.8832,2.7262,2.6387,2.6427,2.653,2.6749,6.172,6.172,6.1676,6.1609,6.1573,6.152,6.1507,6.1434,6.1419,6.1419,6.1419,6.1352,6.1164,6.1834,6.2975,6.4769,6.642,6.7462,6.7347,6.6142,6.5636,6.65,0.0,6.7363,6.8865,6.9128,6.9203,6.9203,6.9203,6.9203,6.9203,6.9203,6.9203,6.9203,6.902,6.8921,6.8921,6.8744,6.865,6.8506,6.8506,6.858,6.8729,7.0103,7.0809,7.0995,0.0,7.2629,7.1998,7.1998,7.1398,7.0507,7.0507,7.0871,7.1231,7.0555,7.0798,7.1374,7.0648,7.0419,7.0386,7.0213,7.0419,7.0669,7.0661,7.0375,7.0106,7.0238,6.974,6.9203,6.9203,6.8436,6.7257,6.5792,6.3746,6.1386,5.8509,5.6632,5.5193,5.4296,5.3096,5.2171,5.1804,5.0996,4.9835,4.8139,4.6956,4.5735,4.4556,4.237,4.0864,4.0918,3.9486,3.8435,3.7851,3.744,3.6738,3.5683,3.5623,3.5066,3.3855,3.1469,3.0092,2.983,2.7729,2.6687,2.6553,2.601,2.5769,2.6105,2.6661,2.7086,6.172,6.172,6.1671,6.1602,6.1564,6.152,6.1495,6.1473,6.1419,6.1419,6.1419,6.1492,6.175,6.2317,6.3469,6.5597,6.6917,6.7483,6.7089,6.5758,6.5336,0.0,0.0,6.7438,6.9053,6.9203,6.9203,6.9203,6.9203,6.9203,6.9203,6.9203,6.916,6.9072,6.8975,6.8875,6.8791,6.865,6.8554,6.8506,6.8506,6.8506,6.858,7.0177,7.092,7.0995,0.0,7.3187,7.2815,7.28,7.2421,7.1837,7.1728,7.1886,7.2064,7.1327,7.1327,7.1565,7.0686,7.0419,7.0386,7.0179,7.0413,7.0758,7.0445,7.0276,7.0171,7.0033,6.9623,6.9203,6.9203,6.8586,6.7649,6.633,6.4511,6.2317,5.9634,5.8008,5.6781,5.5749,5.4591,5.3665,5.3133,5.195,5.0514,4.8938,4.7332,4.6062,4.5169,4.2627,4.0989,4.1144,3.9082,3.7666,3.7287,3.6703,3.5746,3.4403,3.4278,3.3379,3.1322,2.9917,2.8888,2.8246,2.68,2.6222,2.6405,2.5914,2.6047,2.6559,2.7027,2.7422,6.172,6.172,6.1671,6.1602,6.1564,6.152,6.1495,6.1473,6.1405,6.1337,6.1492,6.1834,6.251,6.3415,6.4756,6.6938,6.7316,6.7276,6.6845,6.5336,6.4847,6.6312,6.665,6.7363,6.879,6.9091,6.9203,6.9203,6.9203,6.9203,6.9203,6.9203,6.9116,6.9027,6.8929,6.8875,6.8697,6.8554,6.8506,6.8506,6.8506,6.8506,6.858,7.0177,7.092,7.0995,7.2666,7.3372,7.3357,7.3252,7.3091,7.2927,7.2779,7.2726,7.2673,7.2392,7.2024,7.1603,7.0954,7.0539,7.0281,7.0109,7.0348,7.0631,7.0179,7.0106,7.0137,6.9853,6.9501,6.916,6.9072,6.849,6.7657,6.668,6.4852,6.2811,6.0705,5.9316,5.8084,5.6834,5.5848,5.4909,5.4057,5.2449,5.0783,4.9426,4.7672,4.6113,4.5076,4.2724,4.0937,4.0568,3.8365,3.6703,3.6438,3.55,3.4278,3.26,3.2473,3.1451,2.9395,2.902,2.823,2.7067,2.6553,2.636,2.6603,2.6402,2.6617,2.7115,2.751,2.7832,6.172,6.172,6.1671,6.1602,6.1564,6.152,6.1495,6.1473,6.1352,6.1164,6.175,6.251,6.3183,6.5765,6.8032,6.8646,6.8019,6.7276,6.6845,0.0,6.4622,6.5486,6.6312,6.7138,6.8002,6.8753,6.9203,6.9203,6.9203,6.9203,6.9203,6.9203,6.9116,6.9027,6.8929,6.8875,6.8697,6.8554,6.8506,6.8506,6.8506,6.8506,6.858,7.0177,7.092,7.0995,7.2666,7.3357,7.3199,7.3199,7.3037,7.2723,7.2723,7.2726,7.2823,7.3687,7.3055,7.168,7.1642,7.0968,7.0109,6.9891,6.9963,7.0109,6.9891,6.9853,6.9816,6.9816,6.9501,6.9116,6.8763,6.8111,6.7396,6.6972,6.4974,6.2821,6.1432,5.9814,5.8217,5.6645,5.5645,5.4694,5.3802,5.1977,5.0121,4.8352,4.6916,4.5102,4.2613,4.0822,3.9311,3.7768,3.6359,3.5025,3.3757,3.3631,3.2346,2.9787,2.9657,2.9526,2.9265,2.8114,2.72,2.68,2.6878,2.6937,2.6564,2.707,2.7393,2.7452,2.8081,2.8388,6.172,6.1666,6.1615,6.1602,6.1547,6.1507,6.1484,6.1473,6.1366,6.1283,6.1862,6.3013,6.5039,6.7072,6.8468,6.8526,6.7656,6.6781,6.609,6.4998,6.4585,6.5411,6.6274,6.71,6.7926,6.8753,6.9203,6.9203,6.9203,6.9203,6.9203,6.9116,6.9027,6.8929,6.8838,6.8697,6.8554,6.8506,6.8506,6.8506,6.8506,6.8506,6.858,7.0177,7.092,7.0995,7.2666,7.3357,7.3199,7.3091,7.2927,7.2742,7.3313,7.3538,7.3537,7.4029,7.3819,7.3093,7.2062,7.135,7.0796,7.0043,6.9965,7.0038,6.9582,6.9622,6.9778,6.9501,6.9332,6.9116,6.8679,6.806,6.7341,6.6758,6.5184,6.3589,6.2522,6.1461,6.0244,5.8645,5.7221,5.5803,5.4165,5.2023,4.9853,4.7653,4.5635,4.3778,4.1963,3.9639,3.8007,3.7407,3.5355,3.3882,3.3379,3.1835,3.0437,2.9395,2.9265,2.8888,2.7981,2.7675,2.7494,2.7289,2.7338,2.7357,2.749,2.7644,2.7876,2.8081,2.7424,2.7139,6.172,6.1666,6.1687,6.1939,6.1946,6.1987,6.2229,6.1992,6.1769,6.2002,6.2993,6.4586,6.6949,6.8312,6.8942,6.8489,6.7495,6.65,6.5636,6.481,6.451,6.5073,6.5861,6.6687,6.7551,6.834,6.894,6.9203,6.9203,6.9203,6.9203,6.9072,6.8937,6.8921,6.8744,6.8602,6.8506,6.8506,6.8506,6.8506,6.8506,6.8506,6.858,7.0177,7.092,7.0995,7.2666,7.3305,7.3145,7.3037,7.2872,7.2686,7.3628,7.4009,7.4072,7.4448,7.4431,7.401,7.2597,7.1773,7.1141,7.0119,6.9816,6.9739,6.9332,6.9378,6.9542,6.9289,6.9116,6.89,6.8357,6.7819,6.7084,6.6186,6.4905,6.3681,6.3049,6.2313,6.1168,5.9208,5.7841,5.6246,5.3384,5.1262,4.9013,4.6357,4.4229,4.2339,4.0568,3.8602,3.6924,3.6194,3.4487,3.3,3.2218,3.0419,2.9202,2.8793,2.8809,2.8411,2.7375,2.7684,2.7755,2.7555,2.7824,2.7891,2.791,2.7568,2.7577,2.7636,2.6253,2.5859,6.172,6.172,6.19,6.2726,6.2843,6.3032,6.3826,6.3208,6.2638,6.3298,6.5334,6.7462,6.8922,6.9704,6.9763,6.8754,6.7575,6.6462,6.5598,6.481,6.4284,6.4284,6.5035,6.5861,6.6725,6.7551,6.834,6.9166,6.9203,6.9203,6.9203,6.9072,6.8937,6.8921,6.8782,6.8602,6.8506,6.8506,6.8506,6.8506,6.8506,6.8506,6.858,7.0177,7.092,7.1032,7.2666,7.3252,7.2982,7.2982,7.2816,7.261,7.3628,7.4009,7.4147,7.5133,7.4966,7.4087,7.3284,7.2162,7.0953,7.0081,6.9542,6.9203,6.9203,6.9203,6.9203,6.9203,6.89,6.8442,6.7663,6.725,6.6707,6.5468,6.397,6.2897,6.2897,6.1917,6.0318,5.765,5.7042,5.5658,5.1336,4.9405,4.7471,4.4457,4.2563,4.0592,3.8149,3.7429,3.6316,3.3631,3.3379,3.2218,2.9543,2.9282,2.8793,2.7709,2.7741,2.7741,2.7741,2.799,2.8082,2.7641,2.8191,2.8236,2.7813,2.6859,2.6346,2.6188,2.4589,2.4748,6.2618,6.3008,6.3472,6.3728,6.3739,6.4031,6.551,6.5055,6.4691,6.5819,6.7,6.8087,6.8836,6.904,0.0,6.7695,6.6628,6.5598,6.4772,6.4434,6.451,6.5073,6.5899,6.6725,6.7551,6.8377,6.894,6.9203,6.9203,6.916,6.9072,6.8975,6.8884,6.8744,6.8602,6.8554,6.8506,6.8506,6.8506,6.8506,6.8506,6.8803,6.9397,7.0437,7.1255,7.1886,7.2822,7.3145,7.2982,7.276,7.2798,7.3141,7.3774,7.4199,7.4582,7.5245,7.5348,7.4889,7.3476,7.2543,7.1788,7.027,6.9542,6.9203,6.9203,6.9203,6.9203,6.9203,6.8726,6.8074,6.7359,6.6685,6.5966,6.4838,6.3681,6.2745,6.2391,6.0754,5.8896,5.7375,5.5834,5.3558,5.0098,4.7826,4.5608,4.3033,4.0429,3.8246,3.638,3.5232,3.4238,3.3505,3.1707,3.0283,2.9641,2.876,2.8228,2.8424,2.8694,2.8585,2.8068,2.8349,2.7916,2.6411,2.6752,2.633,2.4982,2.5938,2.6346,2.6188,2.4589,2.4099,6.3516,6.3828,6.4247,6.4575,6.4843,6.5556,6.753,6.7217,6.6782,6.7807,6.8333,6.8781,6.9274,6.8941,0.0,6.7278,6.6172,6.5182,6.4397,6.4585,6.496,6.5448,6.6274,6.71,6.7926,6.8452,6.8865,6.9203,6.9203,6.9116,6.9027,6.8929,6.8875,6.8697,6.8554,6.8506,6.8506,6.8506,6.8506,6.8506,6.8506,6.91,7.0215,7.0698,7.1315,7.2118,7.2721,7.2982,7.2872,7.261,7.2798,7.335,7.3821,7.4287,7.4745,7.5281,7.5501,7.531,7.3865,7.2963,7.2128,7.0686,6.9762,6.9203,6.9203,6.9203,6.9203,6.9203,6.8548,6.7731,6.7158,6.6332,6.5403,6.4323,6.3496,6.2745,6.2156,6.0225,5.8281,5.6994,5.4758,5.2137,4.9092,4.6533,4.4002,4.1574,3.8721,3.6502,3.5541,3.4278,3.3184,3.2829,3.0781,2.9444,2.9443,2.8672,2.844,2.9139,2.9233,2.9086,2.8727,2.8927,2.8462,2.7183,2.7326,2.6942,2.5859,2.5542,2.5384,2.5225,2.2831,2.2189,6.4414,6.4414,6.4613,6.5453,6.6275,6.748,6.96,6.9356,6.8798,6.9245,6.9322,6.9447,6.989,6.9171,6.8146,6.7124,6.6059,6.5185,6.4472,6.5035,6.5557,6.5707,6.6425,6.7213,6.8039,6.8114,6.8415,6.9166,6.9203,6.9116,6.8983,6.8929,6.8791,6.8697,6.8554,6.8506,6.8506,6.8506,6.8506,6.8506,6.8457,6.9311,7.092,7.092,7.1301,7.2034,7.2503,7.2723,7.2667,7.2553,7.2853,7.3452,7.3821,7.4325,7.4825,7.5318,7.5501,7.5351,7.4293,7.3232,7.2241,7.1168,7.0051,6.9203,6.9203,6.9203,6.9203,6.916,6.8308,6.7396,6.6992,6.6028,6.4841,6.3933,6.3274,6.2668,6.1896,5.996,5.7882,5.6303,5.3714,5.1039,4.8223,4.5342,4.2624,4.0082,3.7166,3.517,3.517,3.3922,3.2701,3.1797,3.0432,2.9443,2.8946,2.8869,2.9171,2.9723,2.9461,2.9297,2.9336,2.9488,2.9183,2.86,2.8584,2.8417,2.7933,2.5225,2.3792,2.346,2.0434,1.9795,6.5312,6.5741,6.6375,6.7217,6.8412,6.9445,6.9794,7.0058,7.0248,7.0375,7.0266,6.9895,6.907,6.8225,6.7263,6.6053,6.511,6.4738,6.5191,6.5411,6.6008,6.7288,6.7626,6.8077,6.8865,6.894,6.9015,6.9203,6.9203,6.9153,6.8929,6.8921,6.8791,6.8554,6.8506,6.8506,6.8506,6.8506,6.8506,0.0,6.8408,6.9261,7.092,7.092,7.1584,7.2778,7.2705,7.2667,7.2553,7.2496,7.3034,7.3869,7.3963,7.454,7.5318,7.5427,7.5501,7.5351,7.4293,7.3232,7.2241,7.1168,7.0051,6.9203,6.9203,6.9203,6.9116,6.8809,6.7973,6.7028,6.6664,6.5332,6.3933,6.3274,6.2973,6.2266,5.9894,5.7936,5.6183,5.4598,5.2051,4.9277,4.6675,4.3924,4.0836,3.7045,3.5005,3.3882,3.3882,3.1857,3.0645,3.0611,2.9726,2.9103,2.9536,2.96,2.9755,3.0134,3.0031,2.9275,2.7636,2.8534,2.7734,2.4964,2.6148,2.4907,2.092,2.2831,2.314,2.1695,2.106,2.0899,6.6678,6.7029,6.7624,6.8798,6.9655,7.0231,7.0351,7.0633,7.0763,7.061,7.0157,6.9584,6.875,6.7618,6.6466,6.5628,6.5148,6.5041,6.5417,6.6199,6.7016,6.7884,6.8377,6.8753,6.9166,6.9203,6.9203,6.9203,6.9116,6.9027,6.8921,6.8875,6.8697,6.8506,6.8506,6.8506,6.8506,6.8506,6.8457,6.8408,6.8309,6.9161,7.0754,7.1532,7.2277,7.2872,7.2667,7.2553,7.2496,7.2496,7.3104,7.4009,7.4009,7.4582,7.5501,7.5501,7.5501,7.5389,7.46,7.3497,7.224,7.1497,7.0304,6.9203,6.9203,6.9203,6.9072,6.8501,6.7731,6.6879,6.6307,6.4972,6.3643,6.3049,6.2668,6.1761,5.9193,5.7364,5.5574,5.3315,5.064,4.7808,4.5289,4.1555,3.7807,3.486,3.3428,3.2725,3.2933,3.1328,3.0446,3.0992,2.9993,2.9552,3.0267,2.9719,2.932,2.9194,2.8453,2.7423,2.5832,2.6172,2.5701,2.378,2.4589,2.3792,2.1071,2.2028,2.2017,2.1222,2.0424,2.0008,6.7888,6.8267,6.8756,6.9989,7.0377,7.0564,7.092,7.0968,7.0839,7.0495,6.9775,6.9017,6.8482,6.7238,6.6134,6.5595,6.5639,6.5795,6.5905,6.7133,6.8066,6.8178,6.8784,6.9203,6.9203,6.9203,6.9203,6.9203,6.9072,6.8937,6.8921,6.8744,6.865,6.8506,6.8506,6.858,6.8729,6.868,6.8705,6.8716,6.8814,6.9562,7.088,7.2447,7.2982,7.2723,7.2553,7.2496,7.2496,7.261,7.3156,7.4009,7.4101,7.4702,7.5501,7.5501,7.5501,7.5394,7.4939,7.3833,7.2465,7.189,7.0668,6.9428,6.9278,6.9203,6.9034,6.8222,6.752,6.6822,6.6002,6.4735,6.3466,6.2878,6.2032,6.0869,5.8657,5.7093,5.5274,5.2262,4.8995,4.5792,4.3093,3.863,3.4942,3.3544,3.2301,3.1745,3.216,3.1323,3.0842,3.1532,3.0373,2.9954,3.0584,2.9549,2.8409,2.7877,2.6491,2.5212,2.3915,2.346,2.3152,2.2992,2.3472,2.3472,2.2992,2.1695,2.1082,2.08,1.9365,1.8834,6.8088,6.9109,7.0207,7.0354,7.0782,7.1154,7.1028,7.0889,7.0686,7.0457,6.9775,6.8858,6.7768,6.7311,6.6779,6.568,6.6134,6.6886,6.7584,6.7878,6.8253,6.8935,6.9166,6.9203,6.9203,6.9203,6.9203,6.9203,6.9072,6.8937,6.8921,6.8744,6.865,6.8506,6.8506,6.884,6.9546,6.9396,6.9716,7.042,7.093,7.1618,7.2259,7.3292,7.3386,7.2723,7.2553,7.2496,7.2553,7.298,7.3516,7.4056,7.4417,7.4942,7.5501,7.5501,7.5394,7.5209,7.4899,7.409,7.301,7.2034,7.1081,7.0179,6.9428,6.9203,6.8945,6.7871,6.7305,6.6707,6.5597,6.4148,6.2867,6.2084,6.0465,5.8615,5.691,5.6335,5.4937,5.0707,4.6157,4.1727,3.7857,3.5706,3.416,3.3174,3.1832,3.1064,3.146,3.059,3.0114,3.0499,2.9606,2.9336,2.9713,2.8487,2.7236,2.6175,2.5859,2.443,2.1695,2.1534,2.0909,1.9479,2.235,2.235,1.9316,2.0586,2.0527,1.926,1.9094,1.9051,6.9372,7.0341,7.1221,7.114,7.1287,7.1403,7.1209,7.1004,7.0801,7.061,6.9851,6.8973,6.822,6.765,6.704,6.6345,6.695,6.7589,6.7953,6.8366,6.8784,6.9166,6.9203,6.9203,6.9203,6.9203,6.9203,6.9203,6.9065,6.8929,6.8921,6.8697,6.8777,6.9174,6.9174,6.9583,7.0363,7.0249,7.0243,7.0454,7.1195,7.1838,7.2532,7.3361,7.3603,7.3272,7.3214,7.2936,7.2553,7.3087,7.3566,7.4056,7.454,7.5019,7.5501,7.5501,7.5394,7.5171,7.4899,7.4124,7.3118,7.2071,7.1156,7.033,6.9466,6.9072,6.8633,6.752,6.6627,6.5714,6.461,6.3032,6.1547,6.1272,5.9544,5.7646,5.6391,5.4968,5.2472,4.7564,4.4061,4.0667,3.7002,3.4882,3.3233,3.1974,3.0899,3.032,3.068,3.0008,2.9455,2.9793,2.8872,2.823,2.8374,2.7291,2.5872,2.4258,2.3632,2.22,1.9947,1.9785,1.9469,1.8673,2.012,2.0282,1.8673,1.9588,1.9696,1.8976,1.9099,1.9269,7.0738,7.1363,7.1799,7.1729,7.1675,7.1559,7.1365,7.1147,7.092,7.0751,7.0042,6.9355,6.8954,6.8221,6.7522,6.716,6.776,6.8291,6.8291,6.8822,6.9203,6.9203,6.9203,6.9203,6.9203,6.9203,6.9203,6.9203,6.902,6.8996,6.922,6.8948,6.9174,6.9992,7.0029,7.04,7.1218,7.1287,7.1135,7.0864,7.1377,7.2129,7.312,7.3744,7.4111,7.4294,7.3891,7.3456,7.3037,7.3372,7.3725,7.4237,7.4705,7.5132,7.5501,7.5501,7.532,7.5056,7.4859,7.4275,7.3295,7.2102,7.1306,7.0592,6.9541,6.8952,6.8389,6.7283,6.6279,6.5199,6.3952,6.2438,6.116,6.0842,5.902,5.6965,5.5552,5.3034,4.9709,4.5057,4.2292,3.9611,3.6453,3.4068,3.2212,3.1056,3.0372,3.0187,3.0537,2.9731,2.9209,2.9464,2.8076,2.7134,2.7134,2.5727,2.4295,2.2671,2.1566,2.0282,1.8837,1.873,1.8749,1.8749,1.8806,1.8806,1.8749,1.8957,1.9089,1.9136,1.9297,1.9486,7.1675,7.1909,7.1877,7.1807,7.1753,7.1636,7.1365,7.1154,7.0932,7.0724,7.0495,7.0228,6.9813,6.9095,6.8409,6.8028,6.8634,6.9166,6.9166,6.9203,6.9203,6.9203,6.9203,6.9203,6.9203,6.9203,6.9203,6.9203,6.902,6.9257,7.0004,6.9804,7.0029,7.0846,7.0846,7.1255,7.2109,7.2627,7.2724,7.2386,7.2422,7.3266,7.4808,7.4845,7.5249,7.5873,7.4368,7.3978,7.4375,7.4073,7.4243,7.4705,7.5245,7.5501,7.5501,7.5501,7.5209,7.4819,7.4819,7.4525,7.3859,7.2245,7.1681,7.1343,6.9729,6.8935,6.8376,6.7294,6.6682,6.5902,6.4037,6.3203,6.2446,6.1037,5.888,5.6373,5.3693,5.0464,4.7308,4.441,4.0668,3.7313,3.4644,3.2861,3.159,3.0958,3.082,3.0974,3.1284,3.0238,2.9479,2.9493,2.7305,2.574,2.574,2.3988,2.2395,2.1416,2.0607,1.9642,1.8673,1.8862,1.8957,1.8957,1.9165,1.9165,1.8957,1.9174,1.9382,1.9562,1.9581,1.9694,7.1909,7.1948,7.1897,7.1885,7.1784,7.1675,7.1559,7.1287,7.0971,7.0907,7.061,7.0304,6.9851,6.955,6.9241,6.8822,6.901,6.9203,6.9203,6.9203,6.9203,6.9203,6.9203,6.9203,6.9203,6.9203,6.9422,6.9859,6.976,6.9995,7.0683,7.0574,7.0883,7.1701,7.1738,7.2043,7.2701,7.2889,7.2816,7.2496,7.2496,7.3083,7.4147,7.4661,7.5359,7.6056,7.5506,7.4974,7.4502,7.4672,7.4733,7.4745,7.5281,7.5501,7.5501,7.5358,7.5095,7.4778,7.4653,7.4432,7.4009,7.2845,7.2132,7.1494,7.0367,6.9207,6.8044,6.7243,6.6153,6.4903,6.3415,6.2277,6.0808,5.8294,5.6262,5.436,5.1946,4.9324,4.649,4.3762,4.0828,3.7967,3.5101,3.3486,3.219,3.1039,3.041,2.9992,3.0159,2.8273,2.7112,2.7134,2.5581,2.448,2.448,2.3359,2.2234,2.1416,2.0444,1.9702,1.8862,1.8938,1.9042,1.9184,1.9382,1.9392,1.9184,1.9392,1.9524,1.9599,1.9741,1.9845,7.1987,7.1987,7.1948,7.1909,7.1828,7.1732,7.1708,7.1403,7.1087,7.1022,7.0724,7.0381,6.989,6.9777,6.9654,6.9278,6.9203,6.9203,6.9203,6.9203,6.9203,6.9203,6.9203,6.9316,6.9616,6.961,6.9903,7.0675,7.0527,0.0,7.1491,7.1379,7.1738,7.2555,7.2541,7.2696,7.2982,7.2927,7.2723,7.2496,7.2496,7.2936,7.3707,7.4551,7.5359,7.613,7.6589,7.6143,7.517,7.517,7.5123,7.498,7.5356,7.5501,7.5501,7.5284,7.5017,7.4778,7.4568,7.4342,7.4085,7.3183,7.2545,7.1907,7.0818,6.9544,6.8213,6.7246,6.6043,6.4663,6.3076,6.1457,5.9622,5.73,5.5075,5.3037,5.102,4.8666,4.625,4.4028,4.0755,3.7649,3.5746,3.3336,3.1479,3.051,2.9592,2.8812,2.8817,2.7038,2.5714,2.5727,2.4639,2.384,2.384,2.2717,2.1911,2.1416,2.0191,1.9483,1.8966,1.9108,1.925,1.9392,1.9599,1.9637,1.9505,1.9637,1.9703,1.9713,1.9855,1.9572,0.0,0.0,0.0,7.1909,7.187,7.1792,7.1714,7.1481,7.1242,7.1053,7.0834,7.0533,6.9928,6.9777,6.9654,6.9278,6.9203,6.9203,6.9203,6.9203,6.9241,6.9241,6.9241,6.9579,7.0442,7.0384,7.0675,7.1499,7.1301,7.1529,7.2385,7.2322,7.2555,7.3372,7.3252,7.3145,7.2982,7.2779,7.261,7.2496,7.2496,7.2899,7.367,7.4515,7.5322,7.6153,7.7476,7.7483,7.6365,7.5624,7.5334,7.5539,7.5501,7.5501,7.5501,7.5284,7.5017,7.4778,7.4525,7.4342,7.4085,7.3221,7.2921,7.2583,7.1043,6.9954,6.8897,6.7454,6.6425,6.5337,6.3222,6.1053,5.918,5.8318,5.5589,5.2698,5.0796,4.8387,4.635,4.5157,4.0118,3.6054,3.6431,3.2283,2.9239,2.9443,2.8488,2.7616,2.7616,2.6426,2.5581,2.5581,2.448,2.384,2.384,2.2234,2.1265,2.1265,1.9851,1.8985,1.8995,1.9382,1.9599,1.9609,1.9817,1.9921,1.9921,1.9921,1.9921,1.9921,1.9921,1.9039,7.1987,0.0,0.0,0.0,0.0,0.0,7.1785,7.152,7.1275,7.1241,7.0937,7.0572,7.008,6.989,6.9654,6.9278,6.9203,6.9203,6.9203,6.9203,6.9422,7.0053,7.0135,7.048,7.1306,7.1246,7.1453,0.0,7.2111,7.2335,7.3052,7.309,7.3149,7.3372,7.3252,7.3145,7.2982,7.2779,7.261,7.2496,7.2496,7.2606,7.2863,7.367,7.4638,7.5866,7.6847,7.7466,7.7824,7.6992,7.6534,7.6303,7.573,7.5501,7.5427,7.5095,7.4859,7.4737,7.4387,7.4243,7.416,7.3934,7.3409,7.2808,7.2387,7.0811,6.9027,6.8121,6.6873,6.5338,6.3383,6.0669,5.832,5.7598,5.5007,5.221,5.0189,4.8058,4.5858,4.3371,3.9323,3.6093,3.545,3.2708,3.081,3.0825,2.9035,2.7637,2.7629,2.5633,2.432,2.432,2.4,2.352,2.305,2.2078,2.1196,2.0539,1.9757,1.9278,1.942,1.9533,1.9675,1.9826,1.9892,1.9921,1.9921,1.9921,1.9921,1.9921,1.8864,1.7622,0.0,0.0,0.0,7.1987,0.0,0.0,7.1824,7.1636,7.1442,7.1326,7.112,7.0821,7.0292,7.0346,7.0342,6.9923,7.0073,7.011,6.981,7.0035,7.0449,7.0961,7.0991,7.1291,7.2041,7.2024,7.2219,7.2895,7.287,7.2992,7.3372,7.3372,7.3372,7.3372,7.3199,7.3091,7.2982,7.2723,7.2553,7.2496,7.2496,7.2496,7.2532,7.334,7.4421,7.5766,7.6797,7.7877,7.8912,7.7944,7.7189,7.6609,7.5806,7.5465,7.5358,7.4939,7.4737,7.4611,7.4335,7.4197,7.4197,7.4197,7.3859,7.3334,7.2829,7.139,6.9811,6.8713,6.7055,6.5193,6.3825,6.1198,5.8769,5.7868,5.483,5.1477,4.9435,4.6893,4.4342,4.2656,3.9286,3.6311,3.459,3.1868,2.9583,2.913,2.7341,2.5948,2.599,2.4664,2.384,2.384,2.3937,2.3848,2.3363,2.2288,2.1605,2.1108,1.9981,1.9477,1.959,1.9684,1.9788,1.9921,1.9921,1.9572,1.9039,1.9039,1.8681,1.8156,1.6745,1.569,0.0,0.0,0.0,0.0,7.1943,0.0,7.1807,7.1808,7.1753,7.152,7.1559,7.1397,7.0844,7.1216,7.1501,7.1062,7.1513,7.1626,7.0749,7.1244,7.1733,7.1832,7.1808,7.2099,7.281,7.2705,7.2907,7.354,7.3476,7.3372,7.3372,7.3372,7.3372,7.3372,7.3145,7.2982,7.2982,7.2704,7.2496,7.2496,7.2496,7.2496,7.2532,7.3288,7.4459,7.5872,7.7141,7.8481,7.968,7.8485,7.7526,7.6761,7.5844,7.5394,7.5171,7.4899,7.4653,7.4476,7.4289,7.4197,7.4197,7.4197,7.4197,7.4009,7.2866,7.1815,7.0761,6.906,6.6911,6.5033,6.4309,6.2181,5.9792,5.8352,5.465,5.0896,4.8625,4.5312,4.2731,4.2497,3.9498,3.6363,3.3948,3.0414,2.7313,2.6095,2.4874,2.4,2.4,2.384,2.3852,2.3888,2.4094,2.4088,2.3948,2.2698,2.2008,2.1673,2.0367,1.9628,1.9628,1.9817,1.9921,1.9921,1.9746,1.8864,1.7271,1.7447,1.692,1.569,1.4278,1.3571,0.0,0.0,0.0,0.0,0.0,0.0,7.1809,7.2244,7.2647,7.2608,7.3035,7.3311,7.3045,7.2944,7.2729,7.2115,7.2687,7.28,7.162,7.1583,7.192,7.2604,7.2679,7.297,7.3672,7.3602,7.3579,7.3578,7.3476,7.3372,7.3372,7.3372,7.332,7.3252,7.3091,7.2927,7.2779,7.261,7.2496,7.2496,7.2496,7.2496,7.2496,7.3111,7.4458,7.6354,7.7092,7.8508,8.0201,7.8635,7.7908,7.7602,7.6074,7.5394,7.5171,7.4899,7.4653,7.4476,7.4289,7.4197,7.4197,7.4197,7.4197,7.416,7.3888,7.2555,7.0655,6.8428,6.6519,6.4983,6.4016,6.1914,5.9567,5.6992,5.4133,5.1305,4.8183,4.5332,4.2714,4.066,3.7896,3.5029,3.2641,3.048,2.8675,2.7457,2.6122,2.5263,2.5263,2.448,2.3925,2.4142,2.4202,2.3669,2.2544,2.2284,2.1577,2.0216,1.9904,1.9855,1.9855,1.9902,1.9921,1.9921,1.8855,1.692,1.4455,1.5513,1.6042,1.569,1.4278,1.3571,0.0,0.0,0.0,7.2534,0.0,0.0,0.0,7.3352,7.3605,7.3579,7.3834,7.3989,7.3795,7.3896,7.387,7.345,7.379,7.3925,7.3279,7.3054,7.3091,7.3513,7.355,7.3654,7.3875,7.3864,7.3715,7.3513,7.3424,7.3372,7.3372,7.3372,7.3357,7.3199,7.3091,7.2927,7.2723,7.2553,7.2496,7.2496,7.2496,7.2667,7.2908,7.3193,7.4611,7.6904,7.716,7.8517,8.0391,7.9169,7.8404,7.7831,7.6043,7.5209,7.4977,7.4737,7.4519,7.4335,7.4243,7.4197,7.4197,7.4197,7.4197,7.416,7.3888,7.2723,7.0904,6.8418,6.7169,6.6131,6.4266,6.2469,6.0424,5.7233,5.4007,5.0896,4.7951,4.4375,4.1179,3.9891,3.6701,3.3364,3.1273,2.9925,2.8347,2.6122,2.513,2.4786,2.4786,2.4307,2.3968,2.4226,2.448,2.4187,2.2978,2.2714,2.1989,2.0441,2.0028,1.9572,1.8864,1.8864,1.8506,1.7805,1.6393,1.4985,1.3571,1.3571,1.3571,1.3571,1.2869,1.2514,0.0,0.0,0.0,0.0,0.0,7.3612,0.0,0.0,0.0,7.4472,7.4572,7.4632,7.4476,7.4809,7.5002,7.4745,7.4839,7.4908,7.4815,7.4582,0.0,7.4197,7.4151,7.4056,7.3815,7.3765,7.3665,7.3424,7.3372,7.3372,7.3372,7.3372,7.3357,7.3145,7.3037,7.2927,7.2667,7.2553,7.2496,7.2496,7.2496,7.2798,7.3298,7.3364,7.4741,7.7055,7.7331,7.8482,8.02,7.9551,7.8787,7.7758,7.6122,7.5208,7.4778,7.4568,7.4387,7.4197,7.4197,7.4197,7.4197,7.4197,7.4141,7.3961,7.3342,7.2466,7.1187,6.8723,6.7911,6.727,6.4458,6.2861,6.0978,5.7172,5.3502,5.0002,4.7256,4.2979,3.9534,3.8977,3.5632,3.2259,3.0354,2.916,2.7361,2.432,2.384,2.3852,2.3852,2.4094,2.4275,2.4311,2.4745,2.4542,2.3574,2.2739,2.1811,2.0771,1.9737,1.8506,1.7447,1.7447,1.6745,1.5337,1.4102,1.3394,1.3217,1.1982,1.1455,1.1455,1.1455,1.1455,0.0,0.0,0.0,0.0,7.3805,0.0,0.0,0.0,7.5344,7.5366,0.0,7.6415,7.6415,0.0,0.0,7.5915,7.5793,7.5641,7.5277,7.5167,7.4904,7.4289,7.4104,7.3961,7.3815,7.3578,7.3424,7.3372,7.3372,7.3372,7.3372,7.3372,7.3268,7.3037,7.2982,7.2872,7.2496,7.2496,7.2496,7.2496,7.2496,7.2798,7.3298,7.3725,7.4726,7.6224,7.738,7.8482,7.9436,7.9321,7.8675,7.7646,7.6617,7.5664,7.4778,7.4577,7.4394,7.4197,7.4197,7.4197,7.4197,7.4197,7.3952,7.3406,7.2352,7.1827,7.1259,6.9013,6.8137,6.7202,6.4132,6.1972,5.9499,5.4786,5.1521,4.848,4.4754,4.1753,3.893,3.6404,3.467,3.2872,3.041,2.822,2.5951,2.4148,2.384,2.3852,2.4197,2.4233,2.4429,2.4894,2.4972,2.4362,2.29,2.1577,2.0047,1.8322,1.692,1.6042,1.5866,1.5866,1.5337,1.3925,1.3748,1.3046,1.181,1.1632,1.1455,1.1455,1.1455,1.1455,0.0,0.0,0.0,0.0,0.0,0.0,7.5752,0.0,7.6182,0.0,0.0,0.0,0.0,0.0,0.0,0.0,7.6096,7.5813,7.5679,7.5446,7.5094,7.4535,0.0,0.0,7.3728,7.3476,7.3372,7.3372,7.3372,7.3372,7.3372,7.3357,7.3199,7.2982,7.2927,7.2723,7.2496,7.2496,7.2496,7.2496,7.2798,7.3209,7.3725,7.4154,7.5119,7.6465,7.7529,7.8481,7.9321,7.9667,7.898,7.7645,7.6983,7.5872,7.4615,7.4394,7.4252,7.4197,7.4197,7.4197,7.4197,7.4197,7.4084,7.3713,7.2757,7.2416,7.1878,6.9203,6.792,6.6471,6.262,5.9967,5.726,5.311,4.9605,4.6454,4.4022,4.0166,3.6934,3.5725,3.3042,3.0531,2.8901,2.7748,2.6361,2.4185,2.3852,2.4024,2.4197,2.4395,2.4733,2.5004,2.5167,2.4573,2.2772,2.1384,2.0192,1.903,1.692,1.5337,1.4455,1.3748,1.3046,1.2337,1.2337,1.216,1.1455,1.1455,1.1455,1.1455,1.1455,1.1455,7.3236,0.0,0.0,0.0,0.0,0.0,0.0,0.0,0.0,0.0,0.0,0.0,0.0,0.0,0.0,0.0,0.0,7.6056,7.6041,7.5802,7.5408,7.4904,7.4708,0.0,0.0,7.3691,7.3591,7.3591,7.3476,7.3372,7.3357,7.3252,7.3091,7.2927,7.2779,7.2667,7.2496,7.2496,7.2496,7.2496,7.3034,7.3566,7.4009,7.446,7.5437,7.6761,7.764,7.8481,7.9321,7.9665,7.8937,7.7526,7.6922,7.5777,7.454,7.4372,7.4342,7.4336,7.4475,7.4455,7.431,7.4235,7.4104,7.3864,7.298,7.2556,7.1769,6.8733,6.7273,6.5526,6.1114,5.8375,5.5738,5.1804,4.8158,4.4868,4.297,3.8728,3.5237,3.4453,3.1387,2.8561,2.7155,2.6946,2.6174,2.4209,2.4037,2.4307,2.4425,2.4771,2.5095,2.5082,2.5216,2.4714,2.2911,2.1343,1.9981,1.8322,1.5858,1.4102,1.304,1.1988,1.1455,1.1455,1.1455,1.1455,1.1455,1.1455,1.1632,1.1632,1.1632,1.1455,0.0,0.0,0.0,7.5579,0.0,0.0,0.0,0.0,7.6687,0.0,0.0,0.0,0.0,0.0,0.0,0.0,0.0,0.0,0.0,7.6374,7.6095,7.5379,7.513,0.0,0.0,7.4243,7.4009,7.4009,7.3604,7.332,7.3199,7.3199,7.3037,7.2723,7.2723,7.2667,7.2496,7.2496,7.2496,7.2496,7.3034,7.3566,7.4009,7.446,7.5437,7.6761,7.764,7.8481,7.9283,7.9018,7.8286,7.7207,7.6236,7.5338,7.4711,7.4695,7.4657,7.4733,7.5143,7.4996,7.4657,7.431,7.3901,7.3394,7.2576,7.1709,7.0458,6.7319,6.612,6.4662,6.0083,5.79,5.5708,5.0561,4.7532,4.4626,4.0646,3.7558,3.4659,3.1937,3.0017,2.8058,2.5646,2.5206,2.4924,2.4209,2.4197,2.4401,2.4889,2.5032,2.5056,2.5409,2.5421,2.4691,2.2834,2.1474,1.8748,1.4082,1.2509,1.1632,1.1632,1.1455,1.1455,1.1455,1.1455,1.1455,1.1455,1.1455,1.181,1.2165,1.1632,1.1455,0.0,0.0,7.6255,7.6588,0.0,0.0,0.0,0.0,0.0,0.0,0.0,0.0,0.0,0.0,0.0,0.0,0.0,0.0,0.0,7.6397,7.6262,7.5928,7.5379,7.4904,0.0,0.0,7.4009,7.4009,7.3604,7.332,7.3199,7.3091,7.2982,7.2723,7.261,7.2553,7.2496,7.2496,7.2723,7.3071,7.3566,7.4009,7.446,7.5018,7.5775,7.6761,7.764,7.8102,7.8294,7.8552,7.7903,7.6576,7.6104,7.5618,7.5056,7.4819,7.4857,7.5061,7.4935,7.4819,7.4615,7.4297,7.4104,7.3815,7.298,7.1623,7.0002,6.7644,6.4818,6.1495,5.7546,5.4235,5.0955,4.7461,4.409,4.0986,3.8545,3.521,3.2178,3.0156,2.8418,2.6851,2.5583,2.5337,2.5138,2.4246,2.4456,2.4843,2.502,2.5068,2.5263,2.5433,2.4314,2.338,2.2813,2.0278,1.6848,1.2509,1.2686,1.2509,1.1455,1.1455,1.1455,1.1455,1.1455,1.1632,1.1988,1.1988,1.1449,1.0733,1.0555,1.0555,7.502,7.5741,0.0,7.6942,7.6894,0.0,7.6833,0.0,0.0,0.0,0.0,0.0,0.0,0.0,0.0,0.0,0.0,0.0,0.0,7.6374,7.6326,7.6198,7.5741,7.531,7.4981,7.4667,7.4331,7.4018,7.3763,7.349,7.3145,7.3037,7.2872,7.2667,7.2553,7.2496,7.2496,7.2723,7.2963,7.3298,7.3963,7.4374,7.4745,7.5245,7.5921,7.6723,7.7296,7.7607,7.7721,7.7711,7.7141,7.6275,7.5734,7.5513,7.5504,7.5203,7.5365,7.563,7.525,7.5042,7.4867,7.4493,7.4297,7.4056,7.3178,7.1453,6.928,6.7044,6.3182,5.8851,5.5334,5.1927,4.8516,4.5457,4.201,3.8997,3.7085,3.343,3.013,2.9286,2.7629,2.6307,2.575,2.5791,2.5552,2.4608,2.4807,2.5056,2.5068,2.5251,2.5068,2.4496,2.338,2.23,2.112,1.8252,1.533,1.2361,1.2692,1.2509,1.1455,1.1632,1.181,1.181,1.1988,1.2165,1.252,1.1804,1.1088,1.0199,0.9482,0.8947]},{"header":{"parameterUnit":"m.s-1","parameterCategory":1,"la1":30.6,"la2":29.2853,"lo1":-89.7004,"lo2":-87.6739,"dy":0.0162,"dx":0.0183,"nx":112,"ny":82,"refTime":"2023-11-20T06:00:00:Z","depth":0,"parameterNumber":3,"parameterNumberName":"V-component_of_WINDS"},"data":[0.0,0.0,0.0,0.0,0.0,0.0,0.0,0.0,0.0,0.0,0.0,0.0,0.0,0.0,0.0,0.0,0.0,0.0,0.0,0.0,0.0,0.0,0.0,0.0,0.0,0.0,0.0,0.0,0.0,0.0,0.0,0.0,0.0,0.0,0.0,0.0,0.0,0.0,0.0,0.0,0.0,0.0,0.0,0.0,0.0,0.0,0.0,0.0,0.0,0.0,0.0,0.0,0.0,0.0,0.0,0.0,0.0,0.0,0.0,0.0,0.0,0.0,0.0,0.0,0.0,0.0,0.0,0.0,0.0,0.0,0.0,0.0,0.0,0.0,0.0,0.0,0.0,0.0,0.0,0.0,0.0,0.0,0.0,0.0,0.0,0.0,0.0,0.0,0.0,0.0,0.7746,0.8237,0.9312,1.0779,1.2533,1.2823,1.3318,1.4196,0.0,0.0,0.0,0.0,0.0,0.0,0.0,0.0,0.0,0.0,0.0,0.0,0.0,0.0,0.0,0.0,0.0,0.0,0.0,0.0,0.0,0.0,0.0,0.0,0.0,0.0,0.0,0.0,0.0,0.0,0.0,0.0,0.0,0.0,0.0,0.0,0.0,0.0,0.0,0.0,0.0,0.0,0.0,0.0,0.0,0.0,0.0,0.0,0.0,0.0,0.0,0.0,0.0,0.0,0.0,0.0,0.0,0.0,0.0,0.0,0.0,0.0,0.0,0.0,0.0,0.0,0.0,0.0,0.0,0.0,0.0,0.0,0.0,0.0,0.0,0.0,0.0,0.0,0.0,0.0,0.0,0.0,0.0,0.0,0.0,0.0,0.0,0.0,0.0,0.0,0.0,0.0,0.0,0.0,0.0,0.0,0.0,0.0,0.0,0.0,0.0,0.0,0.0,0.0,0.8038,0.9213,1.1072,1.2339,1.263,1.3511,1.41,1.4292,0.0,0.0,0.0,0.0,0.0,0.0,0.0,0.0,0.0,0.0,0.0,0.0,0.0,0.0,0.0,0.0,0.0,0.0,0.0,0.0,0.0,0.0,0.0,0.0,0.0,0.0,0.0,0.0,0.0,0.0,0.0,0.0,0.0,0.0,0.0,0.0,0.0,0.0,0.0,0.0,0.0,0.0,0.0,0.0,0.0,0.0,0.0,0.0,0.0,0.0,0.0,0.0,0.0,0.0,0.0,0.0,0.0,0.0,0.0,0.0,0.0,0.0,0.0,0.0,0.0,0.0,0.0,0.0,0.0,0.0,0.0,0.0,0.0,0.0,0.0,0.0,0.0,0.0,0.0,0.0,0.0,0.0,0.0,0.0,0.0,0.0,0.0,0.0,0.0,0.0,0.0,0.0,0.0,0.0,0.0,0.0,0.0,0.0,0.0,0.0,0.0,0.0,0.0,0.8137,0.8726,1.1072,1.1658,1.2339,1.3511,1.4004,1.4292,1.4292,1.4292,0.0,0.0,0.0,0.0,0.0,0.0,0.0,0.0,0.0,0.0,0.0,0.0,0.0,0.0,0.0,0.0,0.0,0.0,0.0,0.0,0.0,0.0,0.0,0.0,0.0,0.0,0.0,0.0,0.0,0.0,0.0,0.0,0.0,0.0,0.0,0.0,0.0,0.0,0.0,0.0,0.0,0.0,0.0,0.0,0.0,0.0,0.0,0.0,0.0,0.0,0.0,0.0,0.0,0.0,0.0,0.0,0.0,0.0,0.0,0.0,0.0,0.0,0.0,0.0,0.0,0.0,0.0,0.0,0.0,0.0,0.0,0.0,0.0,0.0,0.0,0.0,0.0,0.0,0.0,0.0,0.0,0.0,0.0,0.0,0.0,0.0,0.0,0.0,0.0,0.0,0.0,0.0,0.0,0.0,0.0,0.0,0.0,0.0,0.0,0.0,0.0,0.0,0.9037,0.9829,1.22,1.2309,1.2801,1.4388,1.4485,1.4485,1.4485,1.4485,0.0,0.0,0.0,0.0,0.0,0.0,0.0,0.0,0.0,0.0,0.0,0.0,0.0,0.0,0.0,0.0,0.0,0.0,0.0,0.0,0.0,0.0,0.0,0.0,0.0,0.0,0.0,0.0,0.0,0.0,0.0,0.0,0.0,0.0,0.0,0.0,0.0,0.0,0.0,0.0,0.0,0.0,0.0,0.0,0.0,0.0,0.0,0.0,0.0,0.0,0.0,0.0,0.0,0.0,0.0,0.0,0.0,0.0,0.0,0.0,0.0,0.0,0.0,0.0,0.0,0.0,0.0,0.0,0.0,0.0,0.0,0.0,0.0,0.0,0.0,0.0,0.0,0.0,0.0,0.0,0.0,0.0,0.0,0.0,0.0,0.0,0.0,0.0,0.0,0.0,0.0,0.0,0.0,0.0,0.0,0.0,0.0,0.0,0.0,0.0,0.0,0.0,1.031,1.1644,1.1849,1.3609,1.485,1.5052,1.5052,1.5052,1.5052,1.5052,0.0,0.0,0.0,0.0,0.0,0.0,0.0,0.0,0.0,0.0,0.0,0.0,0.0,0.0,0.0,0.0,0.0,0.0,0.0,0.0,0.0,0.0,0.0,0.0,0.0,0.0,0.0,0.0,0.0,0.0,0.0,0.0,0.0,0.0,0.0,0.0,0.0,0.0,0.0,0.0,0.0,0.0,0.0,0.0,0.0,0.0,0.0,0.0,0.0,0.0,0.0,0.0,0.0,0.0,0.0,0.0,0.0,0.0,0.0,0.0,0.0,0.0,0.0,0.0,0.0,0.0,0.0,0.0,0.0,0.0,0.0,0.0,0.0,0.0,0.0,0.0,0.0,0.0,0.0,0.0,0.0,0.0,0.0,0.0,0.0,0.0,0.0,0.0,0.0,0.0,0.0,0.0,0.0,0.0,0.0,0.0,0.0,0.0,0.0,0.0,0.0,0.0,1.0103,1.1189,1.2506,1.3656,1.4581,1.5113,1.5417,1.5518,1.5113,0.0,0.0,0.0,0.0,0.0,0.0,0.0,0.0,0.0,0.0,0.0,0.0,0.0,0.0,0.0,0.0,0.0,0.0,0.0,0.0,0.0,0.0,0.0,0.0,0.0,0.0,0.0,0.0,0.0,0.0,0.0,0.0,0.0,0.0,0.0,0.0,0.0,0.0,0.0,0.0,0.0,0.0,0.0,0.0,0.0,0.0,0.0,0.0,0.0,0.0,0.0,0.0,0.0,0.0,0.0,0.0,0.0,0.0,0.0,0.0,0.0,0.0,0.0,0.0,0.0,0.0,0.0,0.0,0.0,0.0,0.0,0.0,0.0,0.0,0.0,0.0,0.0,0.0,0.0,0.0,0.0,0.0,0.0,0.0,0.0,0.0,0.0,0.0,0.0,0.0,0.0,0.0,0.0,0.0,0.0,0.0,0.0,0.0,0.0,0.0,0.0,0.0,0.9578,1.018,1.1272,1.3089,1.3948,1.4581,1.5303,1.5694,1.5744,1.5336,0.0,0.0,0.0,0.0,0.0,0.0,0.0,0.0,0.0,0.0,0.0,0.0,0.0,0.0,0.0,0.0,0.0,0.0,0.0,0.0,0.0,0.0,0.0,0.0,0.0,0.0,0.0,0.0,0.0,0.0,0.0,0.0,0.0,0.0,0.0,0.0,0.0,0.0,0.0,0.0,0.0,0.0,0.0,0.0,0.0,0.0,0.0,0.0,0.0,0.0,0.0,0.0,0.0,0.0,0.0,0.0,0.0,0.0,0.0,0.0,0.0,0.0,0.0,0.0,0.0,0.0,0.0,0.0,0.0,0.0,0.0,0.0,0.0,0.0,0.0,0.0,0.0,0.0,0.0,0.0,0.0,0.0,0.0,0.0,0.0,0.0,0.0,0.0,0.0,0.0,0.0,0.0,0.0,0.0,0.0,0.0,0.0,0.0,0.0,0.0,0.0,0.0,0.9928,1.1061,1.2309,1.3539,1.4581,1.5303,1.591,1.5856,1.5915,0.0,0.0,0.0,0.0,0.0,0.0,0.0,0.0,0.0,0.0,0.0,0.0,0.0,0.0,0.0,0.0,0.0,0.0,0.0,0.0,0.0,0.0,0.0,0.0,0.0,0.0,0.0,0.0,0.0,0.0,0.0,0.0,0.0,0.0,0.0,0.0,0.0,0.0,0.0,0.0,0.0,0.0,0.0,0.0,0.0,0.0,0.0,0.0,0.0,0.0,0.0,0.0,0.0,0.0,0.0,0.0,0.0,0.0,0.0,0.0,0.0,0.0,0.0,0.0,0.0,0.0,0.0,0.0,0.0,0.0,0.0,0.0,0.0,0.0,0.0,0.0,0.0,0.0,0.0,0.0,0.0,0.0,0.0,0.0,0.0,0.0,0.0,0.0,0.0,0.0,0.0,0.0,0.0,0.0,0.0,0.0,0.0,0.0,0.0,0.0,0.0,0.0,0.0,0.9562,1.108,1.2375,1.349,1.4968,1.591,1.591,1.6289,1.6227,1.5617,0.0,0.0,0.0,0.0,0.0,0.0,0.0,0.0,0.0,0.0,0.0,0.0,0.0,0.0,0.0,0.0,0.0,0.0,0.0,0.0,0.0,0.0,0.0,0.0,0.0,0.0,0.0,0.0,0.0,0.0,0.0,0.0,0.0,0.0,0.0,0.0,0.0,0.0,0.0,0.0,0.0,0.0,0.0,0.0,0.0,0.0,0.0,0.0,0.0,0.0,0.0,0.0,0.0,0.0,0.0,0.0,0.0,0.0,0.0,0.0,0.0,0.0,0.0,0.0,0.0,0.0,0.0,0.0,0.0,0.0,0.0,0.0,0.0,0.0,0.0,0.0,0.0,0.0,0.0,0.0,0.0,0.0,0.0,0.0,0.0,0.0,0.0,0.0,0.0,0.0,0.0,0.0,0.0,0.0,0.0,0.0,0.0,0.0,0.0,0.0,0.0,0.0,1.0297,1.1668,1.304,1.4217,1.517,1.5875,1.5875,1.6163,1.613,1.5644,0.0,0.0,0.0,0.0,0.0,0.0,0.0,0.0,0.0,0.0,0.0,0.0,0.0,0.0,0.0,0.0,0.0,0.0,0.0,0.0,0.0,0.0,0.0,0.0,0.0,0.0,0.0,0.0,0.0,0.0,0.0,0.0,0.0,0.0,0.0,0.0,0.0,0.0,0.0,0.0,0.0,0.0,0.0,0.0,0.0,0.0,0.0,0.0,0.0,0.0,0.0,0.0,0.0,0.0,0.0,0.0,0.0,0.0,0.0,0.0,0.0,0.0,0.0,0.0,0.0,0.0,0.0,0.0,0.0,0.0,0.0,0.0,0.0,0.0,0.0,0.0,0.0,0.0,0.0,0.0,0.0,0.0,0.0,0.0,0.0,0.0,0.0,0.0,0.0,0.0,0.0,0.0,0.0,0.0,0.0,0.0,0.0,0.0,0.0,0.0,0.0,0.0,1.1579,1.2867,1.4243,1.5512,1.5428,1.5525,1.5896,1.6038,1.6098,1.6012,0.0,0.0,0.0,0.0,0.0,0.0,0.0,0.0,0.0,0.0,0.0,0.0,0.0,0.0,0.0,0.0,0.0,0.0,0.0,0.0,0.0,0.0,0.0,0.0,0.0,0.0,0.0,0.0,0.0,0.0,0.0,0.0,0.0,0.0,0.0,0.0,0.0,0.0,0.0,0.0,0.0,0.0,0.0,0.0,0.0,0.0,0.0,0.0,0.0,0.0,0.0,0.0,0.0,0.0,0.0,0.0,0.0,0.0,0.0,0.0,0.6263,0.0,0.0,0.0,0.0,0.0,0.0,0.0,0.0,0.0,0.0,0.0,0.0,0.0,0.0,0.0,0.0,0.0,0.0,0.0,0.0,0.0,0.0,0.0,0.0,0.0,0.0,0.0,0.0,0.0,0.0,0.0,0.0,0.0,0.0,0.0,0.0,0.0,0.0,0.0,0.0,0.0,1.2452,1.4151,1.5535,1.6704,1.7015,1.7105,1.7208,1.7261,1.7198,1.6899,1.777,0.0,0.0,0.0,0.0,0.0,0.0,0.0,0.0,0.0,0.0,0.0,0.0,0.0,0.0,0.0,0.0,0.0,0.0,0.0,0.0,0.0,0.0,0.0,0.0,0.0,0.0,0.0,0.0,0.0,0.0,0.0,0.0,0.0,0.0,0.0,0.0,0.0,0.0,0.0,0.0,0.0,0.0,0.0,0.0,0.0,0.0,0.0,0.0,0.0,0.0,0.0,0.0,0.0,0.0,0.0,0.0,0.0,0.0,0.0,0.0,0.6904,0.0,0.0,0.0,0.0,0.0,0.0,0.0,0.0,0.0,0.0,0.0,0.0,0.0,0.0,0.0,0.0,0.0,0.0,0.0,0.0,0.0,0.0,0.0,0.0,0.0,0.0,0.0,0.0,0.0,0.0,0.0,0.0,0.0,0.0,0.0,0.0,0.0,0.0,0.0,0.0,1.2889,1.5022,1.6723,1.7384,1.7477,1.7582,1.7582,1.7582,1.7793,1.8199,1.8722,0.0,0.0,0.0,0.0,0.0,0.0,0.0,0.0,0.0,0.0,0.0,0.0,0.0,0.0,0.0,0.0,0.0,0.0,0.0,0.0,0.0,0.0,0.0,0.0,0.0,0.0,0.0,0.0,0.0,0.0,0.0,0.0,0.0,0.0,0.0,0.0,0.0,0.0,0.0,0.0,0.0,0.0,0.0,0.0,0.0,0.0,0.0,0.0,0.0,0.0,0.0,0.0,0.0,0.8278,0.8458,0.8458,0.8484,0.8994,0.9654,0.8394,0.8388,0.9361,0.8582,0.0,0.0,0.0,0.0,0.0,0.0,0.0,0.0,0.0,0.0,0.0,0.0,0.0,0.0,0.0,0.0,0.0,0.0,0.0,0.0,0.0,0.0,0.0,0.0,0.9161,0.8282,0.0,0.0,0.0,0.0,0.0,0.0,0.0,0.0,0.0,0.0,0.0,0.0,1.3529,1.5956,1.7742,1.7742,1.7782,1.7822,1.7822,1.7862,1.8317,1.9353,1.9564,2.0091,0.0,0.0,0.0,0.0,0.0,0.0,0.0,0.0,0.0,0.0,0.0,0.0,0.0,0.0,0.0,0.0,0.0,0.0,0.0,0.0,0.0,0.0,0.0,0.0,0.0,0.0,0.0,0.0,0.0,0.0,0.0,0.0,0.7304,0.7304,0.0,0.0,0.0,0.0,0.0,0.0,0.0,0.0,0.0,0.0,0.0,0.0,0.0,0.6413,0.6521,0.8144,0.9078,0.9194,1.0136,1.0555,1.0563,1.0729,1.0807,1.0914,1.0626,0.0,0.9361,0.9251,0.0,0.0,0.0,0.0,0.0,0.0,0.0,0.0,0.0,0.0,0.0,0.0,0.0,0.0,0.0,0.0,0.0,0.0,0.0,0.0,0.0,0.0,0.8765,0.9103,0.9332,0.9158,0.0,0.8883,0.8816,0.768,0.815,0.0,0.0,0.0,0.0,0.0,0.0,0.0,1.5478,1.7325,1.837,1.837,1.8597,1.8744,1.8744,1.8985,1.9246,1.9361,2.1361,2.2035,2.1136,2.3148,0.0,0.0,0.0,0.0,0.0,0.0,0.0,0.0,0.0,0.0,0.0,0.0,0.0,0.0,0.0,0.0,0.0,0.0,0.0,0.0,0.0,0.0,0.0,0.0,0.0,0.0,0.0,0.0,0.0,0.6535,0.6818,0.6818,0.6553,0.6162,0.0,0.0,0.0,0.0,0.0,0.0,0.0,0.0,0.0,0.6023,0.6564,0.7287,0.8288,0.9209,0.9964,1.0424,1.0842,1.111,1.1118,1.1191,1.1224,1.1216,1.1143,1.0834,1.0408,1.0216,0.9691,0.8927,0.0,0.0,0.0,0.0,0.8207,0.7165,0.7987,0.7575,0.0,0.6756,0.0,0.0,0.0,0.0,0.0,0.0,0.0,0.0,0.0,0.0,0.9033,0.93,0.9401,0.9469,0.9313,0.9353,0.9171,0.0,0.8845,0.9349,0.9259,0.0,0.0,0.0,0.0,1.531,1.5864,1.7474,1.849,1.849,1.8611,1.8677,1.8677,1.8798,1.9203,1.9864,2.1505,2.248,2.2589,2.3586,2.382,0.0,0.0,0.0,0.0,0.0,0.0,0.0,0.0,0.0,0.0,0.0,0.0,0.0,0.0,0.0,0.0,0.0,0.0,0.0,0.0,0.0,0.0,0.0,0.0,0.0,0.0,0.0,0.0,0.6763,0.6945,0.6733,0.676,0.646,0.0,0.0,0.0,0.0,0.0,0.0,0.5312,0.5601,0.6097,0.6797,0.7442,0.84,0.966,1.004,1.0593,1.1297,1.1386,1.1427,1.1427,1.1476,1.15,1.15,1.1451,1.152,1.1562,1.1085,1.0826,1.0715,1.0715,1.0596,1.0358,1.0699,0.9771,0.8508,0.9077,0.8347,0.728,0.7402,0.7546,0.7455,0.7455,0.0,0.0,0.0,0.0,0.8629,0.8974,0.9137,0.9281,0.9408,0.9469,0.951,0.9354,0.9435,0.9415,0.0,0.9609,0.9666,0.9551,0.0,0.0,0.0,0.0,1.5922,1.6259,1.7438,1.829,1.837,1.845,1.849,1.849,1.8557,1.9112,2.0223,2.1264,2.2445,2.3631,2.3965,2.421,2.4489,0.0,0.0,0.0,0.0,0.0,0.0,0.0,0.0,0.0,0.0,0.0,0.0,0.0,0.0,0.0,0.0,0.0,0.0,0.0,0.0,0.0,0.0,0.0,0.0,0.0,0.0,0.0,0.0,0.0,0.7828,0.7828,0.0,0.0,0.0,0.0,0.5369,0.5373,0.541,0.5488,0.6408,0.6919,0.7026,0.8768,0.9816,0.9932,1.0918,1.1484,1.1492,1.1825,1.1987,1.1996,1.2174,1.2247,1.2239,1.2069,1.2256,1.2543,1.1579,1.1077,1.0839,1.0839,1.0716,1.0708,1.2091,1.106,0.9109,1.0609,0.947,0.7519,0.7519,0.7595,0.7693,0.7693,0.8015,0.0,0.0,0.8979,0.911,0.9479,0.9496,0.9388,0.9381,0.9388,0.9354,0.9198,0.9391,0.9653,0.0,0.971,0.973,0.9964,0.0,1.1991,1.3393,1.4685,1.598,1.7279,1.7622,1.7742,1.8036,1.8317,1.849,1.849,1.8744,1.9207,2.0099,2.1264,2.2445,2.3542,2.4718,2.5277,2.5295,2.4105,0.0,0.0,0.0,0.0,0.0,0.0,0.0,0.0,0.0,0.0,0.0,0.0,0.0,0.0,0.0,0.0,0.0,0.0,0.0,0.0,0.0,0.0,0.0,0.0,0.0,0.0,0.0,0.0,0.6433,0.6795,0.0,0.5935,0.5656,0.5463,0.5463,0.5516,0.5792,0.6517,0.7051,0.7814,0.9039,0.994,1.0642,1.1253,1.18,1.202,1.202,1.215,1.2207,1.2215,1.228,1.2557,1.2926,1.2849,1.3154,1.3815,1.3423,1.3021,1.257,1.2804,1.2976,1.332,1.38,1.2693,1.0989,1.1479,0.9978,0.7981,0.7981,0.8008,0.803,0.8195,0.8324,0.8611,0.923,0.9439,0.9542,0.9888,0.9998,0.9937,0.9836,0.9808,0.9768,0.9618,0.9822,1.0191,1.0368,1.0316,1.0432,1.1216,1.2636,1.4034,1.5254,1.6478,1.7611,1.8061,1.817,1.821,1.8317,1.8424,1.849,1.849,1.9348,1.99,2.0208,2.2017,2.319,2.3631,2.4823,2.5491,2.5748,2.5306,2.5219,0.0,0.0,0.0,0.0,0.0,0.0,0.0,0.0,0.0,0.0,0.0,0.0,0.0,0.0,0.0,0.0,0.0,0.0,0.0,0.0,0.0,0.0,0.0,0.0,0.0,0.6554,0.7054,0.5643,0.621,0.6444,0.5581,0.5864,0.5899,0.5553,0.6219,0.6877,0.7272,0.8102,0.9035,1.0301,1.1001,1.1495,1.2125,1.2304,1.2393,1.2393,1.2458,1.2611,1.2867,1.2867,1.3242,1.3879,1.3879,1.4215,1.4789,1.4857,1.4844,1.452,1.4469,1.4741,1.5225,1.5225,1.3836,1.1845,1.0974,0.9545,0.8236,0.8236,0.8236,0.822,0.8511,0.874,0.8866,0.9494,0.9712,0.9824,1.0175,1.0161,1.01,0.9998,0.9971,0.9944,0.9842,1.0186,1.0565,1.086,1.0806,1.1149,1.2534,1.4059,1.5554,1.657,1.7968,1.8784,1.8784,1.8784,1.8824,1.8918,1.8931,1.9158,1.9597,2.0269,2.0973,2.1838,2.3137,2.4101,2.4667,2.5448,2.5839,2.5968,2.6074,2.6458,2.7103,0.0,0.0,0.0,0.0,0.0,0.0,0.0,0.0,0.0,0.0,0.0,0.0,0.0,0.0,0.0,0.0,0.0,0.0,0.0,0.0,0.0,0.0,0.0,0.5497,0.6163,0.6425,0.5614,0.6308,0.6465,0.5756,0.6584,0.6706,0.5773,0.7633,0.8474,0.7622,0.9594,1.0746,1.0897,1.1806,1.232,1.232,1.2491,1.2701,1.2701,1.2751,1.3227,1.3875,1.3875,1.4277,1.4931,1.4931,1.5206,1.5671,1.5883,1.6358,1.6646,1.5659,1.5701,1.6334,1.6334,1.4558,1.1901,0.913,0.8247,0.8247,0.8247,0.8247,0.8247,0.8753,0.9003,0.9385,0.9767,0.9923,1.0066,1.0066,0.9958,0.9849,0.9842,0.9842,0.9842,0.9836,1.0322,1.0852,1.114,1.1287,1.1889,1.3573,1.4759,1.6065,1.7373,1.8674,0.0,1.9399,1.9386,1.9492,1.9773,1.9786,2.0364,2.1628,2.1465,2.2297,2.4761,2.4545,2.5054,2.6573,2.6591,2.6389,2.6092,2.6305,2.7018,2.8047,0.0,0.0,0.0,0.0,0.0,0.0,0.0,0.0,0.0,0.0,0.0,0.0,0.0,0.0,0.0,0.0,0.0,0.0,0.0,0.0,0.0,0.5656,0.5698,0.5471,0.6261,0.6754,0.6638,0.6183,0.6457,0.774,0.7595,0.7559,0.8139,0.8877,0.9462,0.9883,0.9895,1.0507,1.2098,1.1698,1.2157,1.3466,1.3509,1.3805,1.4326,1.425,1.4408,1.467,1.467,1.5062,1.5714,1.5714,1.6063,1.6657,1.6721,1.684,1.6904,1.6583,1.6679,1.6818,1.6818,1.499,1.2263,0.9401,0.8492,0.8492,0.875,0.8881,0.8996,0.9559,0.9786,0.9916,1.0174,1.027,1.0399,1.0507,1.0507,1.0446,1.0337,1.0431,1.0658,1.0552,1.1033,1.1541,1.1595,1.1815,1.2524,1.3871,1.5217,1.6564,1.7792,1.9133,0.0,2.0,1.9813,1.9706,1.9786,1.9613,2.0062,2.1306,2.2017,2.3199,2.4778,2.5572,2.6136,2.6591,2.6791,2.6952,2.7037,2.7037,2.7257,0.0,0.0,0.0,0.0,0.0,0.0,0.0,0.0,0.0,0.0,0.0,0.0,0.0,0.0,0.0,0.0,0.0,0.0,0.0,0.0,0.0,0.0,0.5851,0.6156,0.6197,0.6281,0.6541,0.7164,0.6708,0.7125,0.8873,0.8958,0.9038,0.9249,0.9761,1.0095,1.0223,1.0234,1.0967,1.2409,1.2444,1.3062,1.4526,1.4609,1.4778,1.5186,1.5186,1.5319,1.5594,1.5594,1.5992,1.6775,1.6681,1.6771,1.7152,1.7044,1.7001,0.0,0.0,0.0,0.0,0.0,1.3849,1.1622,0.9377,0.8717,0.8851,0.8984,0.925,0.9504,0.9958,1.0064,1.0195,1.0457,1.0588,1.0595,1.0616,1.0622,1.0588,1.0568,1.0791,1.0891,1.0933,1.1419,1.1799,1.1799,1.2051,0.0,1.4038,1.5401,1.6887,1.8741,1.9742,2.0227,2.0227,2.008,1.9987,1.9987,2.0287,2.1,2.2266,2.3276,0.0,0.0,0.0,2.7123,2.7419,2.7453,0.0,0.0,0.0,2.8,2.8282,0.0,0.0,0.0,2.884,2.9176,0.0,0.0,0.0,0.0,0.0,0.0,0.0,0.0,0.0,0.0,0.0,0.0,0.0,0.0,0.0,0.0,0.642,0.7118,0.7339,0.6455,0.6354,0.7739,0.7771,0.824,0.9615,1.0283,1.0417,0.9666,1.0561,1.0774,0.9876,0.0,0.0,0.0,0.0,1.4602,1.5405,1.5586,1.5808,1.5808,1.5808,1.6225,1.6777,1.6777,1.7183,1.7712,1.7507,1.7421,1.74,1.7173,1.7066,1.7044,1.7012,1.6872,1.6473,1.3718,1.1878,1.0439,0.9117,0.0,0.0,0.9117,0.9389,0.9794,1.0193,1.0326,1.0326,1.0591,1.0717,1.069,1.0555,1.0514,1.061,1.0721,1.094,1.106,1.1165,1.153,1.1767,1.1767,1.2004,1.2741,1.4088,1.5484,1.7134,1.9607,2.0106,2.0227,2.0227,2.0201,2.0187,2.0187,0.0,0.0,2.3763,2.4646,2.5865,2.76,2.7642,2.7827,2.852,2.8179,2.8252,2.8988,2.8622,2.8843,2.9545,3.0847,3.1521,3.1692,3.053,3.0949,0.0,0.0,0.0,0.0,0.0,0.0,0.0,0.0,0.0,0.0,0.0,0.0,0.0,0.0,0.0,0.6647,0.6469,0.6719,0.8436,0.7857,0.8068,0.9751,0.9468,0.9856,1.1841,1.0568,1.0097,1.0733,1.1563,1.2033,1.2029,1.2736,1.3763,1.4873,1.4367,1.4792,1.6446,1.6486,1.6777,1.7307,0.0,0.0,1.7453,1.7453,1.7588,1.7712,1.7669,1.7658,1.7647,1.7604,1.7475,1.7281,1.7077,1.6353,1.5033,1.3456,1.1878,1.0439,0.9117,0.8851,0.9117,0.9522,0.9794,1.0193,1.0459,1.0585,0.0,1.0717,1.0717,1.0711,1.0683,1.0809,1.103,1.1005,1.1349,1.1705,1.1703,1.1815,1.1961,1.1961,1.1971,1.2595,1.4871,1.5889,1.6764,1.8374,1.9498,2.0227,2.0227,2.0027,1.988,1.988,2.0709,2.181,2.3067,2.4452,2.5785,2.7103,2.7375,2.7592,2.7994,2.7898,2.8114,2.8427,2.8349,2.8564,2.8878,3.036,3.1443,3.2125,3.2641,3.3175,0.0,0.0,0.0,0.0,0.0,0.0,0.0,0.0,0.0,0.0,0.0,0.6355,0.6294,0.0,0.7311,0.7903,0.8204,0.8594,0.9777,1.0102,1.0344,1.0777,1.0068,1.0038,1.1758,1.0726,1.0096,1.0697,1.1437,1.2052,1.2127,1.3157,1.4332,1.5381,1.5494,1.6108,1.736,1.7475,1.7665,1.8078,1.8078,1.8078,1.8078,1.8078,1.8078,1.8067,1.7959,1.7906,1.7895,1.7776,1.7647,1.7529,1.7281,1.5793,1.3718,1.3062,1.1483,0.951,0.8984,0.9123,0.9522,0.9794,1.0193,1.0452,1.0585,1.0717,1.0717,1.0717,1.0717,1.0704,1.0754,1.0995,1.1091,1.132,1.1667,1.19,1.2067,1.2105,1.2166,1.2166,1.2101,1.2891,1.555,1.6108,1.692,1.8514,1.9311,1.98,1.98,1.9679,1.9586,1.9586,2.1161,2.241,2.3183,2.536,2.6958,2.7744,2.8043,2.8377,2.8707,2.8707,2.9144,2.9884,2.9971,3.0401,3.1148,3.2691,3.3668,3.4102,3.5371,3.5963,0.0,0.0,0.0,0.0,0.0,0.0,0.0,0.4599,0.5282,0.5282,0.694,0.8178,0.7541,0.8178,0.8846,0.9258,0.9901,1.0538,1.0799,1.1471,1.1705,1.0925,1.0267,1.0182,1.0822,1.0306,1.0054,1.0345,1.1256,1.1887,1.2361,1.3857,1.5055,1.5777,1.6786,1.759,1.8164,1.8347,1.8433,1.8433,1.8433,1.8433,1.8433,1.8433,1.8433,1.8422,1.8239,1.8164,1.8142,1.7895,1.7787,1.7766,1.754,1.5575,1.2889,1.2824,1.1087,0.8717,0.8984,0.9389,0.9794,1.006,1.0452,1.0717,1.0717,1.0717,1.0717,1.0717,1.0717,1.0822,1.096,1.1185,1.1416,1.1803,1.19,1.2027,1.2282,1.2385,1.2353,1.2353,1.2581,1.3421,1.5897,1.6506,1.7364,1.9246,1.9533,1.9533,1.9533,1.965,1.9766,1.987,2.2039,2.3731,2.4485,2.6827,2.8401,2.8732,2.9061,2.9458,2.9885,2.9996,3.064,3.1822,3.2125,3.277,3.3726,3.5268,3.6159,3.6357,3.7842,3.8266,0.2354,0.291,0.4024,0.4585,0.5031,0.581,0.0,0.7118,0.6966,0.776,0.8208,0.8611,0.8732,0.8921,0.9271,1.0412,1.0082,0.9922,1.0848,1.0326,0.9889,0.9757,1.0822,1.1094,0.9908,0.9377,0.9692,1.0887,1.1843,1.3197,1.4907,1.6639,1.7728,1.8057,1.8239,1.825,1.8401,1.8422,1.8433,1.8433,1.8433,1.8433,1.8433,1.8433,1.8433,1.8433,1.8412,1.8401,1.8379,1.8142,1.8056,1.8024,1.7776,1.5885,1.323,1.2913,1.1219,0.8984,0.9117,0.9522,1.0193,1.0193,1.0452,1.0717,1.0717,1.0717,1.0717,1.0717,1.085,1.1115,1.1226,1.1622,1.2142,1.2258,1.2513,1.2644,1.2775,1.2645,1.254,1.254,1.3418,1.4663,1.6021,1.7245,1.8594,1.9905,2.0134,2.0134,2.0134,2.0375,2.0842,2.177,2.3661,2.5754,2.8296,2.8802,2.9176,2.9492,2.9551,2.9996,3.1189,3.1387,3.2125,3.3303,3.3599,3.3915,3.4357,3.5474,3.6555,3.7575,3.8642,3.8867,0.425,0.4585,0.525,0.6028,0.641,0.6909,0.7472,0.7908,0.8256,0.8567,0.9648,1.0419,1.0026,1.0514,1.09,1.087,1.0575,1.0514,1.0995,1.0267,0.9775,1.0439,1.0313,0.9915,0.9117,0.8784,0.9115,1.0644,1.2308,1.3992,1.569,1.7364,1.8336,1.8433,1.8562,1.8638,1.8638,1.8778,1.8853,1.8853,1.8853,1.8853,1.8842,1.8702,1.8562,1.8433,1.8433,1.8433,1.8422,1.8336,1.8293,1.8272,1.8035,1.6265,1.3863,1.3495,1.1629,0.9221,0.9679,0.9921,1.0193,1.0452,1.0585,1.0717,1.0717,1.0717,1.0717,1.0717,1.0982,1.1247,1.1512,1.1909,1.2305,1.2568,1.2708,1.284,1.284,1.2775,1.2726,1.2726,1.382,1.516,1.6424,1.7817,1.9212,2.0735,2.0577,2.0227,2.047,2.0591,2.1541,2.3654,2.5277,2.714,2.8897,2.9466,2.9828,2.9941,3.0195,3.0997,3.2288,3.2511,3.3485,3.5566,3.5862,3.6391,3.7276,3.8001,3.8637,3.9091,3.9829,4.013,0.5588,0.6163,0.6629,0.741,0.7844,0.8172,0.84,0.8884,0.9399,0.9632,1.0906,1.1848,1.126,1.1901,1.2179,1.1568,1.1467,1.1374,1.1219,1.0571,1.0319,1.1024,1.0365,0.9844,0.9753,0.9273,0.9603,1.1166,1.3181,1.5023,1.6629,1.783,1.853,1.853,1.8756,1.8885,1.8885,1.9058,1.9155,1.9155,1.9155,1.9155,1.9144,1.8896,1.8692,1.853,1.8466,1.8433,1.8433,1.8433,1.8433,1.8422,1.825,1.6639,1.4352,1.4028,1.2112,0.9757,1.0206,1.0443,1.0578,1.0712,1.0839,1.0839,1.0839,1.0839,1.0846,1.0974,1.1242,1.1643,1.1911,1.2319,1.2704,1.2789,1.2905,1.2897,1.2848,1.284,1.284,1.284,1.4259,1.5814,1.6969,1.8524,2.0195,2.1475,2.1121,2.0835,2.108,2.1675,2.3217,2.583,2.7347,2.8518,2.9488,3.0101,3.0391,3.0391,3.1146,3.2092,3.3529,3.4069,3.5398,3.7631,3.7926,3.8582,3.9362,3.9878,4.0262,4.0642,4.1071,4.1445,0.5365,0.7001,0.8332,0.8565,0.9245,1.0048,1.0862,1.0657,1.0664,1.1518,1.2044,1.2345,1.2515,1.2556,1.2613,1.2668,1.27,1.2429,1.1365,1.1233,1.115,1.1028,1.1319,1.1917,0.0,1.1675,1.1582,1.299,1.4849,1.6629,1.8272,1.8649,1.8767,1.8767,1.9015,1.9144,1.9144,1.9144,1.9155,1.9155,1.9155,1.9155,1.9144,1.8896,1.8778,1.8756,1.853,1.8433,1.8433,1.8433,1.8433,1.8433,1.8422,1.6715,1.4424,1.4649,1.2936,1.0599,1.0599,1.0875,1.1151,1.1151,1.1151,1.1151,1.1151,1.1151,1.1289,1.1565,1.1978,1.2391,1.2666,1.3078,1.3311,1.3133,1.3084,1.3043,1.2873,1.284,1.284,1.284,1.5043,1.7098,1.7485,1.9674,2.1601,2.1978,2.209,2.2076,2.2076,2.4271,2.6591,2.8527,2.9728,3.047,3.084,3.0859,3.0859,3.0859,3.2187,3.3642,3.4759,3.6487,3.7926,3.9258,3.949,3.9697,3.9697,3.9981,4.0743,4.1985,4.2208,4.2985,0.6919,0.7864,0.8705,0.9752,1.0338,1.0848,1.1438,1.1526,1.1634,1.2247,1.2393,1.2274,1.178,1.2211,1.2235,1.0969,1.1233,1.163,1.1233,1.0652,1.1001,1.2941,1.224,1.2361,0.0,0.0,0.0,1.4988,1.5691,1.6856,1.8507,1.8735,1.8864,1.9025,1.9252,1.9381,1.9381,1.9531,1.9607,1.9607,1.9607,1.9531,1.9381,1.9295,1.9176,1.9025,1.8939,1.8821,1.867,1.867,1.8573,1.8433,1.8714,1.7147,1.4875,1.5229,1.3617,1.1295,1.1094,1.1027,1.1165,1.1165,1.1165,1.1165,1.1165,1.1303,1.1579,1.1717,1.2131,1.2681,1.2819,1.3093,1.336,1.3295,1.3279,1.3262,1.3206,1.3092,1.3269,1.4192,1.6035,1.7613,1.864,2.0563,2.2104,2.2355,2.248,2.2731,2.3589,2.5423,2.7246,2.8801,3.002,3.0762,3.0898,3.0898,3.1325,3.2322,3.2851,3.4181,3.6487,3.7133,3.8137,3.9594,3.9697,3.98,3.9981,4.0945,4.1716,4.2306,4.3245,4.3937,0.8317,0.8936,0.9573,1.0692,1.1193,1.1495,1.1922,1.2101,1.2288,1.2515,1.2613,1.2433,1.1878,1.2305,1.2305,1.0975,1.0969,1.138,1.1844,1.1263,1.191,1.4494,1.4062,1.4337,1.5942,0.0,0.0,1.6091,1.6646,1.7531,1.8767,1.8864,1.9025,1.9262,1.9499,1.9628,1.9628,1.9768,1.9844,1.9844,1.9844,1.9768,1.9618,1.9531,1.9413,1.9273,1.9187,1.9058,1.8907,1.8821,1.8692,1.8552,1.8887,1.7288,1.5026,1.5443,1.3888,1.1592,1.1396,1.1328,1.1328,1.1328,1.1328,1.1328,1.1468,1.1748,1.1881,1.216,1.2579,1.2998,1.3137,1.3424,1.3547,1.3482,1.3465,1.3449,1.3384,1.3279,1.3722,1.5184,1.6592,1.8125,1.9799,2.1389,2.248,2.2731,2.323,2.3961,2.5301,2.6399,2.7624,2.9412,3.0392,3.0879,3.0995,3.1441,3.2092,3.3191,3.4181,3.5485,3.7477,3.8007,3.8687,3.9697,4.0185,4.0465,4.0642,4.1985,4.293,4.3531,4.4631,4.5395,0.9408,1.0222,1.074,1.114,1.167,1.2093,1.228,1.2442,1.2564,1.258,1.2718,1.2832,1.27,1.27,1.2832,1.27,1.1901,1.1688,1.2933,1.2958,1.3493,1.5672,1.656,1.7344,1.8272,0.0,0.0,1.6461,0.0,1.8552,1.8789,1.9036,1.9273,1.951,1.9736,1.9844,1.9844,1.9844,1.9844,1.9844,1.9844,1.9844,1.9844,1.9618,1.9521,1.951,1.9284,1.9176,1.9155,1.8918,1.881,1.8921,1.8964,1.7449,1.5044,1.5443,1.3888,1.1619,1.1619,1.1619,1.1619,1.1619,1.1619,1.1619,1.2051,1.2194,1.2338,1.3039,1.3325,1.3468,1.3761,1.3904,1.3863,1.3693,1.366,1.3612,1.3433,1.353,1.4053,1.5934,1.723,1.865,2.0709,2.23,2.3135,2.3106,2.4209,2.5562,2.69,2.7021,2.8104,3.0645,3.0879,3.0995,3.1441,3.2416,3.3283,3.3733,3.6031,3.7583,3.7583,3.9025,3.9697,3.98,4.1019,4.169,4.169,4.3218,4.4442,4.5417,4.6417,4.7464,0.9971,1.0271,1.0711,1.1121,1.1446,1.1649,1.2331,1.2532,1.2605,1.2735,1.2808,1.2568,1.1769,1.2305,1.2568,1.1762,1.2033,1.2765,1.3746,1.4018,1.4737,1.6511,1.6977,1.7529,1.8293,1.8433,0.0,0.0,1.8549,1.8799,1.9047,1.9284,1.9521,1.9747,1.9811,1.9844,1.9844,1.9844,1.9844,1.9844,1.9844,1.9844,1.9844,1.979,1.9758,1.9758,1.9693,1.9575,1.9402,1.9338,1.9355,1.9459,1.9645,1.8101,1.5785,1.5914,1.4164,1.1619,1.1619,1.1619,1.1619,1.1619,1.1619,1.1619,1.2051,1.2474,1.2753,1.3182,1.3468,1.3753,1.3896,1.3904,1.3888,1.3847,1.3831,1.3823,1.3774,1.4762,1.6157,1.7654,2.016,2.2298,2.2851,2.3261,2.3384,2.3149,2.4209,2.5562,2.69,2.7847,2.9157,3.0976,3.1228,3.1652,3.2851,3.317,3.427,3.6356,3.7133,3.8007,3.9129,3.9672,4.0364,4.1119,4.1591,4.235,4.3313,4.4442,4.5207,4.5689,4.6727,4.7431,1.0025,1.035,1.0818,1.1359,1.114,1.1177,1.2386,1.2287,1.218,1.2684,1.284,1.2568,1.2033,1.2437,1.2568,1.2033,1.2297,1.3054,1.4127,1.4512,1.5375,1.6937,1.7508,1.8012,1.8293,1.853,1.8638,0.0,1.8789,1.8939,1.9284,1.9424,1.9607,1.9844,1.9844,1.9844,1.9844,1.9844,1.9844,1.9844,1.9844,1.9844,1.9844,1.9844,1.9844,1.9844,0.0,1.9768,1.9639,1.9691,1.9856,1.9859,2.0192,1.863,1.614,1.6309,1.4397,1.1816,1.1816,1.1769,1.1701,1.164,1.1619,1.1763,1.233,1.2617,1.2896,1.3468,1.3753,1.3904,1.3904,1.3904,1.3904,1.3904,1.3904,1.4047,1.4324,1.5493,1.7174,1.9539,2.2125,2.3927,2.3866,2.3808,2.3947,2.4109,2.5402,2.6688,2.7864,2.8683,2.963,3.1092,3.1883,3.2644,3.3642,3.4626,3.5922,3.7583,3.8137,3.8896,3.9878,4.0465,4.1119,4.1789,4.293,4.3882,4.4535,4.5689,4.6344,4.6462,4.7404,4.8218,0.9574,1.0062,1.0721,1.1394,1.1041,1.0816,1.2405,1.2033,1.1497,1.2568,1.284,1.284,1.284,1.284,1.284,1.284,1.2716,1.3103,1.4402,1.5001,1.5843,1.7258,1.8012,1.8444,1.8476,1.8659,1.881,1.8875,1.8875,1.9058,1.9478,1.9531,1.9639,1.9844,1.9844,1.9844,1.9844,1.9844,1.9844,1.9844,1.9844,1.9844,1.9844,1.9844,1.9844,1.9844,1.9844,1.9995,1.9984,2.0065,2.0284,2.041,2.0735,1.902,1.6361,1.6627,1.4851,1.206,1.206,1.1972,1.1837,1.1694,1.1633,1.1763,1.261,1.2896,1.3039,1.3761,1.3904,1.3904,1.3904,1.3904,1.3904,1.3904,1.3904,1.4039,1.4884,1.615,1.8175,2.1539,2.3546,2.4525,2.4203,2.4275,2.466,2.5392,2.7058,2.8496,2.9313,2.963,3.0217,3.1536,3.2758,3.3866,3.4447,3.6402,3.769,3.8161,3.9129,3.9878,4.0262,4.1219,4.1985,4.2447,4.4442,4.5508,4.5689,4.6901,4.7452,4.7482,4.8369,4.9266,0.8419,0.8665,0.9317,1.13,1.0941,1.0677,1.2429,1.2033,1.1497,1.2568,1.284,1.284,1.284,1.284,1.284,1.284,1.3361,1.42,1.5236,1.6099,1.6995,1.8121,1.8293,1.8509,1.8702,1.8756,0.0,0.0,1.9381,1.9413,1.9488,1.9682,1.9811,1.9844,1.9844,1.9844,1.9844,1.9844,1.9844,1.9844,1.9844,1.9844,1.9844,1.9844,1.9844,1.9844,1.9844,0.0,2.0436,2.0402,2.083,2.1417,2.132,1.9561,1.6991,1.6821,1.4851,1.206,1.206,1.2047,1.1999,1.1843,1.1859,1.2194,1.261,1.3039,1.3325,1.3753,1.3904,1.3904,1.3904,1.3904,1.3904,1.3904,1.3904,1.4039,1.4884,1.7539,2.0869,2.3868,2.4829,2.4876,2.454,2.552,2.6068,2.5549,2.7904,2.9601,2.9431,3.0587,3.1998,3.3346,3.3776,3.4781,3.7073,3.7607,3.8267,3.9362,3.9775,4.0465,4.1319,4.1914,4.3054,4.4748,4.5389,4.6166,4.6931,4.7934,4.8407,4.8407,4.9372,5.0042,0.8082,0.8356,0.9036,1.1226,1.0975,1.0704,1.2437,1.2033,1.1497,1.2568,1.284,1.284,1.284,1.284,1.284,1.284,1.3909,1.4907,1.5508,1.6686,1.7749,1.8261,1.8433,1.853,1.8756,1.8896,1.9122,1.9478,1.9607,1.9682,1.9682,1.979,1.9844,1.9844,1.9844,1.9844,1.9844,1.9844,1.9844,1.9844,1.9844,1.9844,1.9844,1.9844,1.9844,1.9844,2.0145,0.0,2.0597,2.0898,2.136,2.1648,2.1829,1.9949,1.7218,1.7114,1.5136,1.2291,1.2291,1.2244,1.2169,1.2387,1.2409,1.2568,1.2764,1.3176,1.3586,1.3785,1.3904,1.3904,1.3904,1.3904,1.3904,1.3904,1.4884,1.6291,1.7679,2.0051,2.2696,2.4645,2.5052,2.5278,2.5753,2.623,2.6971,2.7912,2.9252,3.0319,3.0859,3.2207,3.3346,3.3909,3.467,3.5859,3.7713,3.8502,3.905,3.9697,4.0465,4.1119,4.1789,4.3218,4.447,4.5598,4.6255,4.7076,4.8019,4.8407,4.8872,4.9407,5.0422,5.1205,0.707,0.7737,0.8706,1.0843,1.0711,1.0704,1.2437,1.1769,1.1101,1.2297,1.2437,1.2437,1.2173,1.2305,1.2437,1.2173,1.3403,1.4675,1.5236,1.6589,1.7802,1.8272,1.8433,1.8552,1.8832,1.9036,0.0,1.9553,1.9747,1.9844,1.9844,1.9844,1.9844,1.9844,1.9844,1.9844,1.9844,1.9844,1.9844,1.9844,1.9844,1.9995,1.9995,1.9995,2.0145,2.0156,2.0447,2.0748,0.0,2.151,2.181,2.181,2.2109,2.0274,1.7379,1.7379,1.525,1.2501,1.2501,1.2427,1.2484,1.2782,1.2806,1.2933,1.3096,1.3498,1.3751,1.3866,1.3961,1.3953,1.3912,1.3904,1.3904,1.4039,1.615,1.853,2.019,2.1996,2.3679,2.4916,2.4993,2.5472,2.6776,2.7018,2.7677,3.0039,3.066,3.1269,3.2518,3.3706,3.458,3.4781,3.5859,3.7073,3.8161,3.9154,3.9775,4.0083,4.1119,4.1985,4.2738,4.4535,4.5689,4.6077,4.7076,4.7934,4.8573,4.9109,4.9787,5.0653,5.1811,5.2747,0.4506,0.5515,0.7098,0.9232,1.0035,1.0704,1.2437,1.124,1.0041,1.1101,1.1365,1.1101,1.0041,1.0704,1.0969,1.0041,1.0799,1.2216,1.3883,1.5162,1.6404,1.8142,1.8433,1.8616,1.9068,1.9133,1.9338,1.9779,1.9833,1.9844,1.9844,1.9844,1.9844,1.9844,1.9844,1.9844,1.9844,1.9844,1.9844,1.9844,1.9844,2.0145,2.0447,2.0447,2.0597,2.0921,2.106,2.121,0.0,2.166,2.196,2.2259,2.2259,2.0274,1.7379,1.7379,1.525,1.2501,1.2501,1.2804,1.3098,1.3098,1.3051,1.3252,1.3675,1.4112,1.4375,1.4205,1.4156,1.4115,1.3945,1.3904,1.4039,1.4742,1.6997,1.9228,2.0328,2.1996,2.3679,2.4916,2.4818,2.5011,2.6299,2.7532,2.8782,2.9757,3.1465,3.295,3.3749,3.4246,3.5223,3.7287,3.7607,3.8267,3.9465,3.9594,4.016,4.1319,4.1789,4.293,4.5024,4.5508,4.6166,4.7106,4.8019,4.849,4.8573,5.0787,5.2041,5.2346,5.403,5.4907,0.4174,0.4631,0.5637,0.8035,0.9238,1.0167,1.1497,1.1637,1.1505,1.1233,1.1233,1.0836,0.9775,0.9908,1.0041,0.0,0.0,0.0,1.2506,1.4241,1.5859,1.6997,1.7986,1.8778,1.9112,0.0,1.9499,1.9822,1.9844,1.9844,1.9844,1.9844,1.9844,1.9844,1.9844,1.9844,1.9844,1.9844,1.9844,1.9844,2.0145,2.0296,2.0447,2.0759,2.091,2.1071,2.136,2.151,0.0,2.196,2.2109,2.2259,2.2259,2.0274,1.7379,1.7379,1.5403,1.2811,1.2811,1.312,1.3583,1.3744,1.3961,1.3991,1.4026,1.4295,1.4562,1.4383,1.4326,1.4286,1.4115,1.4264,1.4893,1.6028,1.825,2.019,2.102,2.2835,2.4223,2.4759,2.5141,2.5939,2.7466,2.8639,2.9934,3.1484,3.2752,3.3785,3.4267,3.5663,3.6858,3.7844,3.795,3.8372,3.9594,4.0364,4.1019,4.1591,4.3122,4.4442,4.5389,4.6725,4.7704,4.8103,4.9357,5.0196,5.0755,5.2275,5.3629,5.48,5.5977,5.6948,0.3555,0.3991,0.4836,0.684,0.8302,0.9498,1.0829,1.1497,1.1637,1.0836,1.0704,1.0306,0.8978,0.8978,0.8978,0.0,0.0,1.0067,1.0993,1.2696,1.4429,1.5849,1.7196,1.8443,1.8977,1.9424,1.9671,1.9833,1.9844,1.9844,1.9844,1.9844,1.9844,1.9844,1.9844,1.9844,1.9844,1.9844,1.9995,2.0145,2.0296,2.0597,2.0898,2.121,2.1372,2.1522,2.181,2.181,0.0,2.2109,2.2259,2.2259,2.2259,2.0274,1.7379,1.7531,1.571,1.312,1.3274,1.359,1.3898,1.4368,1.4515,1.4491,1.4365,1.4629,1.4749,1.4562,1.4621,1.4687,1.4513,1.5228,1.6102,1.7449,1.9367,2.1133,2.1893,2.3361,2.4672,2.4964,2.5556,2.6706,2.8694,2.9599,3.0658,3.2464,3.3557,3.4357,3.4914,3.675,3.8056,3.8372,3.8662,3.9287,4.016,4.1119,4.1887,4.2641,4.4442,4.566,4.6285,4.7789,4.8831,4.9264,5.0627,5.1788,5.2864,5.4044,5.5412,5.6888,5.8039,5.9191,0.2241,0.3193,0.4568,0.5637,0.6973,0.8573,1.0697,1.0439,0.9643,0.9643,0.9643,0.8978,0.6853,0.7383,0.7646,0.6719,0.6607,0.0,0.9342,1.0125,1.1715,1.5132,1.6177,1.7126,1.8977,1.9575,1.9844,1.9844,1.9844,0.0,1.9844,1.9844,1.9844,1.9844,1.9844,1.9844,1.9844,1.9844,2.0145,2.0447,2.0447,2.0898,2.166,2.166,2.196,2.2259,2.2259,2.2259,0.0,2.2259,2.2259,2.2259,2.2259,2.0274,1.7379,1.7844,1.5871,1.312,1.3583,1.4053,1.4368,1.4368,1.4669,1.4968,1.496,1.496,1.4927,1.4757,1.5168,1.5571,1.5377,1.6481,1.7857,1.8746,2.034,2.1919,2.2741,2.3757,2.4862,2.5798,2.5945,2.6794,2.9386,3.013,3.0801,3.2133,3.3593,3.4914,3.6077,3.718,3.8372,3.9594,4.0541,4.1319,4.1591,4.1591,4.2641,4.5207,4.5389,4.6373,4.849,4.8573,4.9295,5.0848,5.1752,5.2929,5.4356,5.6128,5.743,5.8394,6.0086,6.1778,0.2274,0.255,0.3228,0.4434,0.5637,0.6969,0.8573,0.9902,1.0306,0.8845,0.9111,0.8978,0.6853,0.6719,0.6853,0.6589,0.6553,0.7087,0.8339,1.0524,1.2634,1.4305,1.6836,1.8602,1.9585,1.9758,1.9844,1.9844,1.9844,1.9844,1.9844,1.9844,1.9844,1.9844,1.9844,1.9844,1.9844,2.0145,2.0447,2.0447,2.1048,2.151,2.166,2.196,2.2109,2.2259,2.2259,2.2259,0.0,2.2259,2.2259,2.2259,2.2259,2.0425,1.7844,1.7996,1.633,1.4053,1.4053,1.4515,1.4814,1.4814,1.4968,1.4968,1.4968,1.4968,1.5105,1.5658,1.5807,1.6098,1.7073,1.7573,1.8,1.9318,2.0646,2.1662,2.2443,2.3261,2.4381,2.5755,2.6554,2.7643,2.9799,3.1015,3.2092,3.3593,3.4891,3.6077,3.718,3.8951,4.0313,4.0642,4.1789,4.2279,4.169,4.3026,4.4349,4.5298,4.6812,4.814,4.922,5.0452,5.1741,5.3278,5.4587,5.5731,5.6685,5.8075,5.9549,6.116,6.2716,6.3969,0.2155,0.2155,0.2423,0.3631,0.4568,0.577,0.724,0.8839,0.9637,0.8307,0.8579,0.8446,0.6853,0.6455,0.6464,0.65,0.6748,0.7287,0.8535,1.0605,1.2738,1.483,1.7378,1.9295,0.0,1.979,1.9844,1.9844,1.9844,1.9844,1.9844,1.9844,1.9844,1.9844,1.9844,1.9844,1.9844,2.0296,2.0597,2.0748,2.136,2.1869,2.2103,2.2157,2.2319,2.2404,2.2307,0.0,0.0,2.2259,2.2259,2.2259,2.2408,2.0737,1.7996,1.8299,1.6788,1.4361,1.4515,1.4814,1.4968,1.4968,1.4968,1.4968,1.4661,1.4968,1.5573,1.6033,1.6554,1.7199,1.8021,1.855,1.8998,2.0296,2.1182,2.1899,2.2655,2.3478,2.4432,2.6257,2.7384,2.8664,3.0684,3.2207,3.348,3.4357,3.5881,3.7263,3.8323,4.0084,4.1419,4.1887,4.3026,4.3614,4.3451,4.449,4.5656,4.6875,4.8536,5.0009,5.136,5.2701,5.4157,5.5647,5.6612,5.7731,5.9076,6.052,6.2071,6.3693,6.4559,6.5403,0.0,0.2155,0.2423,0.3094,0.3765,0.4702,0.6573,0.7507,0.0,0.7912,0.7912,0.7646,0.6719,0.6455,0.6484,0.6574,0.7161,0.7998,0.9553,1.0775,1.2846,1.6337,1.8124,1.9252,1.9499,1.9714,1.9844,1.9844,1.9844,1.9844,1.9844,1.9844,1.9844,1.9844,1.9995,1.9995,1.9995,2.0296,2.0748,2.1222,2.151,2.2091,2.2621,2.2392,2.2416,0.0,0.0,0.0,0.0,2.2295,2.2283,2.2408,2.2707,2.0876,1.8158,1.8916,1.7245,1.4515,1.4814,1.4968,1.4968,1.4968,1.4968,1.4814,1.3891,1.4814,1.6186,1.6186,1.7407,1.8572,1.838,1.9457,2.0604,2.1408,2.2002,2.2697,2.3505,2.4194,2.5219,2.7194,2.8325,2.9747,3.1998,3.3593,3.458,3.4692,3.6642,3.8428,3.9521,4.0666,4.1914,4.3177,4.4247,4.5367,4.6553,4.6094,4.6786,4.9474,5.0429,5.1957,5.4276,5.5085,5.6203,5.7852,5.7963,5.9131,6.1249,6.3055,6.4494,6.559,6.5653,6.61,0.2155,0.0,0.2558,0.3765,0.4166,0.4702,0.0,0.7379,0.7779,0.6987,0.7517,0.7646,0.6719,0.6455,0.6484,0.6574,0.7161,0.8188,1.0221,1.3321,1.6113,1.8176,1.8821,1.9316,1.9725,1.9811,1.9844,1.9844,1.9844,1.9844,1.9844,1.9844,1.9844,1.9844,2.0145,2.0296,2.0296,2.0759,2.121,2.1522,2.196,2.2295,2.2355,2.25,2.2597,0.0,0.0,0.0,2.2561,2.2561,2.2741,2.2707,2.2856,2.1337,1.8916,1.9067,1.7398,1.4814,1.4968,1.4968,1.4968,1.4968,1.4968,1.4814,1.3891,1.4814,1.6186,1.6186,1.7407,1.8764,1.9327,2.0284,2.1198,2.1495,2.2159,2.3022,2.3777,2.4688,2.5994,2.8086,2.9375,3.0781,3.3572,3.4267,3.5135,3.6858,3.8299,3.9546,4.0692,4.2641,4.4199,4.5053,4.6321,4.7792,4.9221,4.8736,4.8961,5.0266,5.1796,5.3214,5.4356,5.5136,5.6525,5.8631,5.9882,6.0834,6.1498,6.267,6.3783,6.4804,6.5334,6.6089,0.2155,0.2155,0.2423,0.3094,0.3765,0.4568,0.5376,0.6447,0.7116,0.6585,0.6987,0.7116,0.6585,0.7116,0.7449,0.6823,0.8651,1.0992,1.3175,1.5804,1.7837,1.8827,1.9079,1.9295,0.0,1.9779,1.9844,1.9844,1.9844,1.9844,1.9844,1.9844,1.9844,1.9844,2.0296,2.0447,2.0447,2.106,2.151,2.166,2.2109,2.2319,2.2452,2.2585,2.2718,0.0,0.0,0.0,2.2826,2.2826,2.3047,2.3228,2.353,2.1919,1.9375,1.9517,1.7626,1.4968,1.4968,1.4968,1.4968,1.4968,1.4661,1.4199,1.3428,1.4653,1.6186,1.6186,1.7711,1.9239,1.9844,2.0911,2.1799,2.1785,2.2876,2.4145,2.4843,2.5766,2.7091,2.9139,3.0217,3.1612,3.4022,3.4914,3.595,3.8048,3.974,4.1258,4.2558,4.436,4.5959,4.6893,4.8207,4.9546,5.0831,5.135,5.1871,5.2333,5.3616,5.4775,5.5922,5.7033,5.8328,5.9848,6.1224,6.1946,6.2147,6.3022,6.3979,6.4986,6.538,6.6025,0.2155,0.2155,0.229,0.2289,0.3362,0.43,0.4437,0.551,0.6455,0.6455,0.6455,0.6585,0.6719,0.7794,0.8309,0.7376,1.0662,1.4042,1.6424,1.7745,1.8573,1.881,1.9025,0.0,1.9521,1.9736,1.9844,1.9844,1.9844,1.9844,1.9844,1.9844,1.9844,1.9844,2.0296,2.0597,2.0597,2.136,2.166,2.181,2.2109,2.238,2.2597,2.2669,2.2838,2.3043,0.0,0.0,2.3104,2.3104,2.3389,2.3816,2.4124,2.2413,1.9748,2.0024,1.8048,1.5,1.4976,1.4968,1.4968,1.5113,1.4507,1.3583,1.2965,1.4345,1.6186,1.6024,1.7864,1.9844,1.9844,2.1308,2.2481,2.2152,2.369,2.5473,2.6133,2.7085,2.8397,3.0176,3.1248,3.2539,3.4666,3.5999,3.7317,3.9199,4.1258,4.311,4.4675,4.6208,4.7536,4.8827,4.997,5.1092,5.2089,5.3592,5.463,5.471,5.5375,5.6315,5.7731,5.922,6.0267,6.0911,6.1866,6.245,6.2541,6.3454,6.4498,6.541,6.5663,6.6207,0.2155,0.2155,0.2289,0.2959,0.3631,0.4437,0.5111,0.5915,0.6455,0.6455,0.6455,0.6719,0.7646,0.7319,0.7314,0.8096,1.1115,1.4032,1.6324,1.7877,1.8821,1.9068,0.0,1.9316,1.9747,1.9822,1.9844,1.9844,1.9844,1.9844,1.9844,1.9844,1.9844,1.9844,2.0609,2.1071,2.1071,2.151,2.181,2.2259,2.2259,2.2283,2.2331,2.2778,2.3007,2.3068,0.0,2.3599,2.3393,2.3393,2.3716,2.4278,2.4278,2.2686,2.0425,2.0231,1.8145,1.5171,1.5017,1.4968,1.5122,1.5727,1.4968,1.3737,1.3575,1.4798,1.6024,1.525,1.7388,1.9844,1.9844,2.1578,2.3159,2.2494,2.447,2.6532,2.7128,2.8236,2.9656,3.1348,3.3339,3.519,3.6952,3.8254,3.9818,4.2031,4.3406,4.4747,4.6139,4.8102,4.9793,5.0756,5.1927,5.3144,5.4562,5.4987,5.5505,5.6282,5.6459,5.6944,5.7763,5.9185,6.0028,6.0159,6.1199,6.1745,6.1803,6.2795,6.378,6.4613,6.5989,6.704,0.2155,0.2155,0.2423,0.3094,0.3765,0.4437,0.5245,0.5919,0.6455,0.6455,0.6455,0.687,0.7993,0.9036,1.0763,1.3793,1.4529,1.558,1.7663,1.8391,1.8735,0.0,0.0,1.9338,1.9801,1.9844,1.9844,1.9844,1.9844,1.9844,1.9844,1.9844,1.9995,2.0296,2.0759,2.1222,2.136,2.181,2.2109,2.2259,2.2259,2.2259,2.2283,2.2802,2.3043,2.3068,0.0,2.378,2.3659,2.383,2.4232,2.4735,2.5049,2.3357,2.0494,1.8281,1.6467,1.5212,1.5025,1.4968,1.5122,1.588,1.4806,1.3274,1.4653,1.5259,1.5557,1.6168,1.8006,1.9844,1.9844,2.1625,2.3459,2.3326,2.5412,2.7908,2.957,3.052,3.1637,3.3498,3.5282,3.6883,3.825,3.9325,4.0906,4.3488,4.472,4.5861,4.7391,4.969,5.13,5.1725,5.3301,5.4548,5.528,5.5716,5.6381,5.7256,5.7331,5.7814,5.8909,5.9679,6.0227,6.0574,6.127,6.1774,6.2206,6.3342,6.4468,6.5736,6.6895,6.7873,0.2155,0.2155,0.2423,0.3094,0.3765,0.4437,0.5245,0.5919,0.6589,0.6853,0.687,0.7319,0.8507,1.0612,1.3617,1.7623,1.7096,1.6774,1.8852,1.8735,1.8595,1.9015,1.9112,1.9316,1.9725,1.9811,1.9844,1.9844,1.9844,1.9844,1.9844,1.9844,2.0145,2.0447,2.091,2.1222,2.166,2.2109,2.2259,2.2259,2.2259,2.2259,2.2283,2.2802,2.3043,2.3068,2.3611,2.384,2.4012,2.4332,2.4811,2.5289,2.5594,2.3806,2.0496,1.6713,1.5309,1.522,1.5082,1.5154,1.542,1.6186,1.5113,1.3729,1.588,1.6024,1.571,1.7093,1.8623,1.9995,2.0296,2.1924,2.3793,2.4434,2.6863,2.9456,3.1601,3.2542,3.3535,3.5687,3.714,3.8447,3.9636,4.0793,4.2424,4.4699,4.5836,4.7131,4.8977,5.1143,5.2634,5.2869,5.4537,5.5716,5.5843,5.6536,5.7331,5.8212,5.8283,5.8841,5.9937,6.0164,6.0538,6.1152,6.1803,6.2479,6.3055,6.4535,6.5881,6.7112,6.809,6.8887,0.2155,0.2155,0.2423,0.3094,0.3765,0.4437,0.5245,0.5919,0.6719,0.7646,0.7993,0.8507,0.9584,1.1005,1.2763,1.5218,1.586,1.6774,1.8852,0.0,1.853,1.8778,1.9015,1.9252,1.9499,1.9714,1.9844,1.9844,1.9844,1.9844,1.9844,1.9844,2.0145,2.0447,2.091,2.1222,2.166,2.2109,2.2259,2.2259,2.2259,2.2259,2.2283,2.2802,2.3043,2.3068,2.3611,2.4012,2.4492,2.4492,2.497,2.5753,2.5753,2.3806,2.0538,1.7012,1.5528,1.5236,1.5228,1.5571,1.6186,1.7102,1.6635,1.6186,1.7102,1.7255,1.7245,1.7407,1.8623,2.0145,2.1187,2.2955,2.4864,2.5876,2.8759,3.1493,3.215,3.3497,3.5154,3.7493,3.8963,4.0287,4.147,4.3614,4.5328,4.6085,4.7327,4.9005,5.1236,5.2723,5.3859,5.4952,5.5988,5.6877,5.7594,5.7668,5.8353,5.9744,5.9809,5.9873,6.0001,6.0635,6.1093,6.127,6.2938,6.3847,6.413,6.6582,6.78,6.7945,6.9502,7.0263,0.2155,0.2558,0.2825,0.3094,0.4034,0.5111,0.5379,0.5919,0.6585,0.6982,0.7733,0.9136,1.1761,1.3798,1.565,1.6927,1.7655,1.8207,1.8795,1.8638,1.8519,1.8756,1.9004,1.9241,1.9478,1.9714,1.9844,1.9844,1.9844,1.9844,1.9844,2.0145,2.0447,2.091,2.121,2.166,2.2109,2.2259,2.2259,2.2259,2.2259,2.2259,2.2283,2.2802,2.3043,2.3068,2.3611,2.4012,2.4492,2.4811,2.5289,2.5581,2.3644,2.2133,2.074,1.7091,1.5691,1.5536,1.5317,1.5655,1.6507,1.7139,1.6797,1.6492,1.8319,1.8168,1.7559,1.8623,1.939,2.0145,2.1325,2.3103,2.5011,2.6634,2.9534,3.2226,3.3595,3.495,3.6557,3.9001,4.0253,4.1481,4.3472,4.4826,4.6084,4.7861,4.8938,5.014,5.182,5.3569,5.4787,5.5198,5.6581,5.752,5.7814,5.8633,5.9415,5.9937,6.0001,6.0227,6.0696,6.1437,6.2117,6.2761,6.4016,6.5238,6.6368,6.7994,6.8995,6.9502,7.098,7.1633,0.2155,0.2558,0.2963,0.3382,0.3924,0.447,0.4898,0.5833,0.6492,0.6517,0.8433,1.0953,1.3621,1.5457,1.687,1.7712,1.8559,1.9068,1.8821,1.8584,1.8498,1.8659,1.8885,1.9122,1.937,1.9596,1.9768,1.9844,1.9844,1.9844,1.9844,2.0296,2.0748,2.1071,2.151,2.196,2.2259,2.2259,2.2259,2.2259,2.2259,2.2259,2.2283,2.2802,2.3043,2.3068,2.3611,2.4172,2.4652,2.497,2.5448,2.574,2.251,2.1222,2.0716,1.7188,1.5821,1.5731,1.5431,1.5912,1.6915,1.732,1.7407,1.7711,1.939,1.9077,1.8471,1.9542,2.0145,2.0737,2.2211,2.3684,2.5583,2.7924,3.0785,3.3327,3.459,3.5976,3.7668,4.0125,4.1067,4.2192,4.4794,4.5753,4.692,4.9064,5.0212,5.1361,5.2869,5.4369,5.5523,5.6001,5.7114,5.8031,5.8424,5.938,6.0206,6.0705,6.0741,6.0928,6.1486,6.2545,6.3453,6.4136,6.555,6.692,6.8222,6.9539,7.0459,7.1065,7.2129,7.252,0.2155,0.2155,0.2567,0.3974,0.3293,0.2614,0.3904,0.5391,0.6445,0.6513,1.0494,1.4032,1.4493,1.5134,1.5946,1.6983,1.8265,1.9058,1.881,1.8584,1.8433,1.8433,1.8649,1.8885,1.9133,1.937,1.9596,1.9833,1.9844,1.9844,1.9844,2.0296,2.0748,2.1071,2.1522,2.196,2.2259,2.2259,2.2259,2.2259,2.2259,2.2259,2.2283,2.2802,2.3043,2.308,2.3611,2.4332,2.513,2.513,2.5607,2.607,2.251,2.1222,2.0737,1.7346,1.5934,1.5748,1.5577,1.6494,1.769,1.7473,1.8471,1.9844,1.9844,1.9844,1.9844,1.9844,2.0737,2.2073,2.4127,2.5144,2.6445,2.9663,3.277,3.4865,3.4865,3.6654,3.8798,4.0932,4.1443,4.2323,4.5021,4.6679,4.8097,4.9592,5.1176,5.29,5.4736,5.5231,5.5922,5.7668,5.7814,5.8424,5.9908,6.0036,6.0705,6.2235,6.2307,6.2307,6.2307,6.399,6.4972,6.5118,6.7642,6.9018,6.9274,7.1363,7.2386,7.2443,7.296,7.2906,0.2187,0.22,0.2355,0.2782,0.4038,0.4899,0.3147,0.4834,0.7085,0.8811,1.0462,1.2466,1.5261,1.578,0.0,1.7507,1.8321,1.881,1.8573,1.8476,1.8498,1.8659,1.8896,1.9133,1.937,1.9607,1.9768,1.9844,1.9844,1.9995,2.0296,2.0759,2.106,2.151,2.196,2.2109,2.2259,2.2259,2.2259,2.2259,2.2259,2.2355,2.2549,2.2887,2.3152,2.3357,2.4013,2.4652,2.513,2.5766,2.5422,2.4295,2.2028,2.0403,1.9115,1.6854,1.6016,1.5918,1.5618,1.6581,1.7732,1.752,1.8471,1.9844,1.9844,1.9844,1.9844,1.9844,2.1176,2.2942,2.485,2.6605,2.8341,3.0926,3.3327,3.5139,3.584,3.7595,3.9539,4.1115,4.1504,4.2793,4.6107,4.7411,4.8696,5.0832,5.2927,5.4621,5.602,5.6658,5.7264,5.7741,5.8703,5.9757,6.0774,6.1325,6.2302,6.3841,6.4448,6.4582,6.4169,6.5197,6.6571,6.8356,6.969,7.0893,7.2041,7.2242,7.2386,7.2443,7.296,7.3082,0.2218,0.2229,0.2524,0.3808,0.553,0.6312,0.4722,0.5733,0.8052,1.1347,1.2203,1.3214,1.6153,1.671,0.0,1.7713,1.8507,1.8845,1.8466,1.8519,1.8627,1.8767,1.9004,1.9241,1.9478,1.9628,1.9747,1.9844,1.9844,2.0145,2.0447,2.091,2.1222,2.166,2.2109,2.2259,2.2259,2.2259,2.2259,2.2259,2.2259,2.2452,2.2814,2.2971,2.3344,2.3781,2.4685,2.513,2.5448,2.607,2.5422,2.3656,2.1867,2.0079,1.8463,1.6689,1.6048,1.6008,1.6038,1.6845,1.7983,1.7952,1.8856,1.9844,1.9844,1.9844,1.9844,1.9844,2.1613,2.3819,2.5277,2.7475,2.9806,3.207,3.3762,3.5139,3.6248,3.7999,3.9682,4.0842,4.1828,4.3362,4.6384,4.7976,4.9735,5.2032,5.4285,5.5941,5.6603,5.7331,5.8061,5.8621,5.9765,6.1043,6.2428,6.2915,6.3877,6.5447,6.6046,6.6495,6.6863,6.733,6.8291,6.99,7.0725,7.1582,7.252,7.2632,7.2687,7.2743,7.3529,7.3725,0.2249,0.2249,0.3104,0.6158,0.6966,0.7092,0.7469,0.7902,0.9516,1.4088,1.5051,1.5396,1.694,1.7567,1.7941,1.7986,1.8475,1.8692,1.8487,1.8649,1.8953,1.8997,1.9047,1.9273,1.951,1.9531,1.9618,1.9833,1.9844,2.0145,2.0597,2.091,2.136,2.166,2.2109,2.2259,2.2259,2.2259,2.2259,2.2259,2.2408,2.2688,2.3043,2.3043,2.3512,2.4277,2.5319,2.5753,2.5911,2.6228,2.5263,2.3336,2.1867,2.0089,1.8137,1.6525,1.6048,1.6188,1.6811,1.7412,1.8012,1.8737,1.9427,1.9844,1.9844,1.9844,1.9844,1.9995,2.236,2.4864,2.5716,2.8197,3.1101,3.2927,3.4176,3.5275,3.6459,3.8199,3.9781,4.0532,4.2345,4.4173,4.6164,4.8623,5.1023,5.319,5.5361,5.6834,5.6834,5.7588,5.8692,6.0117,6.1037,6.2428,6.4634,6.484,6.5518,6.7153,6.7354,6.8191,6.9957,6.9893,7.0021,7.0346,7.1195,7.1682,7.183,7.2743,7.3224,7.329,7.4312,7.4525,0.2281,0.2296,0.3043,0.6176,0.719,0.7452,0.749,1.0627,1.3655,1.4798,1.4935,1.5176,1.5471,1.7327,1.8812,1.8784,1.867,1.841,1.8386,1.8756,1.9083,1.9295,1.9391,1.9521,1.9747,1.9768,1.979,1.9844,1.9844,2.0156,2.091,2.1071,2.136,2.2109,2.2259,2.2259,2.2259,2.2259,2.2259,0.0,2.2558,2.2839,2.3043,2.3043,2.3778,2.4882,2.5568,2.5911,2.6228,2.6386,2.4614,2.1706,2.1383,1.9277,1.6525,1.6205,1.6048,1.6188,1.6811,1.7412,1.8012,1.8737,1.9427,1.9844,1.9844,1.9844,2.0145,2.1037,2.3239,2.573,2.6765,2.9774,3.2927,3.4176,3.4727,3.5588,3.8157,3.9633,4.0632,4.1329,4.3099,4.5154,4.729,4.9647,5.2267,5.5442,5.6844,5.752,5.752,5.9288,6.0799,6.1733,6.3029,6.4607,6.6339,6.6482,6.7225,6.8893,6.9066,6.9813,7.1526,7.0625,7.0859,7.2502,7.2333,7.2852,7.4177,7.3529,7.3391,7.3832,7.4056,7.4101,0.2328,0.2341,0.31,0.6473,0.7321,0.8157,1.0514,1.3091,1.5041,1.5009,1.5072,1.4949,1.4927,1.7016,1.8902,1.9129,1.8681,1.8343,1.8449,1.8982,1.9533,1.9626,1.9607,1.9714,1.9833,1.9844,1.9844,1.9844,2.0145,2.0447,2.1071,2.1222,2.166,2.2259,2.2259,2.2259,2.2259,2.2259,2.2408,2.2558,2.2856,2.3141,2.3674,2.3934,2.4535,2.5448,2.5911,2.6228,2.6386,2.6386,2.4283,2.1222,2.1222,1.9115,1.6048,1.6048,1.6048,1.6196,1.7394,1.7815,1.8179,1.9325,1.9828,1.9844,1.9844,1.9844,2.0296,2.1763,2.3819,2.6008,2.7635,3.0643,3.3484,3.459,3.5275,3.638,3.8809,3.998,4.0935,4.2409,4.4215,4.637,4.8566,5.1546,5.4498,5.6887,5.8191,5.9037,5.9413,6.1154,6.2771,6.3896,6.506,6.6375,6.798,6.8349,6.9074,7.0482,7.0869,7.1441,7.2446,7.1908,7.2078,7.3187,7.296,7.3224,7.4093,7.3774,7.3736,7.4009,7.4274,7.467,0.2371,0.2682,0.3904,0.6739,0.7552,0.8664,1.2824,1.4439,1.5057,1.4984,1.499,1.4985,1.4869,1.6764,1.8496,1.8964,1.8667,1.8401,1.8587,1.9409,1.9839,1.9872,1.9886,1.9844,1.9844,1.9844,1.9844,1.9844,2.0296,2.0748,2.1071,2.151,2.181,2.2259,2.2259,2.2283,2.2331,2.2481,2.2655,2.2992,2.3192,2.3783,2.4752,2.5123,2.5487,2.5753,2.6228,2.6386,2.6386,2.607,2.4123,2.1222,2.0899,1.8799,1.6048,1.6048,1.6048,1.6542,1.8164,1.8409,1.8404,2.0106,2.0264,1.9908,1.9865,1.9844,2.0285,2.2496,2.4409,2.6154,2.8357,3.1051,3.3568,3.4496,3.5995,3.7483,3.9194,4.0163,4.1275,4.3273,4.5688,4.8254,5.0679,5.4158,5.702,5.8395,5.9803,6.0982,6.1779,6.3168,6.4662,6.6107,6.7034,6.8076,6.9506,7.0037,7.076,7.1684,7.2291,7.2706,7.306,7.329,7.3429,7.3479,7.3327,7.3327,7.3479,7.3832,7.4131,7.4372,7.488,7.5539,0.2229,0.453,0.6915,0.7395,0.7439,0.7636,0.8407,1.1863,1.5025,1.4976,1.499,1.4793,1.4096,1.6471,1.8363,1.8524,1.8496,1.8706,1.9539,1.9785,1.9894,1.993,1.9833,1.9844,1.9844,1.9844,1.9844,1.9844,2.0296,2.0748,2.1071,2.151,2.181,2.2259,2.2259,2.2367,2.2597,2.3052,2.3327,2.3562,2.425,2.501,2.6122,2.6134,2.5987,2.5753,2.6228,2.6386,2.6228,2.4773,2.3003,2.106,1.9592,1.7819,1.6048,1.6048,1.6542,1.7363,1.8328,1.8989,1.9563,2.0316,2.0382,2.0124,1.9908,1.9844,2.0586,2.3536,2.4997,2.6445,2.9377,3.1983,3.3779,3.4237,3.6872,3.9537,4.022,4.0555,4.1398,4.4079,4.7797,5.1759,5.5601,5.7421,5.9167,6.1418,6.2475,6.3339,6.4146,6.5601,6.6851,6.7705,6.8909,6.9957,7.0858,7.1402,7.1888,7.2406,7.252,7.3013,7.3832,7.3879,7.4139,7.4649,7.3677,7.3677,7.4691,7.4229,7.4651,7.5835,7.5876,7.6411,0.2423,0.3533,0.5136,0.7007,0.7493,0.7505,0.7484,1.1405,1.5049,1.5009,1.5007,1.4818,1.4034,1.6398,1.8592,1.9181,1.9198,1.9381,1.9807,1.9927,1.9886,1.9833,1.9844,1.9844,1.9844,1.9844,1.9844,1.9844,2.0458,2.091,2.1071,2.166,2.2181,2.2476,2.2476,2.2609,2.2862,2.3335,2.3844,2.4431,2.5037,2.5792,2.64,2.652,2.6426,2.6307,2.6467,2.6547,2.6228,2.4455,2.2843,2.106,1.9277,1.7492,1.6048,1.6048,1.6542,1.7527,1.8328,1.917,1.9763,2.0326,2.0404,2.0167,1.9919,2.0296,2.1475,2.4409,2.5576,2.6717,3.0128,3.2116,3.3591,3.449,3.7027,3.9434,4.0409,4.1422,4.3447,4.7564,5.1136,5.446,5.7526,5.9515,6.1208,6.2753,6.4418,6.5769,6.655,6.7796,6.8974,6.9764,7.0572,7.121,7.1573,7.2034,7.2556,7.3029,7.3275,7.3763,7.4444,7.4487,7.4611,7.4895,7.4438,7.4394,7.4895,7.5064,7.548,7.6107,7.66,7.7282,0.247,0.2492,0.3292,0.6591,0.7533,0.7521,0.7501,1.0474,1.3465,1.4716,1.5048,1.49,1.4342,1.6694,1.9043,1.9735,1.9911,1.9905,1.9905,1.9897,1.9844,1.9844,1.9844,1.9844,1.9844,1.9844,1.9844,1.9844,2.0609,2.1094,2.1163,2.1905,2.2476,2.2742,2.2754,2.2874,2.314,2.368,2.4494,2.5268,2.5803,2.6253,2.6613,2.6841,2.6974,2.7041,2.6894,2.6373,2.5685,2.384,2.2189,2.0413,1.8626,1.7173,1.6048,1.6048,1.6698,1.7846,1.8491,1.9209,2.0154,2.0505,2.0447,2.0242,1.9941,2.0425,2.1727,2.4489,2.5608,2.684,3.0333,3.233,3.3727,3.4774,3.7419,4.0073,4.1294,4.2946,4.5549,5.0261,5.3407,5.6048,5.8336,6.0523,6.2544,6.4386,6.6261,6.7802,6.8587,6.962,7.0518,7.1131,7.1732,7.2094,7.2094,7.265,7.3141,7.3579,7.3991,7.4394,7.4854,7.5122,7.5198,7.5198,7.5425,7.5425,7.5198,7.6032,7.6562,7.6752,7.7396,7.8154,0.2503,0.2511,0.3295,0.6598,0.7542,0.7529,0.7501,0.7636,0.9181,1.4068,1.4984,1.4927,1.4999,1.7548,1.9778,1.9828,1.9843,1.9833,1.9833,1.9844,1.9844,1.9844,1.9844,1.9844,1.9844,1.9844,1.9844,1.9844,2.0609,2.1174,2.1402,2.2177,2.2754,2.3019,2.3019,2.3152,2.343,2.4477,2.5396,2.6346,2.636,2.6667,2.7228,2.7241,2.7388,2.7615,2.7068,2.5834,2.4166,2.2117,2.0241,1.8626,1.6854,1.6048,1.6048,1.6048,1.7191,1.8654,1.8654,1.9795,2.1179,2.0716,2.0554,2.0457,1.9994,1.993,2.0579,2.3171,2.4766,2.6459,2.9691,3.2552,3.4793,3.5062,3.8787,4.2673,4.3869,4.5239,4.7102,5.0417,5.3481,5.6108,5.8522,5.9898,6.2335,6.7153,6.8418,6.9162,7.0264,7.0806,7.1167,7.1204,7.2071,7.2686,7.2686,7.3283,7.3826,7.4076,7.4305,7.4606,7.4895,7.5653,7.6032,7.6032,7.6865,7.6865,7.6032,7.6903,7.7737,7.8457,7.8533,7.8988,0.2511,0.2512,0.2825,0.3925,0.5965,0.7533,0.7521,0.7493,0.8871,1.3944,1.5009,1.4944,1.5007,1.7663,1.9854,1.9897,1.9951,1.9844,1.9844,1.9844,1.9844,1.9844,1.9844,1.9844,1.9844,1.9844,2.0071,2.0527,2.0995,2.1567,2.2117,2.2591,2.3031,2.3297,2.3309,2.3756,2.4502,2.492,2.5607,2.6386,2.6386,2.66,2.6987,2.7175,2.7428,2.7682,2.7482,2.6182,2.4028,2.2296,2.0375,1.8463,1.6689,1.6048,1.6048,1.6706,1.7682,1.8818,1.9307,2.0292,2.1222,2.0888,2.0684,2.05,2.0177,2.0664,2.1781,2.3318,2.5063,2.755,3.2138,3.3638,3.4754,3.6959,3.9579,4.2471,4.616,4.7217,4.8776,5.2617,5.4925,5.7362,6.1104,6.2979,6.4918,6.7717,6.9113,7.0231,7.1051,7.1319,7.156,7.2094,7.2742,7.3162,7.3162,7.3527,7.3875,7.4076,7.435,7.4833,7.5653,7.5956,7.6373,7.6941,7.7737,7.7775,7.6941,7.7775,7.8306,7.8609,7.9177,7.9594,0.2514,0.2514,0.2512,0.2511,0.4236,0.6118,0.7221,0.7505,0.8886,1.3966,1.5033,1.496,1.5015,1.7721,1.9973,1.9865,1.9844,1.9844,1.9844,1.9844,1.9844,1.9844,1.9844,1.9876,1.9962,2.0125,2.0375,2.0935,2.1562,0.0,2.2541,2.3021,2.3309,2.3575,2.3745,2.4147,2.513,2.5289,2.5753,2.6386,2.6386,2.6547,2.6827,2.7134,2.7428,2.7709,2.7122,2.5662,2.3341,2.2266,2.0129,1.7656,1.6534,1.6048,1.6048,1.7035,1.801,1.8818,1.9632,2.0617,2.1243,2.0985,2.0802,2.0619,2.0307,2.0765,2.1507,2.2337,2.5352,2.9639,3.4784,3.5661,3.6002,3.8832,3.9831,4.1437,4.6547,4.7616,4.895,5.3411,5.6094,5.9383,6.482,6.7228,6.8676,6.9752,7.057,7.1313,7.1775,7.1838,7.2115,7.265,7.3108,7.3372,7.3372,7.3728,7.3971,7.4076,7.4702,7.5334,7.6069,7.6638,7.7207,7.7775,7.8609,7.8761,7.823,7.8761,7.9026,7.9064,7.9632,7.9984,0.0,0.0,0.0,0.2511,0.251,0.3448,0.6747,0.7513,0.8905,1.3811,1.4895,1.4992,1.5023,1.7721,1.9973,1.9865,1.9844,1.9844,1.9844,1.9844,1.9854,1.9854,1.9854,1.9951,2.0199,2.0682,2.0935,2.1179,2.1969,2.2553,2.2823,2.3151,2.3575,2.384,2.4332,2.4652,2.513,2.5594,2.607,2.6386,2.6386,2.6533,2.6814,2.7121,2.7415,2.7529,2.6111,2.4059,2.2078,2.1685,1.9483,1.6056,1.6048,1.6048,1.6048,1.7035,1.801,1.8818,1.9795,2.0617,2.1243,2.0996,2.091,2.0813,2.0371,2.0059,1.9919,1.9981,2.5665,3.2576,3.7055,3.815,3.8616,4.0456,3.9651,3.9891,4.5337,4.6727,4.8207,5.2872,5.7029,6.2133,6.9243,7.2085,7.3289,7.3333,7.2787,7.2413,7.2413,7.2606,7.2742,7.2742,7.3162,7.3372,7.3372,7.3875,7.416,7.416,7.5399,7.6145,7.6183,7.7737,7.8609,7.8647,7.9481,7.9898,7.9898,7.9898,7.9898,7.9898,7.9898,8.0072,0.2514,0.0,0.0,0.0,0.0,0.0,0.7228,0.7517,0.7963,0.9221,1.2508,1.5,1.5056,1.775,1.9973,1.9865,1.9844,1.9844,1.9844,1.9844,2.0071,2.0419,2.0277,2.021,2.0447,2.0935,2.1335,0.0,2.2391,2.2981,2.356,2.3572,2.3768,2.384,2.4332,2.4652,2.513,2.5594,2.607,2.6386,2.6386,2.6426,2.652,2.6814,2.6431,2.5384,2.5155,2.3315,2.0308,2.0091,1.8551,1.6219,1.6097,1.6048,1.6205,1.7682,1.8491,1.8981,2.0455,2.1114,2.1265,2.12,2.105,2.0877,2.0928,2.0472,2.0447,2.329,2.77,3.2399,3.5678,3.736,3.8784,4.1274,4.2976,4.5386,5.0408,5.5529,5.9494,6.0804,6.2022,6.4449,6.9575,7.0949,7.1283,7.1319,7.2318,7.2948,7.2449,7.289,7.3215,7.3215,7.332,7.3476,7.3665,7.4533,7.5154,7.5336,7.6393,7.732,7.7889,7.8344,7.8912,7.9519,7.9784,7.9898,7.9898,7.9898,7.9898,7.9898,8.0113,8.0316,0.0,0.0,0.0,0.2514,0.0,0.0,0.7232,0.7529,0.7509,0.7497,0.9837,1.2488,1.4621,1.7702,1.9838,1.9885,1.9928,1.9938,1.9853,1.9917,2.0035,2.0515,2.0692,2.0779,2.0998,2.1334,2.1907,2.2634,2.2976,2.3365,2.384,2.384,2.384,2.384,2.4492,2.4811,2.513,2.5753,2.6228,2.6386,2.6386,2.6386,2.64,2.6694,2.5989,2.4435,2.403,2.2331,1.9675,1.8533,1.7466,1.6284,1.6113,1.6213,1.6706,1.8164,1.8981,1.9469,2.079,2.1276,2.1276,2.1276,2.1179,2.1028,2.1228,2.3368,2.6101,2.8462,3.1446,3.4481,3.5927,3.7319,3.853,4.0145,4.5805,5.2156,5.6868,6.1948,6.574,6.5685,6.6033,6.7226,7.0529,7.1158,7.142,7.1648,7.2642,7.3275,7.2888,7.3182,7.3372,7.3372,7.367,7.3945,7.4099,7.5245,7.5972,7.6112,7.7263,7.8116,7.8571,7.895,7.9367,7.9898,7.9898,7.9984,8.0072,8.0072,8.0116,8.0237,8.0503,8.0716,0.0,0.0,0.0,0.0,0.2669,0.0,0.6598,0.7389,0.7542,0.7517,0.7521,0.8925,1.345,1.6769,1.9159,1.9874,2.0001,2.0032,2.012,2.0093,2.0231,2.0597,2.11,2.1357,2.1567,2.2055,2.2464,2.3187,2.352,2.384,2.384,2.384,2.384,2.384,2.4652,2.513,2.513,2.5924,2.6386,2.6386,2.6386,2.6386,2.64,2.6494,2.5638,2.4105,2.2485,2.1029,1.9498,1.74,1.6479,1.6316,1.6121,1.6542,1.7527,1.8328,1.9307,2.013,2.0952,2.1276,2.1276,2.1276,2.1276,2.1222,2.1239,2.7208,3.3751,3.3683,3.5577,3.7358,3.7129,3.7733,3.846,3.8806,4.835,5.8549,6.3083,6.593,6.7724,6.8009,6.8759,6.9852,7.1576,7.2089,7.2569,7.3182,7.3276,7.332,7.332,7.3372,7.341,7.3521,7.4153,7.4688,7.4815,7.6019,7.6751,7.6846,7.805,7.8723,7.8723,7.9481,7.9898,7.9898,7.9941,8.0113,8.0392,8.0354,8.0467,8.0716,8.0977,8.1099,0.0,0.0,0.0,0.0,0.0,0.0,0.6125,0.6956,0.7635,0.7631,0.7676,0.8029,0.8969,1.139,1.4797,2.0169,2.1014,2.1047,2.1045,2.1034,2.1133,2.1162,2.1184,2.1442,2.1823,2.2327,2.2671,2.3199,2.352,2.384,2.384,2.384,2.4,2.4332,2.4811,2.5289,2.5594,2.607,2.6386,2.6386,2.6386,2.6386,2.6386,2.4996,2.3655,2.2255,2.0477,1.9029,1.7597,1.6894,1.656,1.6495,1.617,1.6542,1.7527,1.8328,1.9307,2.013,2.0952,2.1276,2.1276,2.1276,2.1276,2.1265,2.1362,2.7127,3.3701,3.3374,3.4812,3.6578,3.7708,3.8688,3.9801,4.2172,5.0259,5.8502,6.3078,6.4441,6.5461,6.7669,6.872,6.9875,7.1624,7.1806,7.1874,7.2473,7.2757,7.2853,7.2853,7.3162,7.3632,7.4301,7.4487,7.5068,7.6106,7.7078,7.7805,7.817,7.9096,7.9632,7.9632,7.9822,7.9898,7.9898,8.0075,8.0467,8.0946,8.075,8.0646,8.0716,8.0977,8.1099,0.0,0.0,0.0,0.2533,0.0,0.0,0.0,0.6418,0.7087,0.7733,0.7923,0.794,0.7919,0.9401,1.1535,1.4777,1.874,2.1372,2.1359,2.1293,2.1304,2.1253,2.1264,2.1468,2.2234,2.2406,2.2889,2.3532,2.368,2.384,2.384,2.384,2.4012,2.4492,2.4811,2.5289,2.5753,2.6228,2.6386,2.6386,2.6386,2.5911,2.5104,2.4136,2.2633,2.0427,1.9596,1.8488,1.7088,1.6828,1.6665,1.6544,1.6684,1.7191,1.8174,1.8981,1.9967,2.079,2.1114,2.1276,2.1276,2.1276,2.1276,2.1265,2.1362,2.5753,3.1383,3.3926,3.5339,3.6846,4.0158,4.2136,4.37,4.614,5.2154,5.8549,6.3058,6.3966,6.4638,6.6718,6.7948,6.9171,7.0654,7.1362,7.1962,7.2757,7.2982,7.3017,7.3017,7.3713,7.4316,7.4561,7.5341,7.6133,7.6955,7.7929,7.8623,7.904,7.9589,7.9984,8.0113,8.0113,8.0157,8.0315,8.0576,8.0849,8.1099,8.1099,8.1099,8.1099,8.1253,8.1308,0.0,0.0,0.0,0.0,0.0,0.4502,0.0,0.0,0.0,0.7827,0.8002,0.8174,0.8156,0.8689,0.9375,0.984,1.5396,1.9722,2.0222,2.0333,0.0,2.1276,2.1438,2.1761,2.2567,2.2728,2.305,2.368,2.384,2.384,2.384,2.384,2.4012,2.4652,2.497,2.5289,2.5911,2.6228,2.6386,2.6386,2.6386,2.5422,2.3816,2.3484,2.1785,1.9212,1.8744,1.8119,1.7047,1.6909,1.6747,1.6883,1.7225,1.7882,1.8818,1.9632,2.0455,2.1276,2.1276,2.1276,2.1276,2.1276,2.161,2.2084,2.2773,2.5306,2.9123,3.4451,3.6109,3.7289,4.2462,4.5462,4.7642,4.9263,5.3502,5.8545,6.2996,6.402,6.4514,6.617,6.7368,6.8399,6.9394,7.0834,7.2217,7.3215,7.3372,7.341,7.341,7.4153,7.471,7.4821,7.6159,7.725,7.7714,7.8654,7.9321,7.96,7.9903,8.0157,8.0354,8.0354,8.0503,8.0783,8.1008,8.1128,8.1157,8.1388,8.1504,8.1504,8.1504,8.1504,0.0,0.0,0.0,0.0,0.3868,0.0,0.0,0.0,0.7753,0.7921,0.0,0.8032,0.8032,0.0,0.0,1.1346,1.2853,1.4361,1.6344,1.6664,1.781,2.0952,2.1599,2.2084,2.2567,2.3199,2.368,2.384,2.384,2.384,2.384,2.384,2.416,2.497,2.513,2.5448,2.6386,2.6386,2.6386,2.6386,2.6386,2.5422,2.3816,2.2189,2.0548,1.8828,1.7509,1.6861,1.6885,1.686,1.7262,1.7748,1.7688,1.7991,1.8818,1.9287,2.0282,2.1276,2.1276,2.1276,2.1276,2.1276,2.2786,2.5097,2.7773,2.8475,2.9153,3.4221,3.5849,3.7251,4.2247,4.6277,4.9047,4.9546,5.3585,5.855,6.3033,6.3989,6.479,6.7398,6.8044,6.815,6.8302,7.0289,7.2279,7.3231,7.3372,7.341,7.3379,7.349,7.4084,7.5493,7.629,7.7266,7.8566,7.9143,7.9665,8.0159,8.0467,8.0646,8.0681,8.0681,8.0783,8.1039,8.1069,8.1224,8.1453,8.1478,8.1504,8.1504,8.1504,8.1504,0.0,0.0,0.0,0.0,0.0,0.0,0.5297,0.0,0.8007,0.0,0.0,0.0,0.0,0.0,0.0,0.0,1.1712,1.3197,1.4368,1.535,1.6992,1.945,0.0,0.0,2.2717,2.352,2.384,2.384,2.384,2.384,2.384,2.4012,2.4492,2.513,2.5289,2.5753,2.6386,2.6386,2.6386,2.6386,2.5422,2.3964,2.2189,2.0565,1.8903,1.7302,1.6833,1.6682,1.686,1.748,1.7871,1.7926,1.9016,1.9269,1.9297,2.0282,2.0941,2.1276,2.1276,2.1276,2.1276,2.1276,2.1945,2.3419,2.6122,2.6716,2.7591,3.3566,3.5924,3.7991,4.4051,4.7914,5.0883,5.3342,5.6564,6.0268,6.4352,6.5867,6.6975,6.8995,7.006,7.0637,7.0645,7.1818,7.292,7.3342,7.341,7.3394,7.3379,7.5081,7.6121,7.5827,7.6884,7.7936,7.8766,7.9114,7.9507,8.0034,8.0467,8.0783,8.0946,8.1069,8.1224,8.1335,8.1335,8.1362,8.1504,8.1504,8.1504,8.1504,8.1504,8.1504,0.2557,0.0,0.0,0.0,0.0,0.0,0.0,0.0,0.0,0.0,0.0,0.0,0.0,0.0,0.0,0.0,0.0,1.2216,1.2554,1.3707,1.5342,1.7638,1.8454,0.0,0.0,2.2705,2.3027,2.3027,2.352,2.384,2.4012,2.4332,2.4811,2.5289,2.5594,2.5911,2.6386,2.6386,2.6386,2.6386,2.4614,2.2843,2.1222,1.943,1.7763,1.6316,1.6503,1.6682,1.686,1.8026,1.8406,1.8434,1.9893,1.995,1.9277,2.08,2.0617,1.9745,1.8741,1.9602,2.1308,2.1286,2.1599,2.2406,2.4773,2.5872,2.7549,3.4082,3.6717,3.9372,4.6053,4.9418,5.2204,5.6534,5.947,6.2326,6.5853,6.776,6.9157,7.0639,7.1756,7.2507,7.2629,7.3039,7.3403,7.3416,7.3432,7.3713,7.462,7.6807,7.7811,7.6624,7.7608,7.8383,7.8604,7.8963,7.9399,8.0159,8.0643,8.1008,8.1186,8.1427,8.1504,8.1504,8.1504,8.1504,8.1504,8.1504,8.1478,8.1478,8.1478,8.1504,0.0,0.0,0.0,0.2639,0.0,0.0,0.0,0.0,0.806,0.0,0.0,0.0,0.0,0.0,0.0,0.0,0.0,0.0,0.0,1.0904,1.2222,1.5679,1.6828,0.0,0.0,2.0241,2.1222,2.1222,2.2854,2.4,2.4492,2.4492,2.497,2.5753,2.5753,2.5911,2.6386,2.6386,2.6386,2.6386,2.4614,2.2843,2.1222,1.943,1.7763,1.6316,1.6503,1.6682,1.6852,1.788,1.8614,1.925,1.9894,1.9309,1.8109,2.0364,1.9134,1.5715,1.2238,1.5599,2.1231,2.1308,2.2418,2.4024,2.57,2.7706,3.0453,3.6551,3.8754,4.0996,4.7579,5.0332,5.2634,5.7908,6.1113,6.403,6.7313,6.9172,7.0669,7.2154,7.2467,7.2619,7.2927,7.3204,7.3424,7.3416,7.3379,7.4545,7.7754,7.82,7.8275,7.8202,7.8239,7.8309,7.8341,7.8766,7.9619,8.0893,8.1269,8.1478,8.1478,8.1504,8.1504,8.1504,8.1504,8.1504,8.1504,8.1504,8.1453,8.14,8.1478,8.1504,0.0,0.0,0.3329,0.2842,0.0,0.0,0.0,0.0,0.0,0.0,0.0,0.0,0.0,0.0,0.0,0.0,0.0,0.0,0.0,1.0737,1.1397,1.3217,1.5679,1.7638,0.0,0.0,2.1222,2.1222,2.2854,2.4,2.4492,2.4811,2.513,2.5753,2.607,2.6228,2.6386,2.6386,2.5753,2.4627,2.2843,2.1222,1.943,1.7665,1.6626,1.6316,1.6503,1.6958,1.7537,1.8678,1.8703,1.8208,1.9151,1.8678,1.7846,1.8654,1.6253,1.2729,1.3888,1.6245,1.9297,2.0779,2.1599,2.2567,2.4773,2.7493,3.062,3.5778,4.0306,4.4884,5.0024,5.3764,5.7091,6.0475,6.326,6.5591,6.71,6.8733,7.0203,7.1477,7.2144,7.2783,7.3776,7.4109,7.4053,7.3527,7.5267,7.703,7.8163,7.8312,7.8332,7.8276,7.8304,7.8303,7.8266,7.9122,8.0123,8.1269,8.1242,8.1269,8.1504,8.1504,8.1504,8.1504,8.1504,8.1478,8.1427,8.1427,8.1465,8.1523,8.1546,8.1546,0.2948,0.3472,0.0,0.3696,0.5208,0.0,0.6047,0.0,0.0,0.0,0.0,0.0,0.0,0.0,0.0,0.0,0.0,0.0,0.0,1.0904,1.1237,1.2069,1.4038,1.6008,1.7483,1.8617,1.9917,2.105,2.22,2.3348,2.4652,2.497,2.5448,2.5911,2.6228,2.6386,2.6386,2.5753,2.4945,2.3816,2.1383,1.9755,1.8463,1.6854,1.6137,1.6308,1.643,1.7027,1.7943,1.8836,1.8698,1.7609,1.8532,1.7781,1.6221,1.65,1.4138,1.1134,1.4117,1.5951,1.7456,1.9612,2.0779,2.1761,2.4308,2.7607,3.1755,3.6972,4.2617,4.8298,5.2971,5.6421,5.938,6.1995,6.4381,6.6204,6.7249,6.8922,7.0554,7.1585,7.2449,7.3272,7.4256,7.4903,7.5273,7.5176,7.6919,7.8275,7.8312,7.8294,7.8312,7.8288,7.8303,7.8414,7.8821,7.9854,8.0745,8.149,8.128,8.1269,8.1504,8.1478,8.1453,8.1453,8.1427,8.14,8.1347,8.1414,8.1475,8.1591,8.1639,8.1699]}]]